<?xml version="1.0" encoding="UTF-8" standalone="no" ?>
<gpx xmlns="http://www.topografix.com/GPX/1/1" xmlns:xsi="http://www.w3.org/2001/XMLSchema-instance" xsi:schemaLocation="http://www.topografix.com/GPX/1/1 http://www.topografix.com/GPX/1/1/gpx.xsd" version="1.1" creator="VisuGPX - https://www.visugpx.com">
  <metadata>
    <name>Beure - Roche lez Beaupré</name>
    <desc><![CDATA[xxxxxxxxxxxx]]></desc>
  </metadata>
  <trk>
    <name><![CDATA[TOUR BESANCON8:36]]></name>
    <trkseg>
      <trkpt lat="47.20679" lon="6.00121">
        <ele>214.99</ele>
        <time>2013-03-21T07:52:40Z</time>
      </trkpt>
      <trkpt lat="47.20679" lon="6.00121">
        <ele>217.4</ele>
        <time>2013-03-21T07:52:42Z</time>
      </trkpt>
      <trkpt lat="47.20678" lon="6.00121">
        <ele>220.76</ele>
        <time>2013-03-21T07:52:46Z</time>
      </trkpt>
      <trkpt lat="47.20681" lon="6.0012">
        <ele>225.09</ele>
        <time>2013-03-21T07:52:49Z</time>
      </trkpt>
      <trkpt lat="47.20681" lon="6.0012">
        <ele>224.12</ele>
        <time>2013-03-21T07:52:50Z</time>
      </trkpt>
      <trkpt lat="47.20681" lon="6.00121">
        <ele>227.49</ele>
        <time>2013-03-21T07:52:54Z</time>
      </trkpt>
      <trkpt lat="47.20682" lon="6.00121">
        <ele>231.33</ele>
        <time>2013-03-21T07:53:00Z</time>
      </trkpt>
      <trkpt lat="47.20682" lon="6.00121">
        <ele>232.3</ele>
        <time>2013-03-21T07:53:03Z</time>
      </trkpt>
      <trkpt lat="47.20682" lon="6.0012">
        <ele>233.74</ele>
        <time>2013-03-21T07:53:06Z</time>
      </trkpt>
      <trkpt lat="47.20682" lon="6.00119">
        <ele>237.1</ele>
        <time>2013-03-21T07:53:13Z</time>
      </trkpt>
      <trkpt lat="47.20682" lon="6.00119">
        <ele>233.74</ele>
        <time>2013-03-21T07:53:20Z</time>
      </trkpt>
      <trkpt lat="47.20682" lon="6.00119">
        <ele>240.95</ele>
        <time>2013-03-21T07:53:21Z</time>
      </trkpt>
      <trkpt lat="47.20681" lon="6.00115">
        <ele>243.35</ele>
        <time>2013-03-21T07:53:43Z</time>
      </trkpt>
      <trkpt lat="47.20682" lon="6.00114">
        <ele>245.75</ele>
        <time>2013-03-21T07:54:11Z</time>
      </trkpt>
      <trkpt lat="47.20682" lon="6.00114">
        <ele>245.75</ele>
        <time>2013-03-21T07:54:29Z</time>
      </trkpt>
      <trkpt lat="47.20682" lon="6.00114">
        <ele>245.27</ele>
        <time>2013-03-21T07:54:45Z</time>
      </trkpt>
      <trkpt lat="47.20683" lon="6.00115">
        <ele>245.75</ele>
        <time>2013-03-21T07:55:07Z</time>
      </trkpt>
      <trkpt lat="47.20683" lon="6.00115">
        <ele>246.23</ele>
        <time>2013-03-21T07:55:34Z</time>
      </trkpt>
      <trkpt lat="47.20683" lon="6.00115">
        <ele>246.23</ele>
        <time>2013-03-21T07:55:57Z</time>
      </trkpt>
      <trkpt lat="47.20683" lon="6.00115">
        <ele>245.75</ele>
        <time>2013-03-21T07:56:17Z</time>
      </trkpt>
      <trkpt lat="47.20683" lon="6.00115">
        <ele>246.72</ele>
        <time>2013-03-21T07:56:39Z</time>
      </trkpt>
      <trkpt lat="47.20683" lon="6.00116">
        <ele>246.23</ele>
        <time>2013-03-21T07:56:58Z</time>
      </trkpt>
      <trkpt lat="47.20683" lon="6.00116">
        <ele>246.23</ele>
        <time>2013-03-21T07:57:16Z</time>
      </trkpt>
      <trkpt lat="47.20683" lon="6.00116">
        <ele>246.23</ele>
        <time>2013-03-21T07:57:34Z</time>
      </trkpt>
      <trkpt lat="47.20682" lon="6.00117">
        <ele>246.23</ele>
        <time>2013-03-21T07:57:53Z</time>
      </trkpt>
      <trkpt lat="47.20682" lon="6.00118">
        <ele>246.72</ele>
        <time>2013-03-21T07:58:11Z</time>
      </trkpt>
      <trkpt lat="47.20682" lon="6.00118">
        <ele>246.23</ele>
        <time>2013-03-21T07:58:41Z</time>
      </trkpt>
      <trkpt lat="47.20682" lon="6.00118">
        <ele>246.23</ele>
        <time>2013-03-21T07:59:05Z</time>
      </trkpt>
      <trkpt lat="47.20681" lon="6.00118">
        <ele>246.23</ele>
        <time>2013-03-21T07:59:30Z</time>
      </trkpt>
      <trkpt lat="47.20681" lon="6.00118">
        <ele>246.72</ele>
        <time>2013-03-21T07:59:57Z</time>
      </trkpt>
      <trkpt lat="47.20681" lon="6.00118">
        <ele>240.47</ele>
        <time>2013-03-21T08:00:20Z</time>
      </trkpt>
      <trkpt lat="47.20681" lon="6.00118">
        <ele>252</ele>
        <time>2013-03-21T08:00:21Z</time>
      </trkpt>
      <trkpt lat="47.20681" lon="6.00118">
        <ele>247.2</ele>
        <time>2013-03-21T08:00:22Z</time>
      </trkpt>
      <trkpt lat="47.20681" lon="6.00118">
        <ele>243.83</ele>
        <time>2013-03-21T08:00:23Z</time>
      </trkpt>
      <trkpt lat="47.20681" lon="6.00118">
        <ele>247.68</ele>
        <time>2013-03-21T08:00:24Z</time>
      </trkpt>
      <trkpt lat="47.20681" lon="6.00118">
        <ele>242.39</ele>
        <time>2013-03-21T08:00:27Z</time>
      </trkpt>
      <trkpt lat="47.20681" lon="6.00118">
        <ele>249.6</ele>
        <time>2013-03-21T08:00:28Z</time>
      </trkpt>
      <trkpt lat="47.20681" lon="6.00118">
        <ele>246.23</ele>
        <time>2013-03-21T08:00:31Z</time>
      </trkpt>
      <trkpt lat="47.20681" lon="6.00118">
        <ele>246.23</ele>
        <time>2013-03-21T08:00:53Z</time>
      </trkpt>
      <trkpt lat="47.20681" lon="6.00118">
        <ele>246.72</ele>
        <time>2013-03-21T08:01:17Z</time>
      </trkpt>
      <trkpt lat="47.20681" lon="6.00118">
        <ele>238.06</ele>
        <time>2013-03-21T08:01:39Z</time>
      </trkpt>
      <trkpt lat="47.20681" lon="6.00118">
        <ele>251.52</ele>
        <time>2013-03-21T08:01:40Z</time>
      </trkpt>
      <trkpt lat="47.20681" lon="6.00118">
        <ele>246.72</ele>
        <time>2013-03-21T08:01:41Z</time>
      </trkpt>
      <trkpt lat="47.20681" lon="6.00118">
        <ele>246.23</ele>
        <time>2013-03-21T08:02:04Z</time>
      </trkpt>
      <trkpt lat="47.20681" lon="6.00118">
        <ele>234.7</ele>
        <time>2013-03-21T08:02:09Z</time>
      </trkpt>
      <trkpt lat="47.20681" lon="6.00118">
        <ele>244.79</ele>
        <time>2013-03-21T08:02:10Z</time>
      </trkpt>
      <trkpt lat="47.20681" lon="6.00118">
        <ele>259.21</ele>
        <time>2013-03-21T08:02:11Z</time>
      </trkpt>
      <trkpt lat="47.20681" lon="6.00118">
        <ele>248.16</ele>
        <time>2013-03-21T08:02:12Z</time>
      </trkpt>
      <trkpt lat="47.20681" lon="6.00118">
        <ele>246.72</ele>
        <time>2013-03-21T08:02:14Z</time>
      </trkpt>
      <trkpt lat="47.20681" lon="6.00118">
        <ele>247.2</ele>
        <time>2013-03-21T08:02:44Z</time>
      </trkpt>
      <trkpt lat="47.20681" lon="6.00118">
        <ele>246.72</ele>
        <time>2013-03-21T08:03:06Z</time>
      </trkpt>
      <trkpt lat="47.20681" lon="6.00119">
        <ele>246.72</ele>
        <time>2013-03-21T08:03:29Z</time>
      </trkpt>
      <trkpt lat="47.20681" lon="6.00119">
        <ele>246.72</ele>
        <time>2013-03-21T08:03:50Z</time>
      </trkpt>
      <trkpt lat="47.20681" lon="6.00119">
        <ele>246.72</ele>
        <time>2013-03-21T08:04:14Z</time>
      </trkpt>
      <trkpt lat="47.20681" lon="6.00119">
        <ele>246.23</ele>
        <time>2013-03-21T08:04:43Z</time>
      </trkpt>
      <trkpt lat="47.20681" lon="6.00119">
        <ele>246.23</ele>
        <time>2013-03-21T08:05:10Z</time>
      </trkpt>
      <trkpt lat="47.20681" lon="6.00119">
        <ele>243.35</ele>
        <time>2013-03-21T08:05:15Z</time>
      </trkpt>
      <trkpt lat="47.20681" lon="6.00119">
        <ele>247.2</ele>
        <time>2013-03-21T08:05:16Z</time>
      </trkpt>
      <trkpt lat="47.20681" lon="6.00119">
        <ele>252</ele>
        <time>2013-03-21T08:05:24Z</time>
      </trkpt>
      <trkpt lat="47.2068" lon="6.00119">
        <ele>242.39</ele>
        <time>2013-03-21T08:05:35Z</time>
      </trkpt>
      <trkpt lat="47.2068" lon="6.00119">
        <ele>246.72</ele>
        <time>2013-03-21T08:05:36Z</time>
      </trkpt>
      <trkpt lat="47.2068" lon="6.00119">
        <ele>239.02</ele>
        <time>2013-03-21T08:05:37Z</time>
      </trkpt>
      <trkpt lat="47.2068" lon="6.00119">
        <ele>254.89</ele>
        <time>2013-03-21T08:05:38Z</time>
      </trkpt>
      <trkpt lat="47.2068" lon="6.00119">
        <ele>248.16</ele>
        <time>2013-03-21T08:05:39Z</time>
      </trkpt>
      <trkpt lat="47.2068" lon="6.00119">
        <ele>246.72</ele>
        <time>2013-03-21T08:05:41Z</time>
      </trkpt>
      <trkpt lat="47.2068" lon="6.00119">
        <ele>244.79</ele>
        <time>2013-03-21T08:05:52Z</time>
      </trkpt>
      <trkpt lat="47.2068" lon="6.00119">
        <ele>246.72</ele>
        <time>2013-03-21T08:05:54Z</time>
      </trkpt>
      <trkpt lat="47.2068" lon="6.00119">
        <ele>231.81</ele>
        <time>2013-03-21T08:06:04Z</time>
      </trkpt>
      <trkpt lat="47.2068" lon="6.0012">
        <ele>252.48</ele>
        <time>2013-03-21T08:06:05Z</time>
      </trkpt>
      <trkpt lat="47.2068" lon="6.0012">
        <ele>246.23</ele>
        <time>2013-03-21T08:06:06Z</time>
      </trkpt>
      <trkpt lat="47.2068" lon="6.0012">
        <ele>246.23</ele>
        <time>2013-03-21T08:06:28Z</time>
      </trkpt>
      <trkpt lat="47.2068" lon="6.0012">
        <ele>246.23</ele>
        <time>2013-03-21T08:06:54Z</time>
      </trkpt>
      <trkpt lat="47.20673" lon="6.00124">
        <ele>245.75</ele>
        <time>2013-03-21T08:07:10Z</time>
      </trkpt>
      <trkpt lat="47.20664" lon="6.00139">
        <ele>246.23</ele>
        <time>2013-03-21T08:07:25Z</time>
      </trkpt>
      <trkpt lat="47.20658" lon="6.0016">
        <ele>247.2</ele>
        <time>2013-03-21T08:07:43Z</time>
      </trkpt>
      <trkpt lat="47.20659" lon="6.00163">
        <ele>247.68</ele>
        <time>2013-03-21T08:07:45Z</time>
      </trkpt>
      <trkpt lat="47.20673" lon="6.00193">
        <ele>246.72</ele>
        <time>2013-03-21T08:08:04Z</time>
      </trkpt>
      <trkpt lat="47.20675" lon="6.00196">
        <ele>247.2</ele>
        <time>2013-03-21T08:08:06Z</time>
      </trkpt>
      <trkpt lat="47.20692" lon="6.00216">
        <ele>246.72</ele>
        <time>2013-03-21T08:08:24Z</time>
      </trkpt>
      <trkpt lat="47.20701" lon="6.00242">
        <ele>247.2</ele>
        <time>2013-03-21T08:08:41Z</time>
      </trkpt>
      <trkpt lat="47.20704" lon="6.00278">
        <ele>247.68</ele>
        <time>2013-03-21T08:09:00Z</time>
      </trkpt>
      <trkpt lat="47.20713" lon="6.0031">
        <ele>247.68</ele>
        <time>2013-03-21T08:09:19Z</time>
      </trkpt>
      <trkpt lat="47.20725" lon="6.00344">
        <ele>248.16</ele>
        <time>2013-03-21T08:09:40Z</time>
      </trkpt>
      <trkpt lat="47.20725" lon="6.00348">
        <ele>248.16</ele>
        <time>2013-03-21T08:09:42Z</time>
      </trkpt>
      <trkpt lat="47.20721" lon="6.00391">
        <ele>250.08</ele>
        <time>2013-03-21T08:10:05Z</time>
      </trkpt>
      <trkpt lat="47.20719" lon="6.00394">
        <ele>249.6</ele>
        <time>2013-03-21T08:10:07Z</time>
      </trkpt>
      <trkpt lat="47.20707" lon="6.00423">
        <ele>251.04</ele>
        <time>2013-03-21T08:10:27Z</time>
      </trkpt>
      <trkpt lat="47.20705" lon="6.00455">
        <ele>254.41</ele>
        <time>2013-03-21T08:10:44Z</time>
      </trkpt>
      <trkpt lat="47.20704" lon="6.00465">
        <ele>254.89</ele>
        <time>2013-03-21T08:11:00Z</time>
      </trkpt>
      <trkpt lat="47.20703" lon="6.0047">
        <ele>255.85</ele>
        <time>2013-03-21T08:11:17Z</time>
      </trkpt>
      <trkpt lat="47.20699" lon="6.00476">
        <ele>255.85</ele>
        <time>2013-03-21T08:11:22Z</time>
      </trkpt>
      <trkpt lat="47.20692" lon="6.00487">
        <ele>254.89</ele>
        <time>2013-03-21T08:11:35Z</time>
      </trkpt>
      <trkpt lat="47.20688" lon="6.00526">
        <ele>253.93</ele>
        <time>2013-03-21T08:11:54Z</time>
      </trkpt>
      <trkpt lat="47.20685" lon="6.00557">
        <ele>253.93</ele>
        <time>2013-03-21T08:12:11Z</time>
      </trkpt>
      <trkpt lat="47.20688" lon="6.00588">
        <ele>254.41</ele>
        <time>2013-03-21T08:12:29Z</time>
      </trkpt>
      <trkpt lat="47.20687" lon="6.00608">
        <ele>256.33</ele>
        <time>2013-03-21T08:12:40Z</time>
      </trkpt>
      <trkpt lat="47.20689" lon="6.00636">
        <ele>256.81</ele>
        <time>2013-03-21T08:12:57Z</time>
      </trkpt>
      <trkpt lat="47.20688" lon="6.00639">
        <ele>257.29</ele>
        <time>2013-03-21T08:12:59Z</time>
      </trkpt>
      <trkpt lat="47.20689" lon="6.00669">
        <ele>259.69</ele>
        <time>2013-03-21T08:13:16Z</time>
      </trkpt>
      <trkpt lat="47.20689" lon="6.00672">
        <ele>259.21</ele>
        <time>2013-03-21T08:13:18Z</time>
      </trkpt>
      <trkpt lat="47.20687" lon="6.00703">
        <ele>260.65</ele>
        <time>2013-03-21T08:13:37Z</time>
      </trkpt>
      <trkpt lat="47.20672" lon="6.00727">
        <ele>259.69</ele>
        <time>2013-03-21T08:13:54Z</time>
      </trkpt>
      <trkpt lat="47.20659" lon="6.00752">
        <ele>260.17</ele>
        <time>2013-03-21T08:14:11Z</time>
      </trkpt>
      <trkpt lat="47.20656" lon="6.00757">
        <ele>258.25</ele>
        <time>2013-03-21T08:14:14Z</time>
      </trkpt>
      <trkpt lat="47.2065" lon="6.00767">
        <ele>258.73</ele>
        <time>2013-03-21T08:14:21Z</time>
      </trkpt>
      <trkpt lat="47.20646" lon="6.00774">
        <ele>257.77</ele>
        <time>2013-03-21T08:14:25Z</time>
      </trkpt>
      <trkpt lat="47.20639" lon="6.00784">
        <ele>257.77</ele>
        <time>2013-03-21T08:14:33Z</time>
      </trkpt>
      <trkpt lat="47.2063" lon="6.00802">
        <ele>257.29</ele>
        <time>2013-03-21T08:14:45Z</time>
      </trkpt>
      <trkpt lat="47.20628" lon="6.00805">
        <ele>258.73</ele>
        <time>2013-03-21T08:14:48Z</time>
      </trkpt>
      <trkpt lat="47.20624" lon="6.00812">
        <ele>256.33</ele>
        <time>2013-03-21T08:14:53Z</time>
      </trkpt>
      <trkpt lat="47.20603" lon="6.00835">
        <ele>256.81</ele>
        <time>2013-03-21T08:15:13Z</time>
      </trkpt>
      <trkpt lat="47.20581" lon="6.00843">
        <ele>257.29</ele>
        <time>2013-03-21T08:15:29Z</time>
      </trkpt>
      <trkpt lat="47.20574" lon="6.00842">
        <ele>256.81</ele>
        <time>2013-03-21T08:15:36Z</time>
      </trkpt>
      <trkpt lat="47.20572" lon="6.00841">
        <ele>256.81</ele>
        <time>2013-03-21T08:15:38Z</time>
      </trkpt>
      <trkpt lat="47.20555" lon="6.00863">
        <ele>257.29</ele>
        <time>2013-03-21T08:15:56Z</time>
      </trkpt>
      <trkpt lat="47.20551" lon="6.00863">
        <ele>257.29</ele>
        <time>2013-03-21T08:16:00Z</time>
      </trkpt>
      <trkpt lat="47.20531" lon="6.00856">
        <ele>256.81</ele>
        <time>2013-03-21T08:16:17Z</time>
      </trkpt>
      <trkpt lat="47.20512" lon="6.00846">
        <ele>260.17</ele>
        <time>2013-03-21T08:16:35Z</time>
      </trkpt>
      <trkpt lat="47.20503" lon="6.0086">
        <ele>262.1</ele>
        <time>2013-03-21T08:16:52Z</time>
      </trkpt>
      <trkpt lat="47.20502" lon="6.00855">
        <ele>261.14</ele>
        <time>2013-03-21T08:16:55Z</time>
      </trkpt>
      <trkpt lat="47.205" lon="6.0085">
        <ele>260.65</ele>
        <time>2013-03-21T08:17:09Z</time>
      </trkpt>
      <trkpt lat="47.20507" lon="6.00867">
        <ele>260.65</ele>
        <time>2013-03-21T08:17:18Z</time>
      </trkpt>
      <trkpt lat="47.20512" lon="6.00895">
        <ele>262.58</ele>
        <time>2013-03-21T08:17:33Z</time>
      </trkpt>
      <trkpt lat="47.20515" lon="6.00899">
        <ele>260.65</ele>
        <time>2013-03-21T08:17:36Z</time>
      </trkpt>
      <trkpt lat="47.20517" lon="6.00902">
        <ele>262.1</ele>
        <time>2013-03-21T08:17:38Z</time>
      </trkpt>
      <trkpt lat="47.20518" lon="6.00904">
        <ele>261.62</ele>
        <time>2013-03-21T08:17:40Z</time>
      </trkpt>
      <trkpt lat="47.20522" lon="6.00933">
        <ele>262.1</ele>
        <time>2013-03-21T08:17:50Z</time>
      </trkpt>
      <trkpt lat="47.20527" lon="6.00935">
        <ele>258.25</ele>
        <time>2013-03-21T08:18:01Z</time>
      </trkpt>
      <trkpt lat="47.2054" lon="6.00936">
        <ele>257.29</ele>
        <time>2013-03-21T08:18:18Z</time>
      </trkpt>
      <trkpt lat="47.20543" lon="6.00937">
        <ele>257.77</ele>
        <time>2013-03-21T08:18:20Z</time>
      </trkpt>
      <trkpt lat="47.20551" lon="6.00941">
        <ele>263.06</ele>
        <time>2013-03-21T08:18:33Z</time>
      </trkpt>
      <trkpt lat="47.20549" lon="6.00972">
        <ele>262.1</ele>
        <time>2013-03-21T08:18:48Z</time>
      </trkpt>
      <trkpt lat="47.20549" lon="6.00978">
        <ele>263.54</ele>
        <time>2013-03-21T08:18:51Z</time>
      </trkpt>
      <trkpt lat="47.20551" lon="6.00996">
        <ele>264.5</ele>
        <time>2013-03-21T08:19:08Z</time>
      </trkpt>
      <trkpt lat="47.20551" lon="6.01">
        <ele>265.94</ele>
        <time>2013-03-21T08:19:13Z</time>
      </trkpt>
      <trkpt lat="47.2055" lon="6.01008">
        <ele>264.02</ele>
        <time>2013-03-21T08:19:19Z</time>
      </trkpt>
      <trkpt lat="47.20548" lon="6.01016">
        <ele>268.83</ele>
        <time>2013-03-21T08:19:29Z</time>
      </trkpt>
      <trkpt lat="47.2055" lon="6.01031">
        <ele>268.83</ele>
        <time>2013-03-21T08:19:51Z</time>
      </trkpt>
      <trkpt lat="47.2055" lon="6.01035">
        <ele>271.23</ele>
        <time>2013-03-21T08:19:57Z</time>
      </trkpt>
      <trkpt lat="47.20551" lon="6.0104">
        <ele>270.75</ele>
        <time>2013-03-21T08:20:21Z</time>
      </trkpt>
      <trkpt lat="47.20551" lon="6.0104">
        <ele>273.15</ele>
        <time>2013-03-21T08:20:24Z</time>
      </trkpt>
      <trkpt lat="47.20551" lon="6.01041">
        <ele>271.71</ele>
        <time>2013-03-21T08:20:25Z</time>
      </trkpt>
      <trkpt lat="47.20553" lon="6.01052">
        <ele>273.15</ele>
        <time>2013-03-21T08:20:50Z</time>
      </trkpt>
      <trkpt lat="47.20552" lon="6.01051">
        <ele>272.67</ele>
        <time>2013-03-21T08:21:21Z</time>
      </trkpt>
      <trkpt lat="47.20551" lon="6.01061">
        <ele>274.11</ele>
        <time>2013-03-21T08:21:44Z</time>
      </trkpt>
      <trkpt lat="47.20551" lon="6.01066">
        <ele>274.11</ele>
        <time>2013-03-21T08:21:47Z</time>
      </trkpt>
      <trkpt lat="47.20553" lon="6.01081">
        <ele>275.07</ele>
        <time>2013-03-21T08:21:55Z</time>
      </trkpt>
      <trkpt lat="47.20552" lon="6.01082">
        <ele>280.36</ele>
        <time>2013-03-21T08:22:05Z</time>
      </trkpt>
      <trkpt lat="47.20552" lon="6.01082">
        <ele>276.04</ele>
        <time>2013-03-21T08:22:06Z</time>
      </trkpt>
      <trkpt lat="47.20552" lon="6.0108">
        <ele>277.96</ele>
        <time>2013-03-21T08:22:14Z</time>
      </trkpt>
      <trkpt lat="47.20559" lon="6.01065">
        <ele>280.84</ele>
        <time>2013-03-21T08:22:36Z</time>
      </trkpt>
      <trkpt lat="47.20561" lon="6.01064">
        <ele>283.73</ele>
        <time>2013-03-21T08:22:54Z</time>
      </trkpt>
      <trkpt lat="47.20563" lon="6.01064">
        <ele>285.65</ele>
        <time>2013-03-21T08:23:02Z</time>
      </trkpt>
      <trkpt lat="47.20563" lon="6.01064">
        <ele>286.61</ele>
        <time>2013-03-21T08:23:19Z</time>
      </trkpt>
      <trkpt lat="47.20562" lon="6.01067">
        <ele>289.97</ele>
        <time>2013-03-21T08:23:27Z</time>
      </trkpt>
      <trkpt lat="47.20561" lon="6.01072">
        <ele>289.49</ele>
        <time>2013-03-21T08:23:39Z</time>
      </trkpt>
      <trkpt lat="47.20563" lon="6.01072">
        <ele>290.94</ele>
        <time>2013-03-21T08:23:41Z</time>
      </trkpt>
      <trkpt lat="47.20573" lon="6.01049">
        <ele>291.9</ele>
        <time>2013-03-21T08:23:58Z</time>
      </trkpt>
      <trkpt lat="47.20577" lon="6.01046">
        <ele>294.3</ele>
        <time>2013-03-21T08:24:04Z</time>
      </trkpt>
      <trkpt lat="47.20581" lon="6.01034">
        <ele>292.86</ele>
        <time>2013-03-21T08:24:14Z</time>
      </trkpt>
      <trkpt lat="47.20586" lon="6.01001">
        <ele>289.97</ele>
        <time>2013-03-21T08:24:31Z</time>
      </trkpt>
      <trkpt lat="47.20587" lon="6.00993">
        <ele>289.01</ele>
        <time>2013-03-21T08:24:35Z</time>
      </trkpt>
      <trkpt lat="47.20593" lon="6.00971">
        <ele>287.09</ele>
        <time>2013-03-21T08:24:47Z</time>
      </trkpt>
      <trkpt lat="47.206" lon="6.00948">
        <ele>285.65</ele>
        <time>2013-03-21T08:24:59Z</time>
      </trkpt>
      <trkpt lat="47.20601" lon="6.00945">
        <ele>287.09</ele>
        <time>2013-03-21T08:25:01Z</time>
      </trkpt>
      <trkpt lat="47.20606" lon="6.0094">
        <ele>285.17</ele>
        <time>2013-03-21T08:25:06Z</time>
      </trkpt>
      <trkpt lat="47.20607" lon="6.00938">
        <ele>286.61</ele>
        <time>2013-03-21T08:25:07Z</time>
      </trkpt>
      <trkpt lat="47.2062" lon="6.00915">
        <ele>284.21</ele>
        <time>2013-03-21T08:25:24Z</time>
      </trkpt>
      <trkpt lat="47.2063" lon="6.00897">
        <ele>280.84</ele>
        <time>2013-03-21T08:25:34Z</time>
      </trkpt>
      <trkpt lat="47.20641" lon="6.00883">
        <ele>279.88</ele>
        <time>2013-03-21T08:25:53Z</time>
      </trkpt>
      <trkpt lat="47.2065" lon="6.00861">
        <ele>277.96</ele>
        <time>2013-03-21T08:26:05Z</time>
      </trkpt>
      <trkpt lat="47.20652" lon="6.00856">
        <ele>279.4</ele>
        <time>2013-03-21T08:26:08Z</time>
      </trkpt>
      <trkpt lat="47.2066" lon="6.00843">
        <ele>275.56</ele>
        <time>2013-03-21T08:26:17Z</time>
      </trkpt>
      <trkpt lat="47.20661" lon="6.00842">
        <ele>276.04</ele>
        <time>2013-03-21T08:26:18Z</time>
      </trkpt>
      <trkpt lat="47.20664" lon="6.00834">
        <ele>276.52</ele>
        <time>2013-03-21T08:26:23Z</time>
      </trkpt>
      <trkpt lat="47.2067" lon="6.00815">
        <ele>275.07</ele>
        <time>2013-03-21T08:26:33Z</time>
      </trkpt>
      <trkpt lat="47.2067" lon="6.00813">
        <ele>275.07</ele>
        <time>2013-03-21T08:26:41Z</time>
      </trkpt>
      <trkpt lat="47.20669" lon="6.00824">
        <ele>277.48</ele>
        <time>2013-03-21T08:26:54Z</time>
      </trkpt>
      <trkpt lat="47.20665" lon="6.00825">
        <ele>277.48</ele>
        <time>2013-03-21T08:27:21Z</time>
      </trkpt>
      <trkpt lat="47.20665" lon="6.00825">
        <ele>277</ele>
        <time>2013-03-21T08:27:46Z</time>
      </trkpt>
      <trkpt lat="47.20665" lon="6.00827">
        <ele>279.4</ele>
        <time>2013-03-21T08:28:12Z</time>
      </trkpt>
      <trkpt lat="47.20665" lon="6.00832">
        <ele>278.44</ele>
        <time>2013-03-21T08:28:17Z</time>
      </trkpt>
      <trkpt lat="47.20663" lon="6.00834">
        <ele>279.4</ele>
        <time>2013-03-21T08:28:19Z</time>
      </trkpt>
      <trkpt lat="47.2066" lon="6.00842">
        <ele>281.32</ele>
        <time>2013-03-21T08:28:25Z</time>
      </trkpt>
      <trkpt lat="47.20658" lon="6.00849">
        <ele>281.8</ele>
        <time>2013-03-21T08:28:30Z</time>
      </trkpt>
      <trkpt lat="47.20655" lon="6.00863">
        <ele>282.77</ele>
        <time>2013-03-21T08:28:40Z</time>
      </trkpt>
      <trkpt lat="47.20651" lon="6.00877">
        <ele>285.17</ele>
        <time>2013-03-21T08:28:53Z</time>
      </trkpt>
      <trkpt lat="47.20652" lon="6.00887">
        <ele>286.13</ele>
        <time>2013-03-21T08:29:07Z</time>
      </trkpt>
      <trkpt lat="47.20646" lon="6.00893">
        <ele>287.57</ele>
        <time>2013-03-21T08:29:15Z</time>
      </trkpt>
      <trkpt lat="47.20643" lon="6.00902">
        <ele>291.9</ele>
        <time>2013-03-21T08:29:27Z</time>
      </trkpt>
      <trkpt lat="47.20639" lon="6.00919">
        <ele>292.38</ele>
        <time>2013-03-21T08:29:44Z</time>
      </trkpt>
      <trkpt lat="47.20638" lon="6.00922">
        <ele>293.82</ele>
        <time>2013-03-21T08:29:47Z</time>
      </trkpt>
      <trkpt lat="47.20636" lon="6.00927">
        <ele>294.78</ele>
        <time>2013-03-21T08:29:51Z</time>
      </trkpt>
      <trkpt lat="47.20629" lon="6.00934">
        <ele>299.11</ele>
        <time>2013-03-21T08:30:06Z</time>
      </trkpt>
      <trkpt lat="47.20626" lon="6.00939">
        <ele>295.74</ele>
        <time>2013-03-21T08:30:14Z</time>
      </trkpt>
      <trkpt lat="47.20624" lon="6.00942">
        <ele>299.11</ele>
        <time>2013-03-21T08:30:18Z</time>
      </trkpt>
      <trkpt lat="47.20624" lon="6.00943">
        <ele>299.11</ele>
        <time>2013-03-21T08:30:19Z</time>
      </trkpt>
      <trkpt lat="47.2062" lon="6.00945">
        <ele>299.11</ele>
        <time>2013-03-21T08:30:24Z</time>
      </trkpt>
      <trkpt lat="47.20616" lon="6.00949">
        <ele>301.99</ele>
        <time>2013-03-21T08:30:29Z</time>
      </trkpt>
      <trkpt lat="47.20614" lon="6.00955">
        <ele>301.03</ele>
        <time>2013-03-21T08:30:34Z</time>
      </trkpt>
      <trkpt lat="47.20612" lon="6.00962">
        <ele>302.47</ele>
        <time>2013-03-21T08:30:39Z</time>
      </trkpt>
      <trkpt lat="47.20613" lon="6.00964">
        <ele>306.8</ele>
        <time>2013-03-21T08:30:42Z</time>
      </trkpt>
      <trkpt lat="47.20612" lon="6.00965">
        <ele>301.99</ele>
        <time>2013-03-21T08:30:43Z</time>
      </trkpt>
      <trkpt lat="47.2061" lon="6.00973">
        <ele>303.91</ele>
        <time>2013-03-21T08:30:59Z</time>
      </trkpt>
      <trkpt lat="47.2061" lon="6.0098">
        <ele>305.36</ele>
        <time>2013-03-21T08:31:20Z</time>
      </trkpt>
      <trkpt lat="47.2061" lon="6.00983">
        <ele>306.8</ele>
        <time>2013-03-21T08:31:39Z</time>
      </trkpt>
      <trkpt lat="47.20618" lon="6.00973">
        <ele>309.68</ele>
        <time>2013-03-21T08:31:53Z</time>
      </trkpt>
      <trkpt lat="47.20625" lon="6.00967">
        <ele>311.12</ele>
        <time>2013-03-21T08:32:04Z</time>
      </trkpt>
      <trkpt lat="47.20632" lon="6.00964">
        <ele>313.05</ele>
        <time>2013-03-21T08:32:17Z</time>
      </trkpt>
      <trkpt lat="47.20636" lon="6.00963">
        <ele>314.01</ele>
        <time>2013-03-21T08:32:23Z</time>
      </trkpt>
      <trkpt lat="47.20636" lon="6.00972">
        <ele>316.89</ele>
        <time>2013-03-21T08:32:46Z</time>
      </trkpt>
      <trkpt lat="47.20635" lon="6.00979">
        <ele>317.37</ele>
        <time>2013-03-21T08:32:52Z</time>
      </trkpt>
      <trkpt lat="47.20635" lon="6.00985">
        <ele>319.78</ele>
        <time>2013-03-21T08:32:58Z</time>
      </trkpt>
      <trkpt lat="47.20635" lon="6.00991">
        <ele>319.78</ele>
        <time>2013-03-21T08:33:16Z</time>
      </trkpt>
      <trkpt lat="47.20639" lon="6.00988">
        <ele>322.66</ele>
        <time>2013-03-21T08:33:29Z</time>
      </trkpt>
      <trkpt lat="47.20641" lon="6.00988">
        <ele>326.02</ele>
        <time>2013-03-21T08:33:44Z</time>
      </trkpt>
      <trkpt lat="47.20643" lon="6.00987">
        <ele>323.14</ele>
        <time>2013-03-21T08:33:45Z</time>
      </trkpt>
      <trkpt lat="47.20643" lon="6.00987">
        <ele>324.1</ele>
        <time>2013-03-21T08:33:46Z</time>
      </trkpt>
      <trkpt lat="47.20647" lon="6.00981">
        <ele>325.54</ele>
        <time>2013-03-21T08:33:54Z</time>
      </trkpt>
      <trkpt lat="47.20652" lon="6.00978">
        <ele>329.39</ele>
        <time>2013-03-21T08:34:06Z</time>
      </trkpt>
      <trkpt lat="47.20653" lon="6.0098">
        <ele>327.47</ele>
        <time>2013-03-21T08:34:13Z</time>
      </trkpt>
      <trkpt lat="47.20656" lon="6.00986">
        <ele>326.99</ele>
        <time>2013-03-21T08:34:23Z</time>
      </trkpt>
      <trkpt lat="47.20656" lon="6.00986">
        <ele>329.87</ele>
        <time>2013-03-21T08:34:24Z</time>
      </trkpt>
      <trkpt lat="47.20658" lon="6.00987">
        <ele>330.83</ele>
        <time>2013-03-21T08:34:27Z</time>
      </trkpt>
      <trkpt lat="47.20658" lon="6.00989">
        <ele>330.83</ele>
        <time>2013-03-21T08:34:35Z</time>
      </trkpt>
      <trkpt lat="47.20663" lon="6.0099">
        <ele>333.23</ele>
        <time>2013-03-21T08:34:40Z</time>
      </trkpt>
      <trkpt lat="47.20666" lon="6.00994">
        <ele>335.64</ele>
        <time>2013-03-21T08:34:43Z</time>
      </trkpt>
      <trkpt lat="47.20667" lon="6.00994">
        <ele>333.71</ele>
        <time>2013-03-21T08:34:44Z</time>
      </trkpt>
      <trkpt lat="47.20667" lon="6.00996">
        <ele>337.56</ele>
        <time>2013-03-21T08:34:58Z</time>
      </trkpt>
      <trkpt lat="47.20667" lon="6.00996">
        <ele>332.75</ele>
        <time>2013-03-21T08:34:59Z</time>
      </trkpt>
      <trkpt lat="47.20667" lon="6.00996">
        <ele>337.08</ele>
        <time>2013-03-21T08:35:00Z</time>
      </trkpt>
      <trkpt lat="47.20667" lon="6.00996">
        <ele>333.71</ele>
        <time>2013-03-21T08:35:01Z</time>
      </trkpt>
      <trkpt lat="47.20667" lon="6.00996">
        <ele>337.08</ele>
        <time>2013-03-21T08:35:02Z</time>
      </trkpt>
      <trkpt lat="47.20667" lon="6.00996">
        <ele>335.64</ele>
        <time>2013-03-21T08:35:30Z</time>
      </trkpt>
      <trkpt lat="47.20667" lon="6.00996">
        <ele>320.26</ele>
        <time>2013-03-21T08:35:39Z</time>
      </trkpt>
      <trkpt lat="47.20667" lon="6.00996">
        <ele>336.12</ele>
        <time>2013-03-21T08:35:40Z</time>
      </trkpt>
      <trkpt lat="47.20667" lon="6.00996">
        <ele>351.5</ele>
        <time>2013-03-21T08:35:41Z</time>
      </trkpt>
      <trkpt lat="47.2067" lon="6.00996">
        <ele>337.56</ele>
        <time>2013-03-21T08:35:44Z</time>
      </trkpt>
      <trkpt lat="47.20673" lon="6.0099">
        <ele>338.52</ele>
        <time>2013-03-21T08:36:00Z</time>
      </trkpt>
      <trkpt lat="47.20678" lon="6.00987">
        <ele>339.96</ele>
        <time>2013-03-21T08:36:06Z</time>
      </trkpt>
      <trkpt lat="47.2068" lon="6.00984">
        <ele>341.89</ele>
        <time>2013-03-21T08:36:13Z</time>
      </trkpt>
      <trkpt lat="47.20684" lon="6.00973">
        <ele>343.33</ele>
        <time>2013-03-21T08:36:21Z</time>
      </trkpt>
      <trkpt lat="47.20696" lon="6.00966">
        <ele>346.21</ele>
        <time>2013-03-21T08:36:35Z</time>
      </trkpt>
      <trkpt lat="47.20696" lon="6.00966">
        <ele>346.21</ele>
        <time>2013-03-21T08:36:39Z</time>
      </trkpt>
      <trkpt lat="47.20697" lon="6.00964">
        <ele>346.69</ele>
        <time>2013-03-21T08:36:43Z</time>
      </trkpt>
      <trkpt lat="47.20703" lon="6.00956">
        <ele>349.58</ele>
        <time>2013-03-21T08:36:57Z</time>
      </trkpt>
      <trkpt lat="47.20703" lon="6.00956">
        <ele>349.58</ele>
        <time>2013-03-21T08:37:01Z</time>
      </trkpt>
      <trkpt lat="47.20708" lon="6.00955">
        <ele>353.42</ele>
        <time>2013-03-21T08:37:22Z</time>
      </trkpt>
      <trkpt lat="47.20711" lon="6.00955">
        <ele>350.54</ele>
        <time>2013-03-21T08:37:32Z</time>
      </trkpt>
      <trkpt lat="47.20711" lon="6.00955">
        <ele>353.9</ele>
        <time>2013-03-21T08:37:34Z</time>
      </trkpt>
      <trkpt lat="47.20711" lon="6.00955">
        <ele>353.9</ele>
        <time>2013-03-21T08:37:35Z</time>
      </trkpt>
      <trkpt lat="47.20711" lon="6.00955">
        <ele>354.86</ele>
        <time>2013-03-21T08:37:42Z</time>
      </trkpt>
      <trkpt lat="47.20711" lon="6.00955">
        <ele>353.9</ele>
        <time>2013-03-21T08:37:44Z</time>
      </trkpt>
      <trkpt lat="47.20713" lon="6.00957">
        <ele>353.9</ele>
        <time>2013-03-21T08:38:10Z</time>
      </trkpt>
      <trkpt lat="47.20717" lon="6.00955">
        <ele>355.83</ele>
        <time>2013-03-21T08:38:33Z</time>
      </trkpt>
      <trkpt lat="47.20726" lon="6.00951">
        <ele>358.23</ele>
        <time>2013-03-21T08:38:54Z</time>
      </trkpt>
      <trkpt lat="47.20734" lon="6.0095">
        <ele>359.19</ele>
        <time>2013-03-21T08:39:06Z</time>
      </trkpt>
      <trkpt lat="47.20735" lon="6.00951">
        <ele>357.75</ele>
        <time>2013-03-21T08:39:08Z</time>
      </trkpt>
      <trkpt lat="47.20735" lon="6.00951">
        <ele>360.15</ele>
        <time>2013-03-21T08:39:10Z</time>
      </trkpt>
      <trkpt lat="47.20737" lon="6.00955">
        <ele>364</ele>
        <time>2013-03-21T08:39:34Z</time>
      </trkpt>
      <trkpt lat="47.2074" lon="6.00957">
        <ele>363.04</ele>
        <time>2013-03-21T08:39:36Z</time>
      </trkpt>
      <trkpt lat="47.20742" lon="6.0096">
        <ele>364.96</ele>
        <time>2013-03-21T08:39:43Z</time>
      </trkpt>
      <trkpt lat="47.20749" lon="6.00964">
        <ele>369.28</ele>
        <time>2013-03-21T08:40:02Z</time>
      </trkpt>
      <trkpt lat="47.20749" lon="6.00964">
        <ele>367.84</ele>
        <time>2013-03-21T08:40:03Z</time>
      </trkpt>
      <trkpt lat="47.20752" lon="6.00973">
        <ele>369.76</ele>
        <time>2013-03-21T08:40:20Z</time>
      </trkpt>
      <trkpt lat="47.20754" lon="6.00974">
        <ele>369.76</ele>
        <time>2013-03-21T08:40:23Z</time>
      </trkpt>
      <trkpt lat="47.20754" lon="6.00976">
        <ele>370.73</ele>
        <time>2013-03-21T08:40:37Z</time>
      </trkpt>
      <trkpt lat="47.20754" lon="6.00976">
        <ele>372.65</ele>
        <time>2013-03-21T08:40:59Z</time>
      </trkpt>
      <trkpt lat="47.20752" lon="6.00981">
        <ele>374.57</ele>
        <time>2013-03-21T08:41:21Z</time>
      </trkpt>
      <trkpt lat="47.20752" lon="6.00977">
        <ele>374.57</ele>
        <time>2013-03-21T08:41:24Z</time>
      </trkpt>
      <trkpt lat="47.2075" lon="6.00976">
        <ele>374.57</ele>
        <time>2013-03-21T08:41:48Z</time>
      </trkpt>
      <trkpt lat="47.2075" lon="6.00976">
        <ele>374.09</ele>
        <time>2013-03-21T08:42:18Z</time>
      </trkpt>
      <trkpt lat="47.2075" lon="6.00976">
        <ele>374.57</ele>
        <time>2013-03-21T08:42:27Z</time>
      </trkpt>
      <trkpt lat="47.2075" lon="6.00976">
        <ele>373.61</ele>
        <time>2013-03-21T08:42:54Z</time>
      </trkpt>
      <trkpt lat="47.2075" lon="6.00976">
        <ele>376.97</ele>
        <time>2013-03-21T08:43:00Z</time>
      </trkpt>
      <trkpt lat="47.2075" lon="6.00976">
        <ele>373.13</ele>
        <time>2013-03-21T08:43:02Z</time>
      </trkpt>
      <trkpt lat="47.2075" lon="6.00976">
        <ele>375.53</ele>
        <time>2013-03-21T08:43:05Z</time>
      </trkpt>
      <trkpt lat="47.2075" lon="6.00975">
        <ele>372.17</ele>
        <time>2013-03-21T08:43:08Z</time>
      </trkpt>
      <trkpt lat="47.2075" lon="6.00975">
        <ele>375.53</ele>
        <time>2013-03-21T08:43:13Z</time>
      </trkpt>
      <trkpt lat="47.2075" lon="6.00975">
        <ele>371.21</ele>
        <time>2013-03-21T08:43:19Z</time>
      </trkpt>
      <trkpt lat="47.2075" lon="6.00975">
        <ele>374.09</ele>
        <time>2013-03-21T08:43:20Z</time>
      </trkpt>
      <trkpt lat="47.20752" lon="6.00977">
        <ele>374.57</ele>
        <time>2013-03-21T08:43:42Z</time>
      </trkpt>
      <trkpt lat="47.20755" lon="6.00977">
        <ele>375.53</ele>
        <time>2013-03-21T08:43:49Z</time>
      </trkpt>
      <trkpt lat="47.2076" lon="6.00977">
        <ele>375.53</ele>
        <time>2013-03-21T08:43:53Z</time>
      </trkpt>
      <trkpt lat="47.20762" lon="6.00978">
        <ele>377.45</ele>
        <time>2013-03-21T08:43:56Z</time>
      </trkpt>
      <trkpt lat="47.2077" lon="6.00977">
        <ele>377.45</ele>
        <time>2013-03-21T08:44:12Z</time>
      </trkpt>
      <trkpt lat="47.20783" lon="6.00967">
        <ele>381.78</ele>
        <time>2013-03-21T08:44:32Z</time>
      </trkpt>
      <trkpt lat="47.20786" lon="6.00965">
        <ele>382.26</ele>
        <time>2013-03-21T08:44:39Z</time>
      </trkpt>
      <trkpt lat="47.20791" lon="6.0096">
        <ele>385.15</ele>
        <time>2013-03-21T08:44:58Z</time>
      </trkpt>
      <trkpt lat="47.20792" lon="6.00957">
        <ele>386.59</ele>
        <time>2013-03-21T08:45:18Z</time>
      </trkpt>
      <trkpt lat="47.20796" lon="6.00955">
        <ele>386.59</ele>
        <time>2013-03-21T08:45:24Z</time>
      </trkpt>
      <trkpt lat="47.20799" lon="6.00953">
        <ele>389.95</ele>
        <time>2013-03-21T08:45:44Z</time>
      </trkpt>
      <trkpt lat="47.208" lon="6.00949">
        <ele>389.95</ele>
        <time>2013-03-21T08:46:13Z</time>
      </trkpt>
      <trkpt lat="47.20804" lon="6.00947">
        <ele>393.32</ele>
        <time>2013-03-21T08:46:30Z</time>
      </trkpt>
      <trkpt lat="47.2081" lon="6.00947">
        <ele>395.24</ele>
        <time>2013-03-21T08:46:40Z</time>
      </trkpt>
      <trkpt lat="47.20817" lon="6.00945">
        <ele>398.12</ele>
        <time>2013-03-21T08:46:56Z</time>
      </trkpt>
      <trkpt lat="47.20819" lon="6.00944">
        <ele>399.08</ele>
        <time>2013-03-21T08:47:16Z</time>
      </trkpt>
      <trkpt lat="47.20822" lon="6.0094">
        <ele>400.53</ele>
        <time>2013-03-21T08:47:33Z</time>
      </trkpt>
      <trkpt lat="47.20827" lon="6.00941">
        <ele>403.89</ele>
        <time>2013-03-21T08:47:46Z</time>
      </trkpt>
      <trkpt lat="47.2083" lon="6.0094">
        <ele>404.37</ele>
        <time>2013-03-21T08:48:03Z</time>
      </trkpt>
      <trkpt lat="47.20832" lon="6.00942">
        <ele>408.7</ele>
        <time>2013-03-21T08:48:21Z</time>
      </trkpt>
      <trkpt lat="47.20841" lon="6.00941">
        <ele>409.18</ele>
        <time>2013-03-21T08:48:36Z</time>
      </trkpt>
      <trkpt lat="47.20842" lon="6.00942">
        <ele>409.18</ele>
        <time>2013-03-21T08:48:53Z</time>
      </trkpt>
      <trkpt lat="47.20842" lon="6.00942">
        <ele>410.14</ele>
        <time>2013-03-21T08:49:13Z</time>
      </trkpt>
      <trkpt lat="47.20843" lon="6.00941">
        <ele>409.18</ele>
        <time>2013-03-21T08:49:21Z</time>
      </trkpt>
      <trkpt lat="47.20843" lon="6.00941">
        <ele>409.66</ele>
        <time>2013-03-21T08:49:53Z</time>
      </trkpt>
      <trkpt lat="47.20851" lon="6.00946">
        <ele>411.58</ele>
        <time>2013-03-21T08:50:15Z</time>
      </trkpt>
      <trkpt lat="47.20861" lon="6.00952">
        <ele>413.5</ele>
        <time>2013-03-21T08:50:31Z</time>
      </trkpt>
      <trkpt lat="47.20871" lon="6.00955">
        <ele>416.39</ele>
        <time>2013-03-21T08:50:50Z</time>
      </trkpt>
      <trkpt lat="47.20879" lon="6.0096">
        <ele>418.31</ele>
        <time>2013-03-21T08:51:07Z</time>
      </trkpt>
      <trkpt lat="47.20892" lon="6.0096">
        <ele>419.75</ele>
        <time>2013-03-21T08:51:25Z</time>
      </trkpt>
      <trkpt lat="47.20903" lon="6.00963">
        <ele>420.71</ele>
        <time>2013-03-21T08:51:40Z</time>
      </trkpt>
      <trkpt lat="47.20914" lon="6.00959">
        <ele>419.27</ele>
        <time>2013-03-21T08:51:56Z</time>
      </trkpt>
      <trkpt lat="47.20918" lon="6.00958">
        <ele>419.27</ele>
        <time>2013-03-21T08:52:11Z</time>
      </trkpt>
      <trkpt lat="47.20918" lon="6.00958">
        <ele>414.47</ele>
        <time>2013-03-21T08:52:27Z</time>
      </trkpt>
      <trkpt lat="47.20918" lon="6.00958">
        <ele>421.19</ele>
        <time>2013-03-21T08:52:28Z</time>
      </trkpt>
      <trkpt lat="47.20918" lon="6.00958">
        <ele>426</ele>
        <time>2013-03-21T08:52:29Z</time>
      </trkpt>
      <trkpt lat="47.20918" lon="6.00958">
        <ele>419.27</ele>
        <time>2013-03-21T08:52:30Z</time>
      </trkpt>
      <trkpt lat="47.20918" lon="6.00958">
        <ele>419.27</ele>
        <time>2013-03-21T08:52:31Z</time>
      </trkpt>
      <trkpt lat="47.20918" lon="6.00958">
        <ele>419.75</ele>
        <time>2013-03-21T08:52:52Z</time>
      </trkpt>
      <trkpt lat="47.20918" lon="6.00958">
        <ele>419.27</ele>
        <time>2013-03-21T08:53:14Z</time>
      </trkpt>
      <trkpt lat="47.20918" lon="6.00957">
        <ele>418.79</ele>
        <time>2013-03-21T08:53:31Z</time>
      </trkpt>
      <trkpt lat="47.20918" lon="6.00957">
        <ele>419.75</ele>
        <time>2013-03-21T08:53:53Z</time>
      </trkpt>
      <trkpt lat="47.20918" lon="6.00958">
        <ele>419.75</ele>
        <time>2013-03-21T08:54:12Z</time>
      </trkpt>
      <trkpt lat="47.20918" lon="6.00958">
        <ele>419.75</ele>
        <time>2013-03-21T08:54:33Z</time>
      </trkpt>
      <trkpt lat="47.20926" lon="6.00965">
        <ele>420.71</ele>
        <time>2013-03-21T08:54:49Z</time>
      </trkpt>
      <trkpt lat="47.20937" lon="6.00983">
        <ele>421.19</ele>
        <time>2013-03-21T08:55:05Z</time>
      </trkpt>
      <trkpt lat="47.20939" lon="6.00986">
        <ele>420.71</ele>
        <time>2013-03-21T08:55:13Z</time>
      </trkpt>
      <trkpt lat="47.2094" lon="6.00988">
        <ele>420.71</ele>
        <time>2013-03-21T08:55:15Z</time>
      </trkpt>
      <trkpt lat="47.2095" lon="6.01013">
        <ele>420.23</ele>
        <time>2013-03-21T08:55:31Z</time>
      </trkpt>
      <trkpt lat="47.20963" lon="6.01039">
        <ele>418.79</ele>
        <time>2013-03-21T08:55:47Z</time>
      </trkpt>
      <trkpt lat="47.20977" lon="6.01064">
        <ele>418.31</ele>
        <time>2013-03-21T08:56:04Z</time>
      </trkpt>
      <trkpt lat="47.20987" lon="6.01085">
        <ele>417.35</ele>
        <time>2013-03-21T08:56:18Z</time>
      </trkpt>
      <trkpt lat="47.20997" lon="6.01112">
        <ele>416.87</ele>
        <time>2013-03-21T08:56:35Z</time>
      </trkpt>
      <trkpt lat="47.21005" lon="6.01128">
        <ele>416.39</ele>
        <time>2013-03-21T08:56:46Z</time>
      </trkpt>
      <trkpt lat="47.21011" lon="6.01151">
        <ele>415.43</ele>
        <time>2013-03-21T08:57:02Z</time>
      </trkpt>
      <trkpt lat="47.21011" lon="6.01156">
        <ele>414.95</ele>
        <time>2013-03-21T08:57:05Z</time>
      </trkpt>
      <trkpt lat="47.21016" lon="6.01181">
        <ele>413.98</ele>
        <time>2013-03-21T08:57:20Z</time>
      </trkpt>
      <trkpt lat="47.21024" lon="6.01205">
        <ele>413.5</ele>
        <time>2013-03-21T08:57:35Z</time>
      </trkpt>
      <trkpt lat="47.21027" lon="6.01213">
        <ele>413.02</ele>
        <time>2013-03-21T08:57:40Z</time>
      </trkpt>
      <trkpt lat="47.21028" lon="6.01228">
        <ele>413.98</ele>
        <time>2013-03-21T08:57:50Z</time>
      </trkpt>
      <trkpt lat="47.21031" lon="6.01236">
        <ele>413.98</ele>
        <time>2013-03-21T08:57:55Z</time>
      </trkpt>
      <trkpt lat="47.21034" lon="6.01259">
        <ele>413.98</ele>
        <time>2013-03-21T08:58:10Z</time>
      </trkpt>
      <trkpt lat="47.21037" lon="6.01264">
        <ele>413.98</ele>
        <time>2013-03-21T08:58:14Z</time>
      </trkpt>
      <trkpt lat="47.21049" lon="6.01285">
        <ele>414.47</ele>
        <time>2013-03-21T08:58:32Z</time>
      </trkpt>
      <trkpt lat="47.21055" lon="6.01299">
        <ele>415.43</ele>
        <time>2013-03-21T08:58:45Z</time>
      </trkpt>
      <trkpt lat="47.21071" lon="6.01318">
        <ele>416.39</ele>
        <time>2013-03-21T08:59:02Z</time>
      </trkpt>
      <trkpt lat="47.21082" lon="6.01334">
        <ele>417.35</ele>
        <time>2013-03-21T08:59:16Z</time>
      </trkpt>
      <trkpt lat="47.21096" lon="6.01348">
        <ele>418.31</ele>
        <time>2013-03-21T08:59:32Z</time>
      </trkpt>
      <trkpt lat="47.21102" lon="6.01351">
        <ele>418.79</ele>
        <time>2013-03-21T08:59:38Z</time>
      </trkpt>
      <trkpt lat="47.21103" lon="6.01353">
        <ele>418.79</ele>
        <time>2013-03-21T08:59:40Z</time>
      </trkpt>
      <trkpt lat="47.21119" lon="6.01364">
        <ele>419.75</ele>
        <time>2013-03-21T08:59:52Z</time>
      </trkpt>
      <trkpt lat="47.21127" lon="6.01366">
        <ele>419.75</ele>
        <time>2013-03-21T08:59:58Z</time>
      </trkpt>
      <trkpt lat="47.21143" lon="6.01379">
        <ele>419.75</ele>
        <time>2013-03-21T09:00:13Z</time>
      </trkpt>
      <trkpt lat="47.21158" lon="6.01394">
        <ele>420.71</ele>
        <time>2013-03-21T09:00:28Z</time>
      </trkpt>
      <trkpt lat="47.21162" lon="6.01399">
        <ele>421.19</ele>
        <time>2013-03-21T09:00:34Z</time>
      </trkpt>
      <trkpt lat="47.21175" lon="6.01415">
        <ele>421.19</ele>
        <time>2013-03-21T09:00:50Z</time>
      </trkpt>
      <trkpt lat="47.21177" lon="6.01417">
        <ele>421.19</ele>
        <time>2013-03-21T09:00:53Z</time>
      </trkpt>
      <trkpt lat="47.21178" lon="6.01419">
        <ele>421.19</ele>
        <time>2013-03-21T09:00:55Z</time>
      </trkpt>
      <trkpt lat="47.21192" lon="6.01437">
        <ele>421.68</ele>
        <time>2013-03-21T09:01:12Z</time>
      </trkpt>
      <trkpt lat="47.21205" lon="6.01454">
        <ele>422.16</ele>
        <time>2013-03-21T09:01:27Z</time>
      </trkpt>
      <trkpt lat="47.21206" lon="6.01454">
        <ele>421.68</ele>
        <time>2013-03-21T09:01:28Z</time>
      </trkpt>
      <trkpt lat="47.21208" lon="6.01459">
        <ele>422.16</ele>
        <time>2013-03-21T09:01:32Z</time>
      </trkpt>
      <trkpt lat="47.21216" lon="6.01476">
        <ele>422.16</ele>
        <time>2013-03-21T09:01:47Z</time>
      </trkpt>
      <trkpt lat="47.21218" lon="6.01478">
        <ele>422.16</ele>
        <time>2013-03-21T09:01:51Z</time>
      </trkpt>
      <trkpt lat="47.2122" lon="6.01482">
        <ele>422.16</ele>
        <time>2013-03-21T09:01:54Z</time>
      </trkpt>
      <trkpt lat="47.2123" lon="6.01505">
        <ele>422.16</ele>
        <time>2013-03-21T09:02:10Z</time>
      </trkpt>
      <trkpt lat="47.21246" lon="6.01527">
        <ele>422.16</ele>
        <time>2013-03-21T09:02:27Z</time>
      </trkpt>
      <trkpt lat="47.21247" lon="6.01529">
        <ele>422.64</ele>
        <time>2013-03-21T09:02:28Z</time>
      </trkpt>
      <trkpt lat="47.21259" lon="6.01547">
        <ele>422.64</ele>
        <time>2013-03-21T09:02:43Z</time>
      </trkpt>
      <trkpt lat="47.21269" lon="6.01568">
        <ele>422.64</ele>
        <time>2013-03-21T09:02:58Z</time>
      </trkpt>
      <trkpt lat="47.21279" lon="6.01591">
        <ele>423.6</ele>
        <time>2013-03-21T09:03:14Z</time>
      </trkpt>
      <trkpt lat="47.2128" lon="6.01593">
        <ele>423.6</ele>
        <time>2013-03-21T09:03:15Z</time>
      </trkpt>
      <trkpt lat="47.21284" lon="6.01602">
        <ele>423.12</ele>
        <time>2013-03-21T09:03:22Z</time>
      </trkpt>
      <trkpt lat="47.21291" lon="6.01616">
        <ele>423.6</ele>
        <time>2013-03-21T09:03:35Z</time>
      </trkpt>
      <trkpt lat="47.21293" lon="6.01619">
        <ele>423.6</ele>
        <time>2013-03-21T09:03:43Z</time>
      </trkpt>
      <trkpt lat="47.21296" lon="6.01624">
        <ele>423.6</ele>
        <time>2013-03-21T09:03:46Z</time>
      </trkpt>
      <trkpt lat="47.21302" lon="6.01628">
        <ele>423.12</ele>
        <time>2013-03-21T09:03:54Z</time>
      </trkpt>
      <trkpt lat="47.21312" lon="6.01654">
        <ele>422.64</ele>
        <time>2013-03-21T09:04:11Z</time>
      </trkpt>
      <trkpt lat="47.21318" lon="6.01681">
        <ele>423.12</ele>
        <time>2013-03-21T09:04:27Z</time>
      </trkpt>
      <trkpt lat="47.21323" lon="6.01704">
        <ele>422.16</ele>
        <time>2013-03-21T09:04:42Z</time>
      </trkpt>
      <trkpt lat="47.21323" lon="6.01715">
        <ele>422.16</ele>
        <time>2013-03-21T09:04:48Z</time>
      </trkpt>
      <trkpt lat="47.21322" lon="6.01735">
        <ele>420.71</ele>
        <time>2013-03-21T09:05:01Z</time>
      </trkpt>
      <trkpt lat="47.21326" lon="6.01756">
        <ele>419.75</ele>
        <time>2013-03-21T09:05:15Z</time>
      </trkpt>
      <trkpt lat="47.21336" lon="6.01774">
        <ele>419.75</ele>
        <time>2013-03-21T09:05:28Z</time>
      </trkpt>
      <trkpt lat="47.21338" lon="6.01778">
        <ele>419.27</ele>
        <time>2013-03-21T09:05:32Z</time>
      </trkpt>
      <trkpt lat="47.21347" lon="6.01798">
        <ele>419.75</ele>
        <time>2013-03-21T09:05:48Z</time>
      </trkpt>
      <trkpt lat="47.21349" lon="6.01819">
        <ele>420.23</ele>
        <time>2013-03-21T09:06:00Z</time>
      </trkpt>
      <trkpt lat="47.21352" lon="6.01839">
        <ele>421.19</ele>
        <time>2013-03-21T09:06:14Z</time>
      </trkpt>
      <trkpt lat="47.21353" lon="6.01853">
        <ele>421.68</ele>
        <time>2013-03-21T09:06:23Z</time>
      </trkpt>
      <trkpt lat="47.21354" lon="6.01861">
        <ele>422.64</ele>
        <time>2013-03-21T09:06:29Z</time>
      </trkpt>
      <trkpt lat="47.21359" lon="6.01871">
        <ele>423.12</ele>
        <time>2013-03-21T09:06:38Z</time>
      </trkpt>
      <trkpt lat="47.21356" lon="6.01891">
        <ele>424.08</ele>
        <time>2013-03-21T09:06:51Z</time>
      </trkpt>
      <trkpt lat="47.21356" lon="6.01891">
        <ele>423.6</ele>
        <time>2013-03-21T09:07:10Z</time>
      </trkpt>
      <trkpt lat="47.21352" lon="6.01901">
        <ele>424.08</ele>
        <time>2013-03-21T09:07:28Z</time>
      </trkpt>
      <trkpt lat="47.2135" lon="6.0191">
        <ele>425.04</ele>
        <time>2013-03-21T09:07:37Z</time>
      </trkpt>
      <trkpt lat="47.21343" lon="6.01928">
        <ele>425.52</ele>
        <time>2013-03-21T09:07:52Z</time>
      </trkpt>
      <trkpt lat="47.21339" lon="6.01945">
        <ele>426</ele>
        <time>2013-03-21T09:08:05Z</time>
      </trkpt>
      <trkpt lat="47.21335" lon="6.01962">
        <ele>427.44</ele>
        <time>2013-03-21T09:08:18Z</time>
      </trkpt>
      <trkpt lat="47.21333" lon="6.01971">
        <ele>427.92</ele>
        <time>2013-03-21T09:08:24Z</time>
      </trkpt>
      <trkpt lat="47.21331" lon="6.01988">
        <ele>428.4</ele>
        <time>2013-03-21T09:08:40Z</time>
      </trkpt>
      <trkpt lat="47.21327" lon="6.02007">
        <ele>428.4</ele>
        <time>2013-03-21T09:08:52Z</time>
      </trkpt>
      <trkpt lat="47.21323" lon="6.02029">
        <ele>429.37</ele>
        <time>2013-03-21T09:09:07Z</time>
      </trkpt>
      <trkpt lat="47.2132" lon="6.02041">
        <ele>429.85</ele>
        <time>2013-03-21T09:09:23Z</time>
      </trkpt>
      <trkpt lat="47.2132" lon="6.02044">
        <ele>429.85</ele>
        <time>2013-03-21T09:09:37Z</time>
      </trkpt>
      <trkpt lat="47.21318" lon="6.02048">
        <ele>429.85</ele>
        <time>2013-03-21T09:09:39Z</time>
      </trkpt>
      <trkpt lat="47.21314" lon="6.02077">
        <ele>431.77</ele>
        <time>2013-03-21T09:09:55Z</time>
      </trkpt>
      <trkpt lat="47.21306" lon="6.021">
        <ele>434.17</ele>
        <time>2013-03-21T09:10:11Z</time>
      </trkpt>
      <trkpt lat="47.21306" lon="6.02124">
        <ele>435.61</ele>
        <time>2013-03-21T09:10:26Z</time>
      </trkpt>
      <trkpt lat="47.21305" lon="6.0213">
        <ele>436.1</ele>
        <time>2013-03-21T09:10:32Z</time>
      </trkpt>
      <trkpt lat="47.21306" lon="6.02131">
        <ele>436.1</ele>
        <time>2013-03-21T09:10:34Z</time>
      </trkpt>
      <trkpt lat="47.21305" lon="6.0214">
        <ele>437.06</ele>
        <time>2013-03-21T09:10:51Z</time>
      </trkpt>
      <trkpt lat="47.21305" lon="6.02144">
        <ele>437.54</ele>
        <time>2013-03-21T09:11:14Z</time>
      </trkpt>
      <trkpt lat="47.21306" lon="6.02147">
        <ele>437.54</ele>
        <time>2013-03-21T09:11:17Z</time>
      </trkpt>
      <trkpt lat="47.21306" lon="6.02151">
        <ele>438.5</ele>
        <time>2013-03-21T09:11:20Z</time>
      </trkpt>
      <trkpt lat="47.21311" lon="6.0217">
        <ele>439.46</ele>
        <time>2013-03-21T09:11:36Z</time>
      </trkpt>
      <trkpt lat="47.21314" lon="6.02181">
        <ele>440.42</ele>
        <time>2013-03-21T09:11:43Z</time>
      </trkpt>
      <trkpt lat="47.21312" lon="6.02203">
        <ele>441.86</ele>
        <time>2013-03-21T09:11:56Z</time>
      </trkpt>
      <trkpt lat="47.21313" lon="6.02219">
        <ele>443.31</ele>
        <time>2013-03-21T09:12:11Z</time>
      </trkpt>
      <trkpt lat="47.21313" lon="6.02228">
        <ele>443.79</ele>
        <time>2013-03-21T09:12:26Z</time>
      </trkpt>
      <trkpt lat="47.21313" lon="6.02237">
        <ele>444.75</ele>
        <time>2013-03-21T09:12:41Z</time>
      </trkpt>
      <trkpt lat="47.21307" lon="6.02245">
        <ele>445.71</ele>
        <time>2013-03-21T09:12:56Z</time>
      </trkpt>
      <trkpt lat="47.21298" lon="6.02247">
        <ele>446.67</ele>
        <time>2013-03-21T09:13:09Z</time>
      </trkpt>
      <trkpt lat="47.21291" lon="6.02248">
        <ele>447.15</ele>
        <time>2013-03-21T09:13:17Z</time>
      </trkpt>
      <trkpt lat="47.21288" lon="6.02249">
        <ele>446.67</ele>
        <time>2013-03-21T09:13:20Z</time>
      </trkpt>
      <trkpt lat="47.21274" lon="6.02252">
        <ele>447.63</ele>
        <time>2013-03-21T09:13:37Z</time>
      </trkpt>
      <trkpt lat="47.21269" lon="6.02259">
        <ele>448.11</ele>
        <time>2013-03-21T09:13:45Z</time>
      </trkpt>
      <trkpt lat="47.21268" lon="6.02271">
        <ele>449.55</ele>
        <time>2013-03-21T09:14:01Z</time>
      </trkpt>
      <trkpt lat="47.21268" lon="6.02279">
        <ele>450.52</ele>
        <time>2013-03-21T09:14:18Z</time>
      </trkpt>
      <trkpt lat="47.2127" lon="6.02284">
        <ele>452.92</ele>
        <time>2013-03-21T09:14:34Z</time>
      </trkpt>
      <trkpt lat="47.21277" lon="6.02286">
        <ele>453.4</ele>
        <time>2013-03-21T09:14:40Z</time>
      </trkpt>
      <trkpt lat="47.21282" lon="6.02292">
        <ele>456.28</ele>
        <time>2013-03-21T09:14:56Z</time>
      </trkpt>
      <trkpt lat="47.21288" lon="6.02298">
        <ele>459.17</ele>
        <time>2013-03-21T09:15:15Z</time>
      </trkpt>
      <trkpt lat="47.2129" lon="6.023">
        <ele>462.05</ele>
        <time>2013-03-21T09:15:33Z</time>
      </trkpt>
      <trkpt lat="47.21291" lon="6.02305">
        <ele>463.01</ele>
        <time>2013-03-21T09:15:44Z</time>
      </trkpt>
      <trkpt lat="47.21297" lon="6.02314">
        <ele>465.42</ele>
        <time>2013-03-21T09:16:00Z</time>
      </trkpt>
      <trkpt lat="47.21304" lon="6.02319">
        <ele>467.34</ele>
        <time>2013-03-21T09:16:15Z</time>
      </trkpt>
      <trkpt lat="47.21309" lon="6.02327">
        <ele>469.26</ele>
        <time>2013-03-21T09:16:31Z</time>
      </trkpt>
      <trkpt lat="47.21317" lon="6.02335">
        <ele>471.18</ele>
        <time>2013-03-21T09:16:46Z</time>
      </trkpt>
      <trkpt lat="47.21323" lon="6.02349">
        <ele>473.59</ele>
        <time>2013-03-21T09:17:03Z</time>
      </trkpt>
      <trkpt lat="47.21328" lon="6.0236">
        <ele>475.51</ele>
        <time>2013-03-21T09:17:18Z</time>
      </trkpt>
      <trkpt lat="47.21334" lon="6.02376">
        <ele>477.43</ele>
        <time>2013-03-21T09:17:34Z</time>
      </trkpt>
      <trkpt lat="47.21334" lon="6.02376">
        <ele>477.43</ele>
        <time>2013-03-21T09:18:01Z</time>
      </trkpt>
      <trkpt lat="47.21334" lon="6.02376">
        <ele>475.99</ele>
        <time>2013-03-21T09:18:20Z</time>
      </trkpt>
      <trkpt lat="47.21334" lon="6.02376">
        <ele>478.39</ele>
        <time>2013-03-21T09:18:22Z</time>
      </trkpt>
      <trkpt lat="47.21334" lon="6.02376">
        <ele>478.39</ele>
        <time>2013-03-21T09:18:49Z</time>
      </trkpt>
      <trkpt lat="47.21335" lon="6.02377">
        <ele>477.43</ele>
        <time>2013-03-21T09:19:17Z</time>
      </trkpt>
      <trkpt lat="47.21336" lon="6.02379">
        <ele>477.91</ele>
        <time>2013-03-21T09:19:35Z</time>
      </trkpt>
      <trkpt lat="47.21339" lon="6.02386">
        <ele>477.91</ele>
        <time>2013-03-21T09:19:52Z</time>
      </trkpt>
      <trkpt lat="47.21343" lon="6.02407">
        <ele>479.35</ele>
        <time>2013-03-21T09:20:12Z</time>
      </trkpt>
      <trkpt lat="47.21346" lon="6.02421">
        <ele>479.84</ele>
        <time>2013-03-21T09:20:24Z</time>
      </trkpt>
      <trkpt lat="47.21347" lon="6.02437">
        <ele>480.8</ele>
        <time>2013-03-21T09:20:39Z</time>
      </trkpt>
      <trkpt lat="47.21349" lon="6.0244">
        <ele>480.8</ele>
        <time>2013-03-21T09:20:41Z</time>
      </trkpt>
      <trkpt lat="47.21358" lon="6.02463">
        <ele>480.8</ele>
        <time>2013-03-21T09:20:59Z</time>
      </trkpt>
      <trkpt lat="47.21362" lon="6.02473">
        <ele>480.32</ele>
        <time>2013-03-21T09:21:07Z</time>
      </trkpt>
      <trkpt lat="47.2136" lon="6.02496">
        <ele>479.35</ele>
        <time>2013-03-21T09:21:23Z</time>
      </trkpt>
      <trkpt lat="47.21362" lon="6.02502">
        <ele>478.87</ele>
        <time>2013-03-21T09:21:28Z</time>
      </trkpt>
      <trkpt lat="47.21363" lon="6.02506">
        <ele>478.87</ele>
        <time>2013-03-21T09:21:31Z</time>
      </trkpt>
      <trkpt lat="47.21367" lon="6.02527">
        <ele>478.87</ele>
        <time>2013-03-21T09:21:48Z</time>
      </trkpt>
      <trkpt lat="47.2137" lon="6.02544">
        <ele>478.87</ele>
        <time>2013-03-21T09:22:01Z</time>
      </trkpt>
      <trkpt lat="47.21374" lon="6.02563">
        <ele>478.39</ele>
        <time>2013-03-21T09:22:17Z</time>
      </trkpt>
      <trkpt lat="47.21375" lon="6.02583">
        <ele>477.43</ele>
        <time>2013-03-21T09:22:32Z</time>
      </trkpt>
      <trkpt lat="47.21379" lon="6.02606">
        <ele>476.47</ele>
        <time>2013-03-21T09:22:48Z</time>
      </trkpt>
      <trkpt lat="47.21381" lon="6.02612">
        <ele>475.99</ele>
        <time>2013-03-21T09:22:52Z</time>
      </trkpt>
      <trkpt lat="47.21384" lon="6.02634">
        <ele>476.47</ele>
        <time>2013-03-21T09:23:07Z</time>
      </trkpt>
      <trkpt lat="47.21386" lon="6.02639">
        <ele>476.47</ele>
        <time>2013-03-21T09:23:12Z</time>
      </trkpt>
      <trkpt lat="47.214" lon="6.02644">
        <ele>475.03</ele>
        <time>2013-03-21T09:23:28Z</time>
      </trkpt>
      <trkpt lat="47.21411" lon="6.02647">
        <ele>473.59</ele>
        <time>2013-03-21T09:23:41Z</time>
      </trkpt>
      <trkpt lat="47.21416" lon="6.02655">
        <ele>472.63</ele>
        <time>2013-03-21T09:23:56Z</time>
      </trkpt>
      <trkpt lat="47.21418" lon="6.02657">
        <ele>472.14</ele>
        <time>2013-03-21T09:23:59Z</time>
      </trkpt>
      <trkpt lat="47.21421" lon="6.02673">
        <ele>471.66</ele>
        <time>2013-03-21T09:24:14Z</time>
      </trkpt>
      <trkpt lat="47.2142" lon="6.02677">
        <ele>471.66</ele>
        <time>2013-03-21T09:24:34Z</time>
      </trkpt>
      <trkpt lat="47.2142" lon="6.02684">
        <ele>472.63</ele>
        <time>2013-03-21T09:24:39Z</time>
      </trkpt>
      <trkpt lat="47.21423" lon="6.02701">
        <ele>473.59</ele>
        <time>2013-03-21T09:24:53Z</time>
      </trkpt>
      <trkpt lat="47.21426" lon="6.02717">
        <ele>474.55</ele>
        <time>2013-03-21T09:25:07Z</time>
      </trkpt>
      <trkpt lat="47.21432" lon="6.02731">
        <ele>474.07</ele>
        <time>2013-03-21T09:25:16Z</time>
      </trkpt>
      <trkpt lat="47.21442" lon="6.0275">
        <ele>474.55</ele>
        <time>2013-03-21T09:25:32Z</time>
      </trkpt>
      <trkpt lat="47.21448" lon="6.02761">
        <ele>474.07</ele>
        <time>2013-03-21T09:25:46Z</time>
      </trkpt>
      <trkpt lat="47.21457" lon="6.0278">
        <ele>475.51</ele>
        <time>2013-03-21T09:26:05Z</time>
      </trkpt>
      <trkpt lat="47.21466" lon="6.02798">
        <ele>476.47</ele>
        <time>2013-03-21T09:26:23Z</time>
      </trkpt>
      <trkpt lat="47.21469" lon="6.02815">
        <ele>478.39</ele>
        <time>2013-03-21T09:26:39Z</time>
      </trkpt>
      <trkpt lat="47.2147" lon="6.02821">
        <ele>479.35</ele>
        <time>2013-03-21T09:26:44Z</time>
      </trkpt>
      <trkpt lat="47.21478" lon="6.0284">
        <ele>480.8</ele>
        <time>2013-03-21T09:27:01Z</time>
      </trkpt>
      <trkpt lat="47.21484" lon="6.02857">
        <ele>481.28</ele>
        <time>2013-03-21T09:27:14Z</time>
      </trkpt>
      <trkpt lat="47.21491" lon="6.0288">
        <ele>481.76</ele>
        <time>2013-03-21T09:27:31Z</time>
      </trkpt>
      <trkpt lat="47.21492" lon="6.02883">
        <ele>481.28</ele>
        <time>2013-03-21T09:27:34Z</time>
      </trkpt>
      <trkpt lat="47.21497" lon="6.02888">
        <ele>481.76</ele>
        <time>2013-03-21T09:27:39Z</time>
      </trkpt>
      <trkpt lat="47.21506" lon="6.02898">
        <ele>479.84</ele>
        <time>2013-03-21T09:27:53Z</time>
      </trkpt>
      <trkpt lat="47.21508" lon="6.02908">
        <ele>479.84</ele>
        <time>2013-03-21T09:28:03Z</time>
      </trkpt>
      <trkpt lat="47.21509" lon="6.02921">
        <ele>479.35</ele>
        <time>2013-03-21T09:28:12Z</time>
      </trkpt>
      <trkpt lat="47.21519" lon="6.02937">
        <ele>478.39</ele>
        <time>2013-03-21T09:28:24Z</time>
      </trkpt>
      <trkpt lat="47.2152" lon="6.0294">
        <ele>478.87</ele>
        <time>2013-03-21T09:28:41Z</time>
      </trkpt>
      <trkpt lat="47.2152" lon="6.02949">
        <ele>478.39</ele>
        <time>2013-03-21T09:28:59Z</time>
      </trkpt>
      <trkpt lat="47.21522" lon="6.02959">
        <ele>477.91</ele>
        <time>2013-03-21T09:29:09Z</time>
      </trkpt>
      <trkpt lat="47.21526" lon="6.02978">
        <ele>476.47</ele>
        <time>2013-03-21T09:29:26Z</time>
      </trkpt>
      <trkpt lat="47.21529" lon="6.02991">
        <ele>475.51</ele>
        <time>2013-03-21T09:29:37Z</time>
      </trkpt>
      <trkpt lat="47.21525" lon="6.03004">
        <ele>476.95</ele>
        <time>2013-03-21T09:29:52Z</time>
      </trkpt>
      <trkpt lat="47.21518" lon="6.03019">
        <ele>476.95</ele>
        <time>2013-03-21T09:30:04Z</time>
      </trkpt>
      <trkpt lat="47.21509" lon="6.03036">
        <ele>478.87</ele>
        <time>2013-03-21T09:30:19Z</time>
      </trkpt>
      <trkpt lat="47.21508" lon="6.03041">
        <ele>478.87</ele>
        <time>2013-03-21T09:30:23Z</time>
      </trkpt>
      <trkpt lat="47.21509" lon="6.0306">
        <ele>480.32</ele>
        <time>2013-03-21T09:30:39Z</time>
      </trkpt>
      <trkpt lat="47.21506" lon="6.03063">
        <ele>482.24</ele>
        <time>2013-03-21T09:30:54Z</time>
      </trkpt>
      <trkpt lat="47.21499" lon="6.03065">
        <ele>485.12</ele>
        <time>2013-03-21T09:31:11Z</time>
      </trkpt>
      <trkpt lat="47.21499" lon="6.03065">
        <ele>481.76</ele>
        <time>2013-03-21T09:31:30Z</time>
      </trkpt>
      <trkpt lat="47.21499" lon="6.03065">
        <ele>482.24</ele>
        <time>2013-03-21T09:31:31Z</time>
      </trkpt>
      <trkpt lat="47.21499" lon="6.03065">
        <ele>486.08</ele>
        <time>2013-03-21T09:31:35Z</time>
      </trkpt>
      <trkpt lat="47.21499" lon="6.03065">
        <ele>485.12</ele>
        <time>2013-03-21T09:31:36Z</time>
      </trkpt>
      <trkpt lat="47.21499" lon="6.03065">
        <ele>485.6</ele>
        <time>2013-03-21T09:31:47Z</time>
      </trkpt>
      <trkpt lat="47.21499" lon="6.03065">
        <ele>485.6</ele>
        <time>2013-03-21T09:32:09Z</time>
      </trkpt>
      <trkpt lat="47.21499" lon="6.03066">
        <ele>485.12</ele>
        <time>2013-03-21T09:32:31Z</time>
      </trkpt>
      <trkpt lat="47.21499" lon="6.03066">
        <ele>485.12</ele>
        <time>2013-03-21T09:32:54Z</time>
      </trkpt>
      <trkpt lat="47.21499" lon="6.03066">
        <ele>489.93</ele>
        <time>2013-03-21T09:33:07Z</time>
      </trkpt>
      <trkpt lat="47.21499" lon="6.03066">
        <ele>486.08</ele>
        <time>2013-03-21T09:33:08Z</time>
      </trkpt>
      <trkpt lat="47.21499" lon="6.03066">
        <ele>489.93</ele>
        <time>2013-03-21T09:33:16Z</time>
      </trkpt>
      <trkpt lat="47.21499" lon="6.03066">
        <ele>484.16</ele>
        <time>2013-03-21T09:33:17Z</time>
      </trkpt>
      <trkpt lat="47.21499" lon="6.03066">
        <ele>486.08</ele>
        <time>2013-03-21T09:33:18Z</time>
      </trkpt>
      <trkpt lat="47.21499" lon="6.03066">
        <ele>480.8</ele>
        <time>2013-03-21T09:33:21Z</time>
      </trkpt>
      <trkpt lat="47.21499" lon="6.03066">
        <ele>486.08</ele>
        <time>2013-03-21T09:33:22Z</time>
      </trkpt>
      <trkpt lat="47.21499" lon="6.03066">
        <ele>483.2</ele>
        <time>2013-03-21T09:33:53Z</time>
      </trkpt>
      <trkpt lat="47.21499" lon="6.03066">
        <ele>485.6</ele>
        <time>2013-03-21T09:34:02Z</time>
      </trkpt>
      <trkpt lat="47.21499" lon="6.03066">
        <ele>485.6</ele>
        <time>2013-03-21T09:34:07Z</time>
      </trkpt>
      <trkpt lat="47.21499" lon="6.03067">
        <ele>485.6</ele>
        <time>2013-03-21T09:34:33Z</time>
      </trkpt>
      <trkpt lat="47.215" lon="6.03076">
        <ele>485.12</ele>
        <time>2013-03-21T09:34:48Z</time>
      </trkpt>
      <trkpt lat="47.21502" lon="6.03092">
        <ele>485.12</ele>
        <time>2013-03-21T09:34:57Z</time>
      </trkpt>
      <trkpt lat="47.21503" lon="6.0312">
        <ele>485.12</ele>
        <time>2013-03-21T09:35:11Z</time>
      </trkpt>
      <trkpt lat="47.21508" lon="6.03147">
        <ele>481.28</ele>
        <time>2013-03-21T09:35:25Z</time>
      </trkpt>
      <trkpt lat="47.21508" lon="6.03149">
        <ele>485.6</ele>
        <time>2013-03-21T09:35:26Z</time>
      </trkpt>
      <trkpt lat="47.21512" lon="6.03164">
        <ele>484.64</ele>
        <time>2013-03-21T09:35:37Z</time>
      </trkpt>
      <trkpt lat="47.21519" lon="6.03197">
        <ele>484.64</ele>
        <time>2013-03-21T09:35:55Z</time>
      </trkpt>
      <trkpt lat="47.2152" lon="6.03206">
        <ele>484.64</ele>
        <time>2013-03-21T09:36:02Z</time>
      </trkpt>
      <trkpt lat="47.21519" lon="6.03222">
        <ele>484.64</ele>
        <time>2013-03-21T09:36:11Z</time>
      </trkpt>
      <trkpt lat="47.21516" lon="6.03233">
        <ele>485.6</ele>
        <time>2013-03-21T09:36:18Z</time>
      </trkpt>
      <trkpt lat="47.21514" lon="6.03243">
        <ele>485.6</ele>
        <time>2013-03-21T09:36:34Z</time>
      </trkpt>
      <trkpt lat="47.2152" lon="6.03254">
        <ele>485.12</ele>
        <time>2013-03-21T09:37:09Z</time>
      </trkpt>
      <trkpt lat="47.21522" lon="6.03259">
        <ele>485.12</ele>
        <time>2013-03-21T09:37:12Z</time>
      </trkpt>
      <trkpt lat="47.2153" lon="6.03293">
        <ele>486.08</ele>
        <time>2013-03-21T09:37:30Z</time>
      </trkpt>
      <trkpt lat="47.21526" lon="6.03303">
        <ele>489.93</ele>
        <time>2013-03-21T09:37:43Z</time>
      </trkpt>
      <trkpt lat="47.21523" lon="6.03317">
        <ele>491.85</ele>
        <time>2013-03-21T09:37:58Z</time>
      </trkpt>
      <trkpt lat="47.21519" lon="6.03336">
        <ele>494.74</ele>
        <time>2013-03-21T09:38:14Z</time>
      </trkpt>
      <trkpt lat="47.21522" lon="6.03348">
        <ele>494.74</ele>
        <time>2013-03-21T09:38:23Z</time>
      </trkpt>
      <trkpt lat="47.21529" lon="6.03372">
        <ele>494.26</ele>
        <time>2013-03-21T09:38:39Z</time>
      </trkpt>
      <trkpt lat="47.21532" lon="6.03394">
        <ele>492.81</ele>
        <time>2013-03-21T09:38:56Z</time>
      </trkpt>
      <trkpt lat="47.21534" lon="6.034">
        <ele>491.37</ele>
        <time>2013-03-21T09:39:03Z</time>
      </trkpt>
      <trkpt lat="47.21538" lon="6.03423">
        <ele>490.89</ele>
        <time>2013-03-21T09:39:14Z</time>
      </trkpt>
      <trkpt lat="47.21545" lon="6.03439">
        <ele>489.45</ele>
        <time>2013-03-21T09:39:22Z</time>
      </trkpt>
      <trkpt lat="47.21546" lon="6.03448">
        <ele>489.45</ele>
        <time>2013-03-21T09:39:26Z</time>
      </trkpt>
      <trkpt lat="47.21552" lon="6.0348">
        <ele>486.56</ele>
        <time>2013-03-21T09:39:42Z</time>
      </trkpt>
      <trkpt lat="47.21558" lon="6.03503">
        <ele>485.6</ele>
        <time>2013-03-21T09:39:56Z</time>
      </trkpt>
      <trkpt lat="47.21562" lon="6.03534">
        <ele>483.68</ele>
        <time>2013-03-21T09:40:13Z</time>
      </trkpt>
      <trkpt lat="47.21569" lon="6.03559">
        <ele>481.76</ele>
        <time>2013-03-21T09:40:28Z</time>
      </trkpt>
      <trkpt lat="47.2157" lon="6.03567">
        <ele>481.76</ele>
        <time>2013-03-21T09:40:32Z</time>
      </trkpt>
      <trkpt lat="47.21571" lon="6.03573">
        <ele>481.28</ele>
        <time>2013-03-21T09:40:35Z</time>
      </trkpt>
      <trkpt lat="47.21576" lon="6.03605">
        <ele>479.84</ele>
        <time>2013-03-21T09:40:53Z</time>
      </trkpt>
      <trkpt lat="47.21581" lon="6.0363">
        <ele>478.39</ele>
        <time>2013-03-21T09:41:09Z</time>
      </trkpt>
      <trkpt lat="47.21582" lon="6.03632">
        <ele>478.39</ele>
        <time>2013-03-21T09:41:11Z</time>
      </trkpt>
      <trkpt lat="47.21588" lon="6.03658">
        <ele>477.91</ele>
        <time>2013-03-21T09:41:27Z</time>
      </trkpt>
      <trkpt lat="47.21588" lon="6.0366">
        <ele>477.43</ele>
        <time>2013-03-21T09:41:28Z</time>
      </trkpt>
      <trkpt lat="47.21593" lon="6.03684">
        <ele>477.43</ele>
        <time>2013-03-21T09:41:43Z</time>
      </trkpt>
      <trkpt lat="47.21597" lon="6.03703">
        <ele>477.43</ele>
        <time>2013-03-21T09:41:55Z</time>
      </trkpt>
      <trkpt lat="47.21602" lon="6.03728">
        <ele>476.95</ele>
        <time>2013-03-21T09:42:09Z</time>
      </trkpt>
      <trkpt lat="47.21606" lon="6.03753">
        <ele>475.99</ele>
        <time>2013-03-21T09:42:25Z</time>
      </trkpt>
      <trkpt lat="47.21608" lon="6.03773">
        <ele>475.03</ele>
        <time>2013-03-21T09:42:40Z</time>
      </trkpt>
      <trkpt lat="47.21609" lon="6.03779">
        <ele>474.55</ele>
        <time>2013-03-21T09:42:44Z</time>
      </trkpt>
      <trkpt lat="47.21617" lon="6.038">
        <ele>472.63</ele>
        <time>2013-03-21T09:43:00Z</time>
      </trkpt>
      <trkpt lat="47.21618" lon="6.03805">
        <ele>472.14</ele>
        <time>2013-03-21T09:43:04Z</time>
      </trkpt>
      <trkpt lat="47.21627" lon="6.03827">
        <ele>470.22</ele>
        <time>2013-03-21T09:43:22Z</time>
      </trkpt>
      <trkpt lat="47.21633" lon="6.03849">
        <ele>468.3</ele>
        <time>2013-03-21T09:43:38Z</time>
      </trkpt>
      <trkpt lat="47.21633" lon="6.03856">
        <ele>467.82</ele>
        <time>2013-03-21T09:43:42Z</time>
      </trkpt>
      <trkpt lat="47.21635" lon="6.03878">
        <ele>466.86</ele>
        <time>2013-03-21T09:43:57Z</time>
      </trkpt>
      <trkpt lat="47.21635" lon="6.03896">
        <ele>466.38</ele>
        <time>2013-03-21T09:44:07Z</time>
      </trkpt>
      <trkpt lat="47.2164" lon="6.0392">
        <ele>464.45</ele>
        <time>2013-03-21T09:44:23Z</time>
      </trkpt>
      <trkpt lat="47.21645" lon="6.0394">
        <ele>463.49</ele>
        <time>2013-03-21T09:44:37Z</time>
      </trkpt>
      <trkpt lat="47.21651" lon="6.03954">
        <ele>462.05</ele>
        <time>2013-03-21T09:44:50Z</time>
      </trkpt>
      <trkpt lat="47.21663" lon="6.03978">
        <ele>461.57</ele>
        <time>2013-03-21T09:45:06Z</time>
      </trkpt>
      <trkpt lat="47.21673" lon="6.04">
        <ele>461.57</ele>
        <time>2013-03-21T09:45:23Z</time>
      </trkpt>
      <trkpt lat="47.21674" lon="6.04016">
        <ele>461.57</ele>
        <time>2013-03-21T09:45:32Z</time>
      </trkpt>
      <trkpt lat="47.21676" lon="6.0404">
        <ele>461.57</ele>
        <time>2013-03-21T09:45:49Z</time>
      </trkpt>
      <trkpt lat="47.21678" lon="6.04047">
        <ele>462.05</ele>
        <time>2013-03-21T09:46:03Z</time>
      </trkpt>
      <trkpt lat="47.21676" lon="6.04065">
        <ele>463.01</ele>
        <time>2013-03-21T09:46:17Z</time>
      </trkpt>
      <trkpt lat="47.21676" lon="6.04065">
        <ele>462.53</ele>
        <time>2013-03-21T09:46:45Z</time>
      </trkpt>
      <trkpt lat="47.21675" lon="6.04066">
        <ele>462.05</ele>
        <time>2013-03-21T09:47:05Z</time>
      </trkpt>
      <trkpt lat="47.21679" lon="6.04072">
        <ele>462.05</ele>
        <time>2013-03-21T09:47:31Z</time>
      </trkpt>
      <trkpt lat="47.21687" lon="6.04099">
        <ele>462.53</ele>
        <time>2013-03-21T09:47:48Z</time>
      </trkpt>
      <trkpt lat="47.21688" lon="6.04109">
        <ele>463.01</ele>
        <time>2013-03-21T09:47:54Z</time>
      </trkpt>
      <trkpt lat="47.21697" lon="6.04136">
        <ele>461.57</ele>
        <time>2013-03-21T09:48:12Z</time>
      </trkpt>
      <trkpt lat="47.21703" lon="6.04155">
        <ele>461.09</ele>
        <time>2013-03-21T09:48:26Z</time>
      </trkpt>
      <trkpt lat="47.21708" lon="6.04174">
        <ele>460.13</ele>
        <time>2013-03-21T09:48:41Z</time>
      </trkpt>
      <trkpt lat="47.21714" lon="6.04189">
        <ele>459.17</ele>
        <time>2013-03-21T09:48:51Z</time>
      </trkpt>
      <trkpt lat="47.21717" lon="6.04207">
        <ele>459.17</ele>
        <time>2013-03-21T09:49:02Z</time>
      </trkpt>
      <trkpt lat="47.21719" lon="6.04213">
        <ele>458.69</ele>
        <time>2013-03-21T09:49:05Z</time>
      </trkpt>
      <trkpt lat="47.21721" lon="6.04224">
        <ele>458.69</ele>
        <time>2013-03-21T09:49:12Z</time>
      </trkpt>
      <trkpt lat="47.21724" lon="6.04242">
        <ele>457.72</ele>
        <time>2013-03-21T09:49:23Z</time>
      </trkpt>
      <trkpt lat="47.2173" lon="6.04278">
        <ele>457.24</ele>
        <time>2013-03-21T09:49:40Z</time>
      </trkpt>
      <trkpt lat="47.21732" lon="6.04308">
        <ele>457.24</ele>
        <time>2013-03-21T09:49:56Z</time>
      </trkpt>
      <trkpt lat="47.21738" lon="6.0433">
        <ele>457.72</ele>
        <time>2013-03-21T09:50:12Z</time>
      </trkpt>
      <trkpt lat="47.21742" lon="6.04356">
        <ele>458.69</ele>
        <time>2013-03-21T09:50:28Z</time>
      </trkpt>
      <trkpt lat="47.21747" lon="6.04379">
        <ele>459.65</ele>
        <time>2013-03-21T09:50:43Z</time>
      </trkpt>
      <trkpt lat="47.21748" lon="6.04392">
        <ele>459.65</ele>
        <time>2013-03-21T09:50:50Z</time>
      </trkpt>
      <trkpt lat="47.21752" lon="6.0441">
        <ele>461.09</ele>
        <time>2013-03-21T09:51:04Z</time>
      </trkpt>
      <trkpt lat="47.21761" lon="6.04435">
        <ele>461.09</ele>
        <time>2013-03-21T09:51:24Z</time>
      </trkpt>
      <trkpt lat="47.21772" lon="6.04461">
        <ele>460.61</ele>
        <time>2013-03-21T09:51:42Z</time>
      </trkpt>
      <trkpt lat="47.21779" lon="6.04475">
        <ele>459.17</ele>
        <time>2013-03-21T09:51:58Z</time>
      </trkpt>
      <trkpt lat="47.21779" lon="6.04475">
        <ele>457.24</ele>
        <time>2013-03-21T09:52:13Z</time>
      </trkpt>
      <trkpt lat="47.21779" lon="6.04475">
        <ele>454.36</ele>
        <time>2013-03-21T09:52:27Z</time>
      </trkpt>
      <trkpt lat="47.21781" lon="6.04483">
        <ele>453.4</ele>
        <time>2013-03-21T09:52:32Z</time>
      </trkpt>
      <trkpt lat="47.21789" lon="6.04529">
        <ele>452.44</ele>
        <time>2013-03-21T09:52:49Z</time>
      </trkpt>
      <trkpt lat="47.21801" lon="6.04559">
        <ele>451.96</ele>
        <time>2013-03-21T09:53:02Z</time>
      </trkpt>
      <trkpt lat="47.21808" lon="6.04584">
        <ele>451.96</ele>
        <time>2013-03-21T09:53:16Z</time>
      </trkpt>
      <trkpt lat="47.21808" lon="6.04584">
        <ele>451.96</ele>
        <time>2013-03-21T09:53:34Z</time>
      </trkpt>
      <trkpt lat="47.21808" lon="6.04585">
        <ele>451.96</ele>
        <time>2013-03-21T09:53:56Z</time>
      </trkpt>
      <trkpt lat="47.21808" lon="6.04585">
        <ele>451.96</ele>
        <time>2013-03-21T09:54:18Z</time>
      </trkpt>
      <trkpt lat="47.21808" lon="6.04585">
        <ele>451.48</ele>
        <time>2013-03-21T09:54:35Z</time>
      </trkpt>
      <trkpt lat="47.21807" lon="6.04586">
        <ele>451.48</ele>
        <time>2013-03-21T09:54:59Z</time>
      </trkpt>
      <trkpt lat="47.21807" lon="6.04587">
        <ele>451.48</ele>
        <time>2013-03-21T09:55:24Z</time>
      </trkpt>
      <trkpt lat="47.21807" lon="6.04587">
        <ele>451</ele>
        <time>2013-03-21T09:55:49Z</time>
      </trkpt>
      <trkpt lat="47.21807" lon="6.04587">
        <ele>451.48</ele>
        <time>2013-03-21T09:56:13Z</time>
      </trkpt>
      <trkpt lat="47.21807" lon="6.04587">
        <ele>451</ele>
        <time>2013-03-21T09:56:40Z</time>
      </trkpt>
      <trkpt lat="47.21807" lon="6.04605">
        <ele>449.55</ele>
        <time>2013-03-21T09:57:01Z</time>
      </trkpt>
      <trkpt lat="47.2181" lon="6.04615">
        <ele>449.07</ele>
        <time>2013-03-21T09:57:07Z</time>
      </trkpt>
      <trkpt lat="47.21816" lon="6.04613">
        <ele>447.15</ele>
        <time>2013-03-21T09:57:22Z</time>
      </trkpt>
      <trkpt lat="47.21818" lon="6.0461">
        <ele>448.11</ele>
        <time>2013-03-21T09:57:38Z</time>
      </trkpt>
      <trkpt lat="47.21818" lon="6.0461">
        <ele>448.11</ele>
        <time>2013-03-21T09:58:01Z</time>
      </trkpt>
      <trkpt lat="47.21817" lon="6.04609">
        <ele>448.59</ele>
        <time>2013-03-21T09:58:24Z</time>
      </trkpt>
      <trkpt lat="47.21817" lon="6.04608">
        <ele>448.11</ele>
        <time>2013-03-21T09:58:30Z</time>
      </trkpt>
      <trkpt lat="47.21817" lon="6.04626">
        <ele>448.11</ele>
        <time>2013-03-21T09:58:46Z</time>
      </trkpt>
      <trkpt lat="47.21817" lon="6.04631">
        <ele>448.59</ele>
        <time>2013-03-21T09:58:54Z</time>
      </trkpt>
      <trkpt lat="47.21818" lon="6.04656">
        <ele>448.11</ele>
        <time>2013-03-21T09:59:09Z</time>
      </trkpt>
      <trkpt lat="47.21824" lon="6.04668">
        <ele>449.07</ele>
        <time>2013-03-21T09:59:20Z</time>
      </trkpt>
      <trkpt lat="47.21839" lon="6.04672">
        <ele>449.07</ele>
        <time>2013-03-21T09:59:33Z</time>
      </trkpt>
      <trkpt lat="47.21842" lon="6.04665">
        <ele>449.55</ele>
        <time>2013-03-21T09:59:52Z</time>
      </trkpt>
      <trkpt lat="47.21842" lon="6.04667">
        <ele>448.59</ele>
        <time>2013-03-21T10:00:08Z</time>
      </trkpt>
      <trkpt lat="47.21851" lon="6.04691">
        <ele>449.07</ele>
        <time>2013-03-21T10:00:25Z</time>
      </trkpt>
      <trkpt lat="47.21858" lon="6.04708">
        <ele>450.03</ele>
        <time>2013-03-21T10:00:35Z</time>
      </trkpt>
      <trkpt lat="47.21861" lon="6.04721">
        <ele>451</ele>
        <time>2013-03-21T10:00:42Z</time>
      </trkpt>
      <trkpt lat="47.21874" lon="6.04752">
        <ele>453.4</ele>
        <time>2013-03-21T10:01:00Z</time>
      </trkpt>
      <trkpt lat="47.21882" lon="6.04774">
        <ele>454.36</ele>
        <time>2013-03-21T10:01:14Z</time>
      </trkpt>
      <trkpt lat="47.21889" lon="6.048">
        <ele>456.28</ele>
        <time>2013-03-21T10:01:28Z</time>
      </trkpt>
      <trkpt lat="47.21895" lon="6.04822">
        <ele>458.21</ele>
        <time>2013-03-21T10:01:43Z</time>
      </trkpt>
      <trkpt lat="47.21903" lon="6.04837">
        <ele>459.17</ele>
        <time>2013-03-21T10:01:54Z</time>
      </trkpt>
      <trkpt lat="47.21907" lon="6.04851">
        <ele>460.61</ele>
        <time>2013-03-21T10:02:04Z</time>
      </trkpt>
      <trkpt lat="47.21909" lon="6.0486">
        <ele>460.61</ele>
        <time>2013-03-21T10:02:10Z</time>
      </trkpt>
      <trkpt lat="47.21916" lon="6.04883">
        <ele>463.01</ele>
        <time>2013-03-21T10:02:26Z</time>
      </trkpt>
      <trkpt lat="47.21922" lon="6.04903">
        <ele>464.45</ele>
        <time>2013-03-21T10:02:42Z</time>
      </trkpt>
      <trkpt lat="47.2193" lon="6.04923">
        <ele>466.38</ele>
        <time>2013-03-21T10:02:59Z</time>
      </trkpt>
      <trkpt lat="47.21932" lon="6.04948">
        <ele>467.82</ele>
        <time>2013-03-21T10:03:14Z</time>
      </trkpt>
      <trkpt lat="47.21939" lon="6.04967">
        <ele>469.74</ele>
        <time>2013-03-21T10:03:29Z</time>
      </trkpt>
      <trkpt lat="47.21947" lon="6.0498">
        <ele>471.18</ele>
        <time>2013-03-21T10:03:42Z</time>
      </trkpt>
      <trkpt lat="47.21949" lon="6.04985">
        <ele>471.18</ele>
        <time>2013-03-21T10:03:46Z</time>
      </trkpt>
      <trkpt lat="47.21955" lon="6.05009">
        <ele>472.63</ele>
        <time>2013-03-21T10:04:05Z</time>
      </trkpt>
      <trkpt lat="47.21952" lon="6.05017">
        <ele>475.51</ele>
        <time>2013-03-21T10:04:19Z</time>
      </trkpt>
      <trkpt lat="47.21951" lon="6.05015">
        <ele>476.47</ele>
        <time>2013-03-21T10:04:33Z</time>
      </trkpt>
      <trkpt lat="47.21936" lon="6.05012">
        <ele>477.91</ele>
        <time>2013-03-21T10:04:43Z</time>
      </trkpt>
      <trkpt lat="47.2193" lon="6.05022">
        <ele>477.43</ele>
        <time>2013-03-21T10:04:53Z</time>
      </trkpt>
      <trkpt lat="47.21921" lon="6.05029">
        <ele>475.99</ele>
        <time>2013-03-21T10:05:06Z</time>
      </trkpt>
      <trkpt lat="47.21914" lon="6.0504">
        <ele>473.59</ele>
        <time>2013-03-21T10:05:21Z</time>
      </trkpt>
      <trkpt lat="47.21913" lon="6.05044">
        <ele>472.14</ele>
        <time>2013-03-21T10:05:37Z</time>
      </trkpt>
      <trkpt lat="47.21913" lon="6.05049">
        <ele>472.63</ele>
        <time>2013-03-21T10:05:53Z</time>
      </trkpt>
      <trkpt lat="47.21912" lon="6.05071">
        <ele>471.18</ele>
        <time>2013-03-21T10:06:07Z</time>
      </trkpt>
      <trkpt lat="47.21913" lon="6.05083">
        <ele>469.26</ele>
        <time>2013-03-21T10:06:23Z</time>
      </trkpt>
      <trkpt lat="47.21912" lon="6.05089">
        <ele>469.26</ele>
        <time>2013-03-21T10:06:26Z</time>
      </trkpt>
      <trkpt lat="47.21917" lon="6.0511">
        <ele>469.74</ele>
        <time>2013-03-21T10:06:40Z</time>
      </trkpt>
      <trkpt lat="47.21922" lon="6.05121">
        <ele>471.18</ele>
        <time>2013-03-21T10:06:48Z</time>
      </trkpt>
      <trkpt lat="47.21928" lon="6.05134">
        <ele>473.59</ele>
        <time>2013-03-21T10:07:04Z</time>
      </trkpt>
      <trkpt lat="47.2193" lon="6.05143">
        <ele>475.03</ele>
        <time>2013-03-21T10:07:21Z</time>
      </trkpt>
      <trkpt lat="47.21936" lon="6.05159">
        <ele>475.51</ele>
        <time>2013-03-21T10:07:35Z</time>
      </trkpt>
      <trkpt lat="47.21943" lon="6.05172">
        <ele>475.51</ele>
        <time>2013-03-21T10:07:50Z</time>
      </trkpt>
      <trkpt lat="47.21943" lon="6.05172">
        <ele>473.11</ele>
        <time>2013-03-21T10:08:06Z</time>
      </trkpt>
      <trkpt lat="47.21943" lon="6.05172">
        <ele>469.74</ele>
        <time>2013-03-21T10:08:24Z</time>
      </trkpt>
      <trkpt lat="47.21944" lon="6.0518">
        <ele>468.78</ele>
        <time>2013-03-21T10:08:32Z</time>
      </trkpt>
      <trkpt lat="47.21944" lon="6.052">
        <ele>465.9</ele>
        <time>2013-03-21T10:08:46Z</time>
      </trkpt>
      <trkpt lat="47.21944" lon="6.05202">
        <ele>462.53</ele>
        <time>2013-03-21T10:09:01Z</time>
      </trkpt>
      <trkpt lat="47.21944" lon="6.05202">
        <ele>461.57</ele>
        <time>2013-03-21T10:09:23Z</time>
      </trkpt>
      <trkpt lat="47.21945" lon="6.05203">
        <ele>459.17</ele>
        <time>2013-03-21T10:09:42Z</time>
      </trkpt>
      <trkpt lat="47.21945" lon="6.05203">
        <ele>458.69</ele>
        <time>2013-03-21T10:10:02Z</time>
      </trkpt>
      <trkpt lat="47.2195" lon="6.05206">
        <ele>458.69</ele>
        <time>2013-03-21T10:10:18Z</time>
      </trkpt>
      <trkpt lat="47.21957" lon="6.05223">
        <ele>459.17</ele>
        <time>2013-03-21T10:10:23Z</time>
      </trkpt>
      <trkpt lat="47.2196" lon="6.05229">
        <ele>459.17</ele>
        <time>2013-03-21T10:10:25Z</time>
      </trkpt>
      <trkpt lat="47.21973" lon="6.05255">
        <ele>461.09</ele>
        <time>2013-03-21T10:10:40Z</time>
      </trkpt>
      <trkpt lat="47.21988" lon="6.05272">
        <ele>460.13</ele>
        <time>2013-03-21T10:10:56Z</time>
      </trkpt>
      <trkpt lat="47.22001" lon="6.05282">
        <ele>460.13</ele>
        <time>2013-03-21T10:11:11Z</time>
      </trkpt>
      <trkpt lat="47.22006" lon="6.05284">
        <ele>460.61</ele>
        <time>2013-03-21T10:11:16Z</time>
      </trkpt>
      <trkpt lat="47.22008" lon="6.05285">
        <ele>460.61</ele>
        <time>2013-03-21T10:11:19Z</time>
      </trkpt>
      <trkpt lat="47.22016" lon="6.05289">
        <ele>460.61</ele>
        <time>2013-03-21T10:11:28Z</time>
      </trkpt>
      <trkpt lat="47.22026" lon="6.05298">
        <ele>462.05</ele>
        <time>2013-03-21T10:11:40Z</time>
      </trkpt>
      <trkpt lat="47.22037" lon="6.05306">
        <ele>463.49</ele>
        <time>2013-03-21T10:11:55Z</time>
      </trkpt>
      <trkpt lat="47.2205" lon="6.05315">
        <ele>466.38</ele>
        <time>2013-03-21T10:12:12Z</time>
      </trkpt>
      <trkpt lat="47.22053" lon="6.05317">
        <ele>467.34</ele>
        <time>2013-03-21T10:12:16Z</time>
      </trkpt>
      <trkpt lat="47.22072" lon="6.05316">
        <ele>468.3</ele>
        <time>2013-03-21T10:12:32Z</time>
      </trkpt>
      <trkpt lat="47.22081" lon="6.05319">
        <ele>468.3</ele>
        <time>2013-03-21T10:12:41Z</time>
      </trkpt>
      <trkpt lat="47.22097" lon="6.05334">
        <ele>467.34</ele>
        <time>2013-03-21T10:12:55Z</time>
      </trkpt>
      <trkpt lat="47.2211" lon="6.05345">
        <ele>466.38</ele>
        <time>2013-03-21T10:13:07Z</time>
      </trkpt>
      <trkpt lat="47.22121" lon="6.05361">
        <ele>466.38</ele>
        <time>2013-03-21T10:13:20Z</time>
      </trkpt>
      <trkpt lat="47.22134" lon="6.05378">
        <ele>466.38</ele>
        <time>2013-03-21T10:13:33Z</time>
      </trkpt>
      <trkpt lat="47.22146" lon="6.05391">
        <ele>466.86</ele>
        <time>2013-03-21T10:13:46Z</time>
      </trkpt>
      <trkpt lat="47.22157" lon="6.05411">
        <ele>466.86</ele>
        <time>2013-03-21T10:14:00Z</time>
      </trkpt>
      <trkpt lat="47.22161" lon="6.05418">
        <ele>466.38</ele>
        <time>2013-03-21T10:14:06Z</time>
      </trkpt>
      <trkpt lat="47.22162" lon="6.05421">
        <ele>466.86</ele>
        <time>2013-03-21T10:14:08Z</time>
      </trkpt>
      <trkpt lat="47.22173" lon="6.0544">
        <ele>465.42</ele>
        <time>2013-03-21T10:14:24Z</time>
      </trkpt>
      <trkpt lat="47.22185" lon="6.05458">
        <ele>463.01</ele>
        <time>2013-03-21T10:14:41Z</time>
      </trkpt>
      <trkpt lat="47.22199" lon="6.0547">
        <ele>460.61</ele>
        <time>2013-03-21T10:14:57Z</time>
      </trkpt>
      <trkpt lat="47.22209" lon="6.05483">
        <ele>458.21</ele>
        <time>2013-03-21T10:15:10Z</time>
      </trkpt>
      <trkpt lat="47.22223" lon="6.05494">
        <ele>456.76</ele>
        <time>2013-03-21T10:15:23Z</time>
      </trkpt>
      <trkpt lat="47.22235" lon="6.05502">
        <ele>453.88</ele>
        <time>2013-03-21T10:15:35Z</time>
      </trkpt>
      <trkpt lat="47.22253" lon="6.05516">
        <ele>451.96</ele>
        <time>2013-03-21T10:15:51Z</time>
      </trkpt>
      <trkpt lat="47.22262" lon="6.05534">
        <ele>449.55</ele>
        <time>2013-03-21T10:16:05Z</time>
      </trkpt>
      <trkpt lat="47.22266" lon="6.05558">
        <ele>446.67</ele>
        <time>2013-03-21T10:16:19Z</time>
      </trkpt>
      <trkpt lat="47.22268" lon="6.05562">
        <ele>445.71</ele>
        <time>2013-03-21T10:16:22Z</time>
      </trkpt>
      <trkpt lat="47.22269" lon="6.05565">
        <ele>445.23</ele>
        <time>2013-03-21T10:16:24Z</time>
      </trkpt>
      <trkpt lat="47.22276" lon="6.05577">
        <ele>444.27</ele>
        <time>2013-03-21T10:16:35Z</time>
      </trkpt>
      <trkpt lat="47.22285" lon="6.05586">
        <ele>442.82</ele>
        <time>2013-03-21T10:16:45Z</time>
      </trkpt>
      <trkpt lat="47.22306" lon="6.05586">
        <ele>441.38</ele>
        <time>2013-03-21T10:17:01Z</time>
      </trkpt>
      <trkpt lat="47.22315" lon="6.05582">
        <ele>440.42</ele>
        <time>2013-03-21T10:17:15Z</time>
      </trkpt>
      <trkpt lat="47.22328" lon="6.05576">
        <ele>440.9</ele>
        <time>2013-03-21T10:17:27Z</time>
      </trkpt>
      <trkpt lat="47.22338" lon="6.0556">
        <ele>440.42</ele>
        <time>2013-03-21T10:17:42Z</time>
      </trkpt>
      <trkpt lat="47.2234" lon="6.05558">
        <ele>440.42</ele>
        <time>2013-03-21T10:17:44Z</time>
      </trkpt>
      <trkpt lat="47.22348" lon="6.05546">
        <ele>440.42</ele>
        <time>2013-03-21T10:17:54Z</time>
      </trkpt>
      <trkpt lat="47.2235" lon="6.05541">
        <ele>439.94</ele>
        <time>2013-03-21T10:17:57Z</time>
      </trkpt>
      <trkpt lat="47.22353" lon="6.05534">
        <ele>439.94</ele>
        <time>2013-03-21T10:18:02Z</time>
      </trkpt>
      <trkpt lat="47.22356" lon="6.05528">
        <ele>439.94</ele>
        <time>2013-03-21T10:18:06Z</time>
      </trkpt>
      <trkpt lat="47.22353" lon="6.05504">
        <ele>438.98</ele>
        <time>2013-03-21T10:18:21Z</time>
      </trkpt>
      <trkpt lat="47.22347" lon="6.05478">
        <ele>438.5</ele>
        <time>2013-03-21T10:18:36Z</time>
      </trkpt>
      <trkpt lat="47.22346" lon="6.05475">
        <ele>438.5</ele>
        <time>2013-03-21T10:18:38Z</time>
      </trkpt>
      <trkpt lat="47.22346" lon="6.05463">
        <ele>438.02</ele>
        <time>2013-03-21T10:18:45Z</time>
      </trkpt>
      <trkpt lat="47.22344" lon="6.05427">
        <ele>437.06</ele>
        <time>2013-03-21T10:19:05Z</time>
      </trkpt>
      <trkpt lat="47.22337" lon="6.05405">
        <ele>436.58</ele>
        <time>2013-03-21T10:19:17Z</time>
      </trkpt>
      <trkpt lat="47.22333" lon="6.05384">
        <ele>435.61</ele>
        <time>2013-03-21T10:19:29Z</time>
      </trkpt>
      <trkpt lat="47.22328" lon="6.05362">
        <ele>435.61</ele>
        <time>2013-03-21T10:19:43Z</time>
      </trkpt>
      <trkpt lat="47.22324" lon="6.05346">
        <ele>435.61</ele>
        <time>2013-03-21T10:19:52Z</time>
      </trkpt>
      <trkpt lat="47.22322" lon="6.05315">
        <ele>434.65</ele>
        <time>2013-03-21T10:20:07Z</time>
      </trkpt>
      <trkpt lat="47.22319" lon="6.05292">
        <ele>433.21</ele>
        <time>2013-03-21T10:20:21Z</time>
      </trkpt>
      <trkpt lat="47.22323" lon="6.05297">
        <ele>432.73</ele>
        <time>2013-03-21T10:20:36Z</time>
      </trkpt>
      <trkpt lat="47.22325" lon="6.053">
        <ele>432.73</ele>
        <time>2013-03-21T10:20:58Z</time>
      </trkpt>
      <trkpt lat="47.22342" lon="6.05319">
        <ele>433.21</ele>
        <time>2013-03-21T10:21:15Z</time>
      </trkpt>
      <trkpt lat="47.22359" lon="6.05338">
        <ele>431.77</ele>
        <time>2013-03-21T10:21:29Z</time>
      </trkpt>
      <trkpt lat="47.2237" lon="6.05362">
        <ele>432.25</ele>
        <time>2013-03-21T10:21:45Z</time>
      </trkpt>
      <trkpt lat="47.22377" lon="6.05373">
        <ele>432.25</ele>
        <time>2013-03-21T10:21:54Z</time>
      </trkpt>
      <trkpt lat="47.22388" lon="6.05401">
        <ele>432.25</ele>
        <time>2013-03-21T10:22:09Z</time>
      </trkpt>
      <trkpt lat="47.22392" lon="6.05411">
        <ele>432.25</ele>
        <time>2013-03-21T10:22:15Z</time>
      </trkpt>
      <trkpt lat="47.22395" lon="6.05422">
        <ele>432.73</ele>
        <time>2013-03-21T10:22:22Z</time>
      </trkpt>
      <trkpt lat="47.224" lon="6.0544">
        <ele>432.25</ele>
        <time>2013-03-21T10:22:34Z</time>
      </trkpt>
      <trkpt lat="47.22411" lon="6.05454">
        <ele>429.85</ele>
        <time>2013-03-21T10:22:47Z</time>
      </trkpt>
      <trkpt lat="47.22419" lon="6.05468">
        <ele>426.96</ele>
        <time>2013-03-21T10:23:01Z</time>
      </trkpt>
      <trkpt lat="47.2243" lon="6.05486">
        <ele>426.48</ele>
        <time>2013-03-21T10:23:16Z</time>
      </trkpt>
      <trkpt lat="47.22443" lon="6.05502">
        <ele>426.48</ele>
        <time>2013-03-21T10:23:32Z</time>
      </trkpt>
      <trkpt lat="47.22453" lon="6.05512">
        <ele>426.96</ele>
        <time>2013-03-21T10:23:43Z</time>
      </trkpt>
      <trkpt lat="47.22464" lon="6.05533">
        <ele>427.92</ele>
        <time>2013-03-21T10:23:58Z</time>
      </trkpt>
      <trkpt lat="47.22471" lon="6.05554">
        <ele>429.85</ele>
        <time>2013-03-21T10:24:13Z</time>
      </trkpt>
      <trkpt lat="47.22477" lon="6.05571">
        <ele>431.77</ele>
        <time>2013-03-21T10:24:26Z</time>
      </trkpt>
      <trkpt lat="47.22484" lon="6.05592">
        <ele>432.73</ele>
        <time>2013-03-21T10:24:42Z</time>
      </trkpt>
      <trkpt lat="47.22486" lon="6.05597">
        <ele>432.73</ele>
        <time>2013-03-21T10:24:46Z</time>
      </trkpt>
      <trkpt lat="47.22495" lon="6.05617">
        <ele>434.17</ele>
        <time>2013-03-21T10:25:03Z</time>
      </trkpt>
      <trkpt lat="47.22496" lon="6.05619">
        <ele>434.65</ele>
        <time>2013-03-21T10:25:05Z</time>
      </trkpt>
      <trkpt lat="47.22509" lon="6.05636">
        <ele>434.65</ele>
        <time>2013-03-21T10:25:21Z</time>
      </trkpt>
      <trkpt lat="47.22517" lon="6.05654">
        <ele>435.61</ele>
        <time>2013-03-21T10:25:36Z</time>
      </trkpt>
      <trkpt lat="47.22519" lon="6.05666">
        <ele>436.58</ele>
        <time>2013-03-21T10:25:48Z</time>
      </trkpt>
      <trkpt lat="47.22529" lon="6.05693">
        <ele>437.54</ele>
        <time>2013-03-21T10:26:05Z</time>
      </trkpt>
      <trkpt lat="47.22539" lon="6.05713">
        <ele>438.02</ele>
        <time>2013-03-21T10:26:19Z</time>
      </trkpt>
      <trkpt lat="47.22541" lon="6.05724">
        <ele>439.94</ele>
        <time>2013-03-21T10:26:34Z</time>
      </trkpt>
      <trkpt lat="47.22543" lon="6.05738">
        <ele>441.86</ele>
        <time>2013-03-21T10:26:48Z</time>
      </trkpt>
      <trkpt lat="47.2255" lon="6.0576">
        <ele>443.31</ele>
        <time>2013-03-21T10:27:05Z</time>
      </trkpt>
      <trkpt lat="47.22559" lon="6.05775">
        <ele>444.27</ele>
        <time>2013-03-21T10:27:19Z</time>
      </trkpt>
      <trkpt lat="47.22564" lon="6.0579">
        <ele>445.71</ele>
        <time>2013-03-21T10:27:32Z</time>
      </trkpt>
      <trkpt lat="47.2257" lon="6.05808">
        <ele>446.67</ele>
        <time>2013-03-21T10:27:49Z</time>
      </trkpt>
      <trkpt lat="47.22579" lon="6.05829">
        <ele>447.15</ele>
        <time>2013-03-21T10:28:04Z</time>
      </trkpt>
      <trkpt lat="47.22586" lon="6.05849">
        <ele>448.11</ele>
        <time>2013-03-21T10:28:18Z</time>
      </trkpt>
      <trkpt lat="47.22593" lon="6.05869">
        <ele>448.11</ele>
        <time>2013-03-21T10:28:33Z</time>
      </trkpt>
      <trkpt lat="47.22598" lon="6.05889">
        <ele>448.11</ele>
        <time>2013-03-21T10:28:48Z</time>
      </trkpt>
      <trkpt lat="47.22598" lon="6.05894">
        <ele>448.11</ele>
        <time>2013-03-21T10:28:52Z</time>
      </trkpt>
      <trkpt lat="47.22597" lon="6.05899">
        <ele>448.11</ele>
        <time>2013-03-21T10:28:55Z</time>
      </trkpt>
      <trkpt lat="47.22586" lon="6.05914">
        <ele>448.11</ele>
        <time>2013-03-21T10:29:12Z</time>
      </trkpt>
      <trkpt lat="47.22586" lon="6.05914">
        <ele>447.63</ele>
        <time>2013-03-21T10:29:43Z</time>
      </trkpt>
      <trkpt lat="47.22586" lon="6.05916">
        <ele>447.15</ele>
        <time>2013-03-21T10:30:00Z</time>
      </trkpt>
      <trkpt lat="47.22583" lon="6.0593">
        <ele>447.15</ele>
        <time>2013-03-21T10:30:14Z</time>
      </trkpt>
      <trkpt lat="47.22585" lon="6.05937">
        <ele>445.71</ele>
        <time>2013-03-21T10:30:20Z</time>
      </trkpt>
      <trkpt lat="47.22586" lon="6.05943">
        <ele>444.75</ele>
        <time>2013-03-21T10:30:37Z</time>
      </trkpt>
      <trkpt lat="47.22586" lon="6.05944">
        <ele>444.75</ele>
        <time>2013-03-21T10:30:38Z</time>
      </trkpt>
      <trkpt lat="47.22585" lon="6.05958">
        <ele>444.27</ele>
        <time>2013-03-21T10:30:49Z</time>
      </trkpt>
      <trkpt lat="47.22585" lon="6.05965">
        <ele>443.31</ele>
        <time>2013-03-21T10:30:56Z</time>
      </trkpt>
      <trkpt lat="47.22586" lon="6.05975">
        <ele>442.34</ele>
        <time>2013-03-21T10:31:12Z</time>
      </trkpt>
      <trkpt lat="47.22586" lon="6.05979">
        <ele>440.42</ele>
        <time>2013-03-21T10:31:29Z</time>
      </trkpt>
      <trkpt lat="47.22586" lon="6.05995">
        <ele>440.42</ele>
        <time>2013-03-21T10:31:44Z</time>
      </trkpt>
      <trkpt lat="47.22585" lon="6.06003">
        <ele>439.46</ele>
        <time>2013-03-21T10:31:52Z</time>
      </trkpt>
      <trkpt lat="47.22589" lon="6.06014">
        <ele>437.54</ele>
        <time>2013-03-21T10:32:07Z</time>
      </trkpt>
      <trkpt lat="47.22593" lon="6.06013">
        <ele>435.61</ele>
        <time>2013-03-21T10:32:22Z</time>
      </trkpt>
      <trkpt lat="47.22593" lon="6.06013">
        <ele>435.13</ele>
        <time>2013-03-21T10:32:35Z</time>
      </trkpt>
      <trkpt lat="47.22597" lon="6.06011">
        <ele>434.65</ele>
        <time>2013-03-21T10:32:38Z</time>
      </trkpt>
      <trkpt lat="47.22607" lon="6.06002">
        <ele>433.21</ele>
        <time>2013-03-21T10:32:58Z</time>
      </trkpt>
      <trkpt lat="47.22609" lon="6.06">
        <ele>431.29</ele>
        <time>2013-03-21T10:33:15Z</time>
      </trkpt>
      <trkpt lat="47.22609" lon="6.06001">
        <ele>430.33</ele>
        <time>2013-03-21T10:33:36Z</time>
      </trkpt>
      <trkpt lat="47.2261" lon="6.06008">
        <ele>428.89</ele>
        <time>2013-03-21T10:33:53Z</time>
      </trkpt>
      <trkpt lat="47.22609" lon="6.06027">
        <ele>427.92</ele>
        <time>2013-03-21T10:34:09Z</time>
      </trkpt>
      <trkpt lat="47.22611" lon="6.06036">
        <ele>426.96</ele>
        <time>2013-03-21T10:34:24Z</time>
      </trkpt>
      <trkpt lat="47.22611" lon="6.06036">
        <ele>426.96</ele>
        <time>2013-03-21T10:34:47Z</time>
      </trkpt>
      <trkpt lat="47.22609" lon="6.06045">
        <ele>426.48</ele>
        <time>2013-03-21T10:35:04Z</time>
      </trkpt>
      <trkpt lat="47.22608" lon="6.06055">
        <ele>424.08</ele>
        <time>2013-03-21T10:35:21Z</time>
      </trkpt>
      <trkpt lat="47.22609" lon="6.06054">
        <ele>422.64</ele>
        <time>2013-03-21T10:35:28Z</time>
      </trkpt>
      <trkpt lat="47.22615" lon="6.0605">
        <ele>421.19</ele>
        <time>2013-03-21T10:35:39Z</time>
      </trkpt>
      <trkpt lat="47.22618" lon="6.06047">
        <ele>421.19</ele>
        <time>2013-03-21T10:35:42Z</time>
      </trkpt>
      <trkpt lat="47.22621" lon="6.06044">
        <ele>420.23</ele>
        <time>2013-03-21T10:35:58Z</time>
      </trkpt>
      <trkpt lat="47.22625" lon="6.0604">
        <ele>420.71</ele>
        <time>2013-03-21T10:36:08Z</time>
      </trkpt>
      <trkpt lat="47.22629" lon="6.0603">
        <ele>419.27</ele>
        <time>2013-03-21T10:36:25Z</time>
      </trkpt>
      <trkpt lat="47.22632" lon="6.06026">
        <ele>417.83</ele>
        <time>2013-03-21T10:36:45Z</time>
      </trkpt>
      <trkpt lat="47.22635" lon="6.06026">
        <ele>417.35</ele>
        <time>2013-03-21T10:37:02Z</time>
      </trkpt>
      <trkpt lat="47.22635" lon="6.06032">
        <ele>414.47</ele>
        <time>2013-03-21T10:37:20Z</time>
      </trkpt>
      <trkpt lat="47.2263" lon="6.06045">
        <ele>413.98</ele>
        <time>2013-03-21T10:37:37Z</time>
      </trkpt>
      <trkpt lat="47.22628" lon="6.06052">
        <ele>412.54</ele>
        <time>2013-03-21T10:37:54Z</time>
      </trkpt>
      <trkpt lat="47.22628" lon="6.06056">
        <ele>412.54</ele>
        <time>2013-03-21T10:38:02Z</time>
      </trkpt>
      <trkpt lat="47.22627" lon="6.06068">
        <ele>411.1</ele>
        <time>2013-03-21T10:38:20Z</time>
      </trkpt>
      <trkpt lat="47.22632" lon="6.06062">
        <ele>408.22</ele>
        <time>2013-03-21T10:38:38Z</time>
      </trkpt>
      <trkpt lat="47.22632" lon="6.06062">
        <ele>406.77</ele>
        <time>2013-03-21T10:38:56Z</time>
      </trkpt>
      <trkpt lat="47.22635" lon="6.06083">
        <ele>404.37</ele>
        <time>2013-03-21T10:39:12Z</time>
      </trkpt>
      <trkpt lat="47.22636" lon="6.06088">
        <ele>402.93</ele>
        <time>2013-03-21T10:39:27Z</time>
      </trkpt>
      <trkpt lat="47.22638" lon="6.061">
        <ele>400.53</ele>
        <time>2013-03-21T10:39:43Z</time>
      </trkpt>
      <trkpt lat="47.22639" lon="6.06112">
        <ele>398.6</ele>
        <time>2013-03-21T10:39:58Z</time>
      </trkpt>
      <trkpt lat="47.22635" lon="6.06125">
        <ele>396.68</ele>
        <time>2013-03-21T10:40:15Z</time>
      </trkpt>
      <trkpt lat="47.22629" lon="6.06133">
        <ele>395.24</ele>
        <time>2013-03-21T10:40:31Z</time>
      </trkpt>
      <trkpt lat="47.2263" lon="6.06146">
        <ele>394.76</ele>
        <time>2013-03-21T10:40:47Z</time>
      </trkpt>
      <trkpt lat="47.22631" lon="6.06164">
        <ele>392.36</ele>
        <time>2013-03-21T10:41:03Z</time>
      </trkpt>
      <trkpt lat="47.22633" lon="6.06183">
        <ele>389.95</ele>
        <time>2013-03-21T10:41:18Z</time>
      </trkpt>
      <trkpt lat="47.22633" lon="6.06189">
        <ele>389.47</ele>
        <time>2013-03-21T10:41:21Z</time>
      </trkpt>
      <trkpt lat="47.2263" lon="6.06201">
        <ele>388.99</ele>
        <time>2013-03-21T10:41:28Z</time>
      </trkpt>
      <trkpt lat="47.22629" lon="6.06219">
        <ele>387.55</ele>
        <time>2013-03-21T10:41:44Z</time>
      </trkpt>
      <trkpt lat="47.22629" lon="6.06224">
        <ele>387.55</ele>
        <time>2013-03-21T10:41:48Z</time>
      </trkpt>
      <trkpt lat="47.22633" lon="6.06249">
        <ele>385.63</ele>
        <time>2013-03-21T10:42:05Z</time>
      </trkpt>
      <trkpt lat="47.22638" lon="6.06272">
        <ele>383.22</ele>
        <time>2013-03-21T10:42:21Z</time>
      </trkpt>
      <trkpt lat="47.22641" lon="6.06289">
        <ele>380.82</ele>
        <time>2013-03-21T10:42:36Z</time>
      </trkpt>
      <trkpt lat="47.22648" lon="6.06306">
        <ele>378.9</ele>
        <time>2013-03-21T10:42:51Z</time>
      </trkpt>
      <trkpt lat="47.22643" lon="6.06322">
        <ele>376.97</ele>
        <time>2013-03-21T10:43:06Z</time>
      </trkpt>
      <trkpt lat="47.22641" lon="6.06337">
        <ele>377.45</ele>
        <time>2013-03-21T10:43:23Z</time>
      </trkpt>
      <trkpt lat="47.2264" lon="6.0634">
        <ele>377.94</ele>
        <time>2013-03-21T10:43:29Z</time>
      </trkpt>
      <trkpt lat="47.22631" lon="6.06344">
        <ele>375.53</ele>
        <time>2013-03-21T10:43:43Z</time>
      </trkpt>
      <trkpt lat="47.22627" lon="6.06346">
        <ele>373.61</ele>
        <time>2013-03-21T10:43:59Z</time>
      </trkpt>
      <trkpt lat="47.2262" lon="6.06349">
        <ele>371.21</ele>
        <time>2013-03-21T10:44:15Z</time>
      </trkpt>
      <trkpt lat="47.2261" lon="6.0635">
        <ele>369.28</ele>
        <time>2013-03-21T10:44:29Z</time>
      </trkpt>
      <trkpt lat="47.22595" lon="6.06352">
        <ele>366.88</ele>
        <time>2013-03-21T10:44:44Z</time>
      </trkpt>
      <trkpt lat="47.2259" lon="6.06351">
        <ele>364.96</ele>
        <time>2013-03-21T10:44:59Z</time>
      </trkpt>
      <trkpt lat="47.22588" lon="6.06353">
        <ele>362.55</ele>
        <time>2013-03-21T10:45:12Z</time>
      </trkpt>
      <trkpt lat="47.22591" lon="6.06359">
        <ele>359.67</ele>
        <time>2013-03-21T10:45:29Z</time>
      </trkpt>
      <trkpt lat="47.22593" lon="6.06367">
        <ele>358.23</ele>
        <time>2013-03-21T10:45:44Z</time>
      </trkpt>
      <trkpt lat="47.22596" lon="6.06374">
        <ele>356.31</ele>
        <time>2013-03-21T10:45:52Z</time>
      </trkpt>
      <trkpt lat="47.22606" lon="6.06387">
        <ele>352.94</ele>
        <time>2013-03-21T10:46:07Z</time>
      </trkpt>
      <trkpt lat="47.22597" lon="6.06392">
        <ele>351.02</ele>
        <time>2013-03-21T10:46:17Z</time>
      </trkpt>
      <trkpt lat="47.2258" lon="6.06394">
        <ele>350.06</ele>
        <time>2013-03-21T10:46:31Z</time>
      </trkpt>
      <trkpt lat="47.22562" lon="6.0639">
        <ele>349.58</ele>
        <time>2013-03-21T10:46:45Z</time>
      </trkpt>
      <trkpt lat="47.22551" lon="6.06388">
        <ele>349.58</ele>
        <time>2013-03-21T10:46:56Z</time>
      </trkpt>
      <trkpt lat="47.22534" lon="6.06383">
        <ele>350.06</ele>
        <time>2013-03-21T10:47:12Z</time>
      </trkpt>
      <trkpt lat="47.22532" lon="6.06383">
        <ele>349.1</ele>
        <time>2013-03-21T10:47:14Z</time>
      </trkpt>
      <trkpt lat="47.22519" lon="6.06373">
        <ele>350.54</ele>
        <time>2013-03-21T10:47:28Z</time>
      </trkpt>
      <trkpt lat="47.22515" lon="6.06373">
        <ele>351.5</ele>
        <time>2013-03-21T10:47:31Z</time>
      </trkpt>
      <trkpt lat="47.225" lon="6.06369">
        <ele>351.5</ele>
        <time>2013-03-21T10:47:45Z</time>
      </trkpt>
      <trkpt lat="47.22483" lon="6.06363">
        <ele>352.94</ele>
        <time>2013-03-21T10:48:00Z</time>
      </trkpt>
      <trkpt lat="47.22477" lon="6.06358">
        <ele>352.94</ele>
        <time>2013-03-21T10:48:16Z</time>
      </trkpt>
      <trkpt lat="47.22477" lon="6.06358">
        <ele>345.25</ele>
        <time>2013-03-21T10:48:20Z</time>
      </trkpt>
      <trkpt lat="47.22477" lon="6.06358">
        <ele>354.86</ele>
        <time>2013-03-21T10:48:21Z</time>
      </trkpt>
      <trkpt lat="47.22477" lon="6.06358">
        <ele>348.62</ele>
        <time>2013-03-21T10:48:24Z</time>
      </trkpt>
      <trkpt lat="47.22477" lon="6.06358">
        <ele>354.38</ele>
        <time>2013-03-21T10:48:25Z</time>
      </trkpt>
      <trkpt lat="47.22477" lon="6.06358">
        <ele>351.5</ele>
        <time>2013-03-21T10:48:28Z</time>
      </trkpt>
      <trkpt lat="47.22477" lon="6.06358">
        <ele>355.83</ele>
        <time>2013-03-21T10:48:29Z</time>
      </trkpt>
      <trkpt lat="47.22477" lon="6.06358">
        <ele>354.86</ele>
        <time>2013-03-21T10:48:30Z</time>
      </trkpt>
      <trkpt lat="47.22477" lon="6.06358">
        <ele>353.42</ele>
        <time>2013-03-21T10:48:32Z</time>
      </trkpt>
      <trkpt lat="47.22478" lon="6.06358">
        <ele>353.9</ele>
        <time>2013-03-21T10:49:01Z</time>
      </trkpt>
      <trkpt lat="47.22478" lon="6.06358">
        <ele>352.94</ele>
        <time>2013-03-21T10:49:03Z</time>
      </trkpt>
      <trkpt lat="47.22478" lon="6.06358">
        <ele>353.42</ele>
        <time>2013-03-21T10:49:21Z</time>
      </trkpt>
      <trkpt lat="47.22478" lon="6.06358">
        <ele>354.38</ele>
        <time>2013-03-21T10:49:43Z</time>
      </trkpt>
      <trkpt lat="47.22478" lon="6.06358">
        <ele>354.86</ele>
        <time>2013-03-21T10:50:06Z</time>
      </trkpt>
      <trkpt lat="47.22477" lon="6.06358">
        <ele>353.9</ele>
        <time>2013-03-21T10:50:25Z</time>
      </trkpt>
      <trkpt lat="47.22477" lon="6.06358">
        <ele>353.9</ele>
        <time>2013-03-21T10:50:50Z</time>
      </trkpt>
      <trkpt lat="47.22475" lon="6.0637">
        <ele>353.9</ele>
        <time>2013-03-21T10:51:07Z</time>
      </trkpt>
      <trkpt lat="47.22473" lon="6.06378">
        <ele>353.42</ele>
        <time>2013-03-21T10:51:12Z</time>
      </trkpt>
      <trkpt lat="47.22468" lon="6.06401">
        <ele>352.46</ele>
        <time>2013-03-21T10:51:25Z</time>
      </trkpt>
      <trkpt lat="47.22465" lon="6.06414">
        <ele>351.98</ele>
        <time>2013-03-21T10:51:32Z</time>
      </trkpt>
      <trkpt lat="47.22459" lon="6.06438">
        <ele>351.02</ele>
        <time>2013-03-21T10:51:48Z</time>
      </trkpt>
      <trkpt lat="47.22458" lon="6.06469">
        <ele>349.1</ele>
        <time>2013-03-21T10:52:07Z</time>
      </trkpt>
      <trkpt lat="47.22459" lon="6.06481">
        <ele>348.62</ele>
        <time>2013-03-21T10:52:15Z</time>
      </trkpt>
      <trkpt lat="47.22469" lon="6.06504">
        <ele>346.69</ele>
        <time>2013-03-21T10:52:30Z</time>
      </trkpt>
      <trkpt lat="47.22469" lon="6.06506">
        <ele>346.69</ele>
        <time>2013-03-21T10:52:31Z</time>
      </trkpt>
      <trkpt lat="47.22477" lon="6.06522">
        <ele>346.69</ele>
        <time>2013-03-21T10:52:44Z</time>
      </trkpt>
      <trkpt lat="47.22491" lon="6.06535">
        <ele>345.73</ele>
        <time>2013-03-21T10:52:56Z</time>
      </trkpt>
      <trkpt lat="47.22505" lon="6.06556">
        <ele>344.77</ele>
        <time>2013-03-21T10:53:11Z</time>
      </trkpt>
      <trkpt lat="47.22506" lon="6.06557">
        <ele>344.77</ele>
        <time>2013-03-21T10:53:12Z</time>
      </trkpt>
      <trkpt lat="47.2251" lon="6.06563">
        <ele>344.77</ele>
        <time>2013-03-21T10:53:16Z</time>
      </trkpt>
      <trkpt lat="47.22527" lon="6.06575">
        <ele>343.33</ele>
        <time>2013-03-21T10:53:31Z</time>
      </trkpt>
      <trkpt lat="47.22546" lon="6.06584">
        <ele>342.85</ele>
        <time>2013-03-21T10:53:46Z</time>
      </trkpt>
      <trkpt lat="47.22565" lon="6.06586">
        <ele>341.41</ele>
        <time>2013-03-21T10:54:01Z</time>
      </trkpt>
      <trkpt lat="47.22588" lon="6.06583">
        <ele>340.92</ele>
        <time>2013-03-21T10:54:18Z</time>
      </trkpt>
      <trkpt lat="47.22604" lon="6.06595">
        <ele>340.92</ele>
        <time>2013-03-21T10:54:33Z</time>
      </trkpt>
      <trkpt lat="47.22604" lon="6.06596">
        <ele>340.92</ele>
        <time>2013-03-21T10:54:47Z</time>
      </trkpt>
      <trkpt lat="47.22604" lon="6.06596">
        <ele>340.92</ele>
        <time>2013-03-21T10:55:15Z</time>
      </trkpt>
      <trkpt lat="47.22604" lon="6.06594">
        <ele>340.92</ele>
        <time>2013-03-21T10:55:24Z</time>
      </trkpt>
      <trkpt lat="47.22612" lon="6.06576">
        <ele>340.44</ele>
        <time>2013-03-21T10:55:36Z</time>
      </trkpt>
      <trkpt lat="47.2262" lon="6.0656">
        <ele>339.48</ele>
        <time>2013-03-21T10:55:47Z</time>
      </trkpt>
      <trkpt lat="47.22637" lon="6.06539">
        <ele>339</ele>
        <time>2013-03-21T10:56:06Z</time>
      </trkpt>
      <trkpt lat="47.22639" lon="6.06534">
        <ele>338.52</ele>
        <time>2013-03-21T10:56:11Z</time>
      </trkpt>
      <trkpt lat="47.2265" lon="6.06509">
        <ele>337.08</ele>
        <time>2013-03-21T10:56:30Z</time>
      </trkpt>
      <trkpt lat="47.22651" lon="6.06506">
        <ele>336.6</ele>
        <time>2013-03-21T10:56:33Z</time>
      </trkpt>
      <trkpt lat="47.22652" lon="6.06499">
        <ele>336.6</ele>
        <time>2013-03-21T10:56:38Z</time>
      </trkpt>
      <trkpt lat="47.22654" lon="6.06487">
        <ele>336.12</ele>
        <time>2013-03-21T10:56:44Z</time>
      </trkpt>
      <trkpt lat="47.22658" lon="6.0647">
        <ele>335.64</ele>
        <time>2013-03-21T10:56:54Z</time>
      </trkpt>
      <trkpt lat="47.22661" lon="6.06462">
        <ele>335.16</ele>
        <time>2013-03-21T10:56:59Z</time>
      </trkpt>
      <trkpt lat="47.22665" lon="6.06449">
        <ele>335.64</ele>
        <time>2013-03-21T10:57:16Z</time>
      </trkpt>
      <trkpt lat="47.22669" lon="6.06453">
        <ele>335.64</ele>
        <time>2013-03-21T10:57:17Z</time>
      </trkpt>
      <trkpt lat="47.22677" lon="6.06457">
        <ele>337.08</ele>
        <time>2013-03-21T10:57:28Z</time>
      </trkpt>
      <trkpt lat="47.22687" lon="6.06462">
        <ele>337.56</ele>
        <time>2013-03-21T10:57:35Z</time>
      </trkpt>
      <trkpt lat="47.22704" lon="6.06483">
        <ele>339.96</ele>
        <time>2013-03-21T10:57:50Z</time>
      </trkpt>
      <trkpt lat="47.22713" lon="6.06507">
        <ele>341.89</ele>
        <time>2013-03-21T10:58:05Z</time>
      </trkpt>
      <trkpt lat="47.2272" lon="6.0653">
        <ele>342.85</ele>
        <time>2013-03-21T10:58:20Z</time>
      </trkpt>
      <trkpt lat="47.22717" lon="6.06568">
        <ele>344.77</ele>
        <time>2013-03-21T10:58:42Z</time>
      </trkpt>
      <trkpt lat="47.22718" lon="6.06589">
        <ele>345.73</ele>
        <time>2013-03-21T10:58:55Z</time>
      </trkpt>
      <trkpt lat="47.22724" lon="6.06601">
        <ele>346.69</ele>
        <time>2013-03-21T10:59:03Z</time>
      </trkpt>
      <trkpt lat="47.22739" lon="6.06617">
        <ele>347.65</ele>
        <time>2013-03-21T10:59:19Z</time>
      </trkpt>
      <trkpt lat="47.22756" lon="6.06625">
        <ele>349.1</ele>
        <time>2013-03-21T10:59:35Z</time>
      </trkpt>
      <trkpt lat="47.22771" lon="6.06636">
        <ele>350.06</ele>
        <time>2013-03-21T10:59:50Z</time>
      </trkpt>
      <trkpt lat="47.22785" lon="6.06644">
        <ele>351.98</ele>
        <time>2013-03-21T11:00:04Z</time>
      </trkpt>
      <trkpt lat="47.228" lon="6.06657">
        <ele>353.42</ele>
        <time>2013-03-21T11:00:18Z</time>
      </trkpt>
      <trkpt lat="47.22802" lon="6.06661">
        <ele>353.42</ele>
        <time>2013-03-21T11:00:21Z</time>
      </trkpt>
      <trkpt lat="47.22816" lon="6.06675">
        <ele>354.38</ele>
        <time>2013-03-21T11:00:35Z</time>
      </trkpt>
      <trkpt lat="47.2283" lon="6.06692">
        <ele>356.79</ele>
        <time>2013-03-21T11:00:51Z</time>
      </trkpt>
      <trkpt lat="47.22835" lon="6.067">
        <ele>357.75</ele>
        <time>2013-03-21T11:00:59Z</time>
      </trkpt>
      <trkpt lat="47.22838" lon="6.06705">
        <ele>357.75</ele>
        <time>2013-03-21T11:01:04Z</time>
      </trkpt>
      <trkpt lat="47.2285" lon="6.06721">
        <ele>359.19</ele>
        <time>2013-03-21T11:01:18Z</time>
      </trkpt>
      <trkpt lat="47.22871" lon="6.06726">
        <ele>359.19</ele>
        <time>2013-03-21T11:01:35Z</time>
      </trkpt>
      <trkpt lat="47.22891" lon="6.06729">
        <ele>359.19</ele>
        <time>2013-03-21T11:01:50Z</time>
      </trkpt>
      <trkpt lat="47.2291" lon="6.06736">
        <ele>359.19</ele>
        <time>2013-03-21T11:02:06Z</time>
      </trkpt>
      <trkpt lat="47.22929" lon="6.06743">
        <ele>359.19</ele>
        <time>2013-03-21T11:02:22Z</time>
      </trkpt>
      <trkpt lat="47.2295" lon="6.06742">
        <ele>359.19</ele>
        <time>2013-03-21T11:02:38Z</time>
      </trkpt>
      <trkpt lat="47.22969" lon="6.06748">
        <ele>359.67</ele>
        <time>2013-03-21T11:02:54Z</time>
      </trkpt>
      <trkpt lat="47.22985" lon="6.06757">
        <ele>360.15</ele>
        <time>2013-03-21T11:03:09Z</time>
      </trkpt>
      <trkpt lat="47.22998" lon="6.0676">
        <ele>361.11</ele>
        <time>2013-03-21T11:03:21Z</time>
      </trkpt>
      <trkpt lat="47.23006" lon="6.06761">
        <ele>361.11</ele>
        <time>2013-03-21T11:03:28Z</time>
      </trkpt>
      <trkpt lat="47.23022" lon="6.06765">
        <ele>360.63</ele>
        <time>2013-03-21T11:03:43Z</time>
      </trkpt>
      <trkpt lat="47.23036" lon="6.06775">
        <ele>360.15</ele>
        <time>2013-03-21T11:03:57Z</time>
      </trkpt>
      <trkpt lat="47.23052" lon="6.06786">
        <ele>359.19</ele>
        <time>2013-03-21T11:04:13Z</time>
      </trkpt>
      <trkpt lat="47.23062" lon="6.0679">
        <ele>358.71</ele>
        <time>2013-03-21T11:04:22Z</time>
      </trkpt>
      <trkpt lat="47.23064" lon="6.06789">
        <ele>359.67</ele>
        <time>2013-03-21T11:04:26Z</time>
      </trkpt>
      <trkpt lat="47.23079" lon="6.06796">
        <ele>359.19</ele>
        <time>2013-03-21T11:04:39Z</time>
      </trkpt>
      <trkpt lat="47.23083" lon="6.06798">
        <ele>359.19</ele>
        <time>2013-03-21T11:04:43Z</time>
      </trkpt>
      <trkpt lat="47.23102" lon="6.06804">
        <ele>359.19</ele>
        <time>2013-03-21T11:04:57Z</time>
      </trkpt>
      <trkpt lat="47.23111" lon="6.06808">
        <ele>359.67</ele>
        <time>2013-03-21T11:05:05Z</time>
      </trkpt>
      <trkpt lat="47.23134" lon="6.06801">
        <ele>359.67</ele>
        <time>2013-03-21T11:05:22Z</time>
      </trkpt>
      <trkpt lat="47.23145" lon="6.06802">
        <ele>360.15</ele>
        <time>2013-03-21T11:05:34Z</time>
      </trkpt>
      <trkpt lat="47.2315" lon="6.06797">
        <ele>360.63</ele>
        <time>2013-03-21T11:05:38Z</time>
      </trkpt>
      <trkpt lat="47.23162" lon="6.06778">
        <ele>362.07</ele>
        <time>2013-03-21T11:05:54Z</time>
      </trkpt>
      <trkpt lat="47.23166" lon="6.06772">
        <ele>362.55</ele>
        <time>2013-03-21T11:06:12Z</time>
      </trkpt>
      <trkpt lat="47.23166" lon="6.06771">
        <ele>362.07</ele>
        <time>2013-03-21T11:06:39Z</time>
      </trkpt>
      <trkpt lat="47.23172" lon="6.06764">
        <ele>364</ele>
        <time>2013-03-21T11:06:52Z</time>
      </trkpt>
      <trkpt lat="47.23187" lon="6.06757">
        <ele>364.96</ele>
        <time>2013-03-21T11:07:10Z</time>
      </trkpt>
      <trkpt lat="47.23201" lon="6.0675">
        <ele>366.88</ele>
        <time>2013-03-21T11:07:27Z</time>
      </trkpt>
      <trkpt lat="47.23212" lon="6.06747">
        <ele>367.36</ele>
        <time>2013-03-21T11:07:44Z</time>
      </trkpt>
      <trkpt lat="47.23227" lon="6.06738">
        <ele>367.84</ele>
        <time>2013-03-21T11:08:01Z</time>
      </trkpt>
      <trkpt lat="47.23229" lon="6.06737">
        <ele>368.8</ele>
        <time>2013-03-21T11:08:02Z</time>
      </trkpt>
      <trkpt lat="47.23233" lon="6.06734">
        <ele>369.76</ele>
        <time>2013-03-21T11:08:21Z</time>
      </trkpt>
      <trkpt lat="47.23238" lon="6.06732">
        <ele>370.73</ele>
        <time>2013-03-21T11:08:39Z</time>
      </trkpt>
      <trkpt lat="47.23238" lon="6.06731">
        <ele>370.24</ele>
        <time>2013-03-21T11:08:40Z</time>
      </trkpt>
      <trkpt lat="47.23242" lon="6.06727">
        <ele>371.21</ele>
        <time>2013-03-21T11:08:44Z</time>
      </trkpt>
      <trkpt lat="47.23255" lon="6.06718">
        <ele>374.09</ele>
        <time>2013-03-21T11:08:59Z</time>
      </trkpt>
      <trkpt lat="47.23258" lon="6.06713">
        <ele>375.05</ele>
        <time>2013-03-21T11:09:03Z</time>
      </trkpt>
      <trkpt lat="47.2326" lon="6.0671">
        <ele>375.53</ele>
        <time>2013-03-21T11:09:07Z</time>
      </trkpt>
      <trkpt lat="47.23271" lon="6.06691">
        <ele>376.49</ele>
        <time>2013-03-21T11:09:24Z</time>
      </trkpt>
      <trkpt lat="47.23281" lon="6.06675">
        <ele>376.49</ele>
        <time>2013-03-21T11:09:39Z</time>
      </trkpt>
      <trkpt lat="47.23292" lon="6.06656">
        <ele>376.49</ele>
        <time>2013-03-21T11:09:54Z</time>
      </trkpt>
      <trkpt lat="47.233" lon="6.06642">
        <ele>376.97</ele>
        <time>2013-03-21T11:10:09Z</time>
      </trkpt>
      <trkpt lat="47.23312" lon="6.06633">
        <ele>377.45</ele>
        <time>2013-03-21T11:10:20Z</time>
      </trkpt>
      <trkpt lat="47.23322" lon="6.06615">
        <ele>377.94</ele>
        <time>2013-03-21T11:10:35Z</time>
      </trkpt>
      <trkpt lat="47.23325" lon="6.06614">
        <ele>378.9</ele>
        <time>2013-03-21T11:10:40Z</time>
      </trkpt>
      <trkpt lat="47.23334" lon="6.06611">
        <ele>380.34</ele>
        <time>2013-03-21T11:10:51Z</time>
      </trkpt>
      <trkpt lat="47.23344" lon="6.06621">
        <ele>382.74</ele>
        <time>2013-03-21T11:11:07Z</time>
      </trkpt>
      <trkpt lat="47.23359" lon="6.06642">
        <ele>385.15</ele>
        <time>2013-03-21T11:11:25Z</time>
      </trkpt>
      <trkpt lat="47.23362" lon="6.06654">
        <ele>386.59</ele>
        <time>2013-03-21T11:11:34Z</time>
      </trkpt>
      <trkpt lat="47.23364" lon="6.06677">
        <ele>388.51</ele>
        <time>2013-03-21T11:11:50Z</time>
      </trkpt>
      <trkpt lat="47.23372" lon="6.067">
        <ele>390.91</ele>
        <time>2013-03-21T11:12:08Z</time>
      </trkpt>
      <trkpt lat="47.23377" lon="6.06714">
        <ele>392.84</ele>
        <time>2013-03-21T11:12:18Z</time>
      </trkpt>
      <trkpt lat="47.2338" lon="6.06717">
        <ele>393.32</ele>
        <time>2013-03-21T11:12:22Z</time>
      </trkpt>
      <trkpt lat="47.23383" lon="6.0672">
        <ele>393.32</ele>
        <time>2013-03-21T11:12:26Z</time>
      </trkpt>
      <trkpt lat="47.23386" lon="6.06726">
        <ele>393.8</ele>
        <time>2013-03-21T11:12:33Z</time>
      </trkpt>
      <trkpt lat="47.23389" lon="6.06732">
        <ele>393.8</ele>
        <time>2013-03-21T11:12:37Z</time>
      </trkpt>
      <trkpt lat="47.23397" lon="6.06747">
        <ele>396.2</ele>
        <time>2013-03-21T11:12:54Z</time>
      </trkpt>
      <trkpt lat="47.23404" lon="6.06765">
        <ele>397.64</ele>
        <time>2013-03-21T11:13:06Z</time>
      </trkpt>
      <trkpt lat="47.23416" lon="6.06785">
        <ele>400.05</ele>
        <time>2013-03-21T11:13:22Z</time>
      </trkpt>
      <trkpt lat="47.23426" lon="6.06807">
        <ele>401.97</ele>
        <time>2013-03-21T11:13:39Z</time>
      </trkpt>
      <trkpt lat="47.2344" lon="6.06825">
        <ele>404.37</ele>
        <time>2013-03-21T11:13:58Z</time>
      </trkpt>
      <trkpt lat="47.23445" lon="6.06835">
        <ele>405.81</ele>
        <time>2013-03-21T11:14:05Z</time>
      </trkpt>
      <trkpt lat="47.23458" lon="6.0685">
        <ele>407.74</ele>
        <time>2013-03-21T11:14:21Z</time>
      </trkpt>
      <trkpt lat="47.2346" lon="6.06853">
        <ele>407.74</ele>
        <time>2013-03-21T11:14:24Z</time>
      </trkpt>
      <trkpt lat="47.23469" lon="6.06874">
        <ele>410.14</ele>
        <time>2013-03-21T11:14:41Z</time>
      </trkpt>
      <trkpt lat="47.23478" lon="6.06895">
        <ele>412.06</ele>
        <time>2013-03-21T11:14:57Z</time>
      </trkpt>
      <trkpt lat="47.23482" lon="6.06906">
        <ele>413.5</ele>
        <time>2013-03-21T11:15:14Z</time>
      </trkpt>
      <trkpt lat="47.23482" lon="6.06906">
        <ele>413.02</ele>
        <time>2013-03-21T11:15:39Z</time>
      </trkpt>
      <trkpt lat="47.23481" lon="6.06908">
        <ele>413.5</ele>
        <time>2013-03-21T11:15:45Z</time>
      </trkpt>
      <trkpt lat="47.23483" lon="6.06916">
        <ele>413.98</ele>
        <time>2013-03-21T11:15:50Z</time>
      </trkpt>
      <trkpt lat="47.23492" lon="6.0694">
        <ele>416.39</ele>
        <time>2013-03-21T11:16:06Z</time>
      </trkpt>
      <trkpt lat="47.23493" lon="6.06941">
        <ele>416.87</ele>
        <time>2013-03-21T11:16:07Z</time>
      </trkpt>
      <trkpt lat="47.23502" lon="6.06954">
        <ele>418.31</ele>
        <time>2013-03-21T11:16:25Z</time>
      </trkpt>
      <trkpt lat="47.23502" lon="6.06954">
        <ele>418.31</ele>
        <time>2013-03-21T11:16:52Z</time>
      </trkpt>
      <trkpt lat="47.23502" lon="6.06955">
        <ele>418.31</ele>
        <time>2013-03-21T11:17:16Z</time>
      </trkpt>
      <trkpt lat="47.2351" lon="6.06971">
        <ele>420.23</ele>
        <time>2013-03-21T11:17:32Z</time>
      </trkpt>
      <trkpt lat="47.23518" lon="6.06992">
        <ele>421.68</ele>
        <time>2013-03-21T11:17:50Z</time>
      </trkpt>
      <trkpt lat="47.23528" lon="6.07014">
        <ele>424.08</ele>
        <time>2013-03-21T11:18:06Z</time>
      </trkpt>
      <trkpt lat="47.23539" lon="6.07027">
        <ele>425.52</ele>
        <time>2013-03-21T11:18:21Z</time>
      </trkpt>
      <trkpt lat="47.23542" lon="6.07034">
        <ele>426.96</ele>
        <time>2013-03-21T11:18:27Z</time>
      </trkpt>
      <trkpt lat="47.23544" lon="6.07042">
        <ele>427.92</ele>
        <time>2013-03-21T11:18:46Z</time>
      </trkpt>
      <trkpt lat="47.23537" lon="6.07064">
        <ele>429.85</ele>
        <time>2013-03-21T11:19:01Z</time>
      </trkpt>
      <trkpt lat="47.23529" lon="6.07067">
        <ele>431.29</ele>
        <time>2013-03-21T11:19:09Z</time>
      </trkpt>
      <trkpt lat="47.23513" lon="6.07057">
        <ele>432.25</ele>
        <time>2013-03-21T11:19:23Z</time>
      </trkpt>
      <trkpt lat="47.23504" lon="6.07053">
        <ele>432.25</ele>
        <time>2013-03-21T11:19:33Z</time>
      </trkpt>
      <trkpt lat="47.23497" lon="6.07052">
        <ele>433.21</ele>
        <time>2013-03-21T11:19:39Z</time>
      </trkpt>
      <trkpt lat="47.23479" lon="6.07051">
        <ele>435.13</ele>
        <time>2013-03-21T11:19:56Z</time>
      </trkpt>
      <trkpt lat="47.23461" lon="6.0705">
        <ele>437.06</ele>
        <time>2013-03-21T11:20:12Z</time>
      </trkpt>
      <trkpt lat="47.23446" lon="6.07052">
        <ele>438.02</ele>
        <time>2013-03-21T11:20:27Z</time>
      </trkpt>
      <trkpt lat="47.23426" lon="6.0705">
        <ele>438.98</ele>
        <time>2013-03-21T11:20:44Z</time>
      </trkpt>
      <trkpt lat="47.23414" lon="6.07045">
        <ele>440.42</ele>
        <time>2013-03-21T11:20:58Z</time>
      </trkpt>
      <trkpt lat="47.23402" lon="6.07037">
        <ele>441.86</ele>
        <time>2013-03-21T11:21:13Z</time>
      </trkpt>
      <trkpt lat="47.23383" lon="6.07034">
        <ele>443.31</ele>
        <time>2013-03-21T11:21:28Z</time>
      </trkpt>
      <trkpt lat="47.23381" lon="6.07047">
        <ele>444.27</ele>
        <time>2013-03-21T11:21:35Z</time>
      </trkpt>
      <trkpt lat="47.23387" lon="6.07064">
        <ele>446.19</ele>
        <time>2013-03-21T11:21:50Z</time>
      </trkpt>
      <trkpt lat="47.23394" lon="6.0708">
        <ele>447.63</ele>
        <time>2013-03-21T11:22:04Z</time>
      </trkpt>
      <trkpt lat="47.234" lon="6.071">
        <ele>449.07</ele>
        <time>2013-03-21T11:22:20Z</time>
      </trkpt>
      <trkpt lat="47.23406" lon="6.07115">
        <ele>450.52</ele>
        <time>2013-03-21T11:22:33Z</time>
      </trkpt>
      <trkpt lat="47.23408" lon="6.07123">
        <ele>451</ele>
        <time>2013-03-21T11:22:39Z</time>
      </trkpt>
      <trkpt lat="47.23413" lon="6.07144">
        <ele>452.92</ele>
        <time>2013-03-21T11:22:55Z</time>
      </trkpt>
      <trkpt lat="47.23415" lon="6.07147">
        <ele>453.4</ele>
        <time>2013-03-21T11:22:58Z</time>
      </trkpt>
      <trkpt lat="47.23418" lon="6.07152">
        <ele>453.4</ele>
        <time>2013-03-21T11:23:03Z</time>
      </trkpt>
      <trkpt lat="47.23427" lon="6.07176">
        <ele>455.8</ele>
        <time>2013-03-21T11:23:20Z</time>
      </trkpt>
      <trkpt lat="47.23433" lon="6.07194">
        <ele>456.76</ele>
        <time>2013-03-21T11:23:33Z</time>
      </trkpt>
      <trkpt lat="47.23434" lon="6.07199">
        <ele>457.24</ele>
        <time>2013-03-21T11:23:50Z</time>
      </trkpt>
      <trkpt lat="47.23434" lon="6.07199">
        <ele>457.24</ele>
        <time>2013-03-21T11:24:11Z</time>
      </trkpt>
      <trkpt lat="47.23434" lon="6.07199">
        <ele>457.72</ele>
        <time>2013-03-21T11:24:31Z</time>
      </trkpt>
      <trkpt lat="47.23435" lon="6.07204">
        <ele>458.21</ele>
        <time>2013-03-21T11:24:53Z</time>
      </trkpt>
      <trkpt lat="47.23437" lon="6.07235">
        <ele>460.13</ele>
        <time>2013-03-21T11:25:10Z</time>
      </trkpt>
      <trkpt lat="47.23439" lon="6.0726">
        <ele>461.57</ele>
        <time>2013-03-21T11:25:25Z</time>
      </trkpt>
      <trkpt lat="47.23446" lon="6.07286">
        <ele>463.49</ele>
        <time>2013-03-21T11:25:41Z</time>
      </trkpt>
      <trkpt lat="47.23446" lon="6.07295">
        <ele>464.45</ele>
        <time>2013-03-21T11:25:47Z</time>
      </trkpt>
      <trkpt lat="47.23433" lon="6.07307">
        <ele>465.42</ele>
        <time>2013-03-21T11:26:00Z</time>
      </trkpt>
      <trkpt lat="47.23414" lon="6.07312">
        <ele>468.3</ele>
        <time>2013-03-21T11:26:17Z</time>
      </trkpt>
      <trkpt lat="47.23412" lon="6.07313">
        <ele>467.82</ele>
        <time>2013-03-21T11:26:19Z</time>
      </trkpt>
      <trkpt lat="47.23407" lon="6.07318">
        <ele>469.26</ele>
        <time>2013-03-21T11:26:28Z</time>
      </trkpt>
      <trkpt lat="47.23404" lon="6.07323">
        <ele>469.26</ele>
        <time>2013-03-21T11:26:33Z</time>
      </trkpt>
      <trkpt lat="47.23397" lon="6.07355">
        <ele>472.14</ele>
        <time>2013-03-21T11:26:53Z</time>
      </trkpt>
      <trkpt lat="47.23394" lon="6.07376">
        <ele>474.07</ele>
        <time>2013-03-21T11:27:08Z</time>
      </trkpt>
      <trkpt lat="47.23394" lon="6.07399">
        <ele>475.99</ele>
        <time>2013-03-21T11:27:22Z</time>
      </trkpt>
      <trkpt lat="47.23394" lon="6.07423">
        <ele>477.43</ele>
        <time>2013-03-21T11:27:38Z</time>
      </trkpt>
      <trkpt lat="47.23394" lon="6.07449">
        <ele>478.87</ele>
        <time>2013-03-21T11:27:54Z</time>
      </trkpt>
      <trkpt lat="47.23393" lon="6.0746">
        <ele>479.84</ele>
        <time>2013-03-21T11:28:09Z</time>
      </trkpt>
      <trkpt lat="47.23392" lon="6.07462">
        <ele>480.32</ele>
        <time>2013-03-21T11:28:29Z</time>
      </trkpt>
      <trkpt lat="47.23392" lon="6.07462">
        <ele>480.32</ele>
        <time>2013-03-21T11:28:57Z</time>
      </trkpt>
      <trkpt lat="47.23391" lon="6.07477">
        <ele>481.28</ele>
        <time>2013-03-21T11:29:11Z</time>
      </trkpt>
      <trkpt lat="47.23391" lon="6.0748">
        <ele>480.8</ele>
        <time>2013-03-21T11:29:13Z</time>
      </trkpt>
      <trkpt lat="47.23393" lon="6.07495">
        <ele>481.76</ele>
        <time>2013-03-21T11:29:26Z</time>
      </trkpt>
      <trkpt lat="47.23393" lon="6.07514">
        <ele>482.24</ele>
        <time>2013-03-21T11:29:42Z</time>
      </trkpt>
      <trkpt lat="47.23394" lon="6.07521">
        <ele>482.24</ele>
        <time>2013-03-21T11:29:47Z</time>
      </trkpt>
      <trkpt lat="47.23393" lon="6.07544">
        <ele>483.2</ele>
        <time>2013-03-21T11:30:03Z</time>
      </trkpt>
      <trkpt lat="47.23388" lon="6.07569">
        <ele>484.16</ele>
        <time>2013-03-21T11:30:19Z</time>
      </trkpt>
      <trkpt lat="47.23388" lon="6.0757">
        <ele>483.68</ele>
        <time>2013-03-21T11:30:20Z</time>
      </trkpt>
      <trkpt lat="47.23383" lon="6.07595">
        <ele>484.64</ele>
        <time>2013-03-21T11:30:36Z</time>
      </trkpt>
      <trkpt lat="47.23386" lon="6.07612">
        <ele>485.12</ele>
        <time>2013-03-21T11:30:48Z</time>
      </trkpt>
      <trkpt lat="47.23398" lon="6.07617">
        <ele>486.08</ele>
        <time>2013-03-21T11:31:00Z</time>
      </trkpt>
      <trkpt lat="47.23405" lon="6.07618">
        <ele>486.08</ele>
        <time>2013-03-21T11:31:05Z</time>
      </trkpt>
      <trkpt lat="47.23411" lon="6.07622">
        <ele>486.56</ele>
        <time>2013-03-21T11:31:22Z</time>
      </trkpt>
      <trkpt lat="47.23423" lon="6.07632">
        <ele>488.01</ele>
        <time>2013-03-21T11:31:37Z</time>
      </trkpt>
      <trkpt lat="47.23428" lon="6.07644">
        <ele>488.97</ele>
        <time>2013-03-21T11:31:53Z</time>
      </trkpt>
      <trkpt lat="47.23428" lon="6.07648">
        <ele>488.97</ele>
        <time>2013-03-21T11:31:56Z</time>
      </trkpt>
      <trkpt lat="47.23423" lon="6.07662">
        <ele>489.93</ele>
        <time>2013-03-21T11:32:07Z</time>
      </trkpt>
      <trkpt lat="47.23416" lon="6.07684">
        <ele>490.89</ele>
        <time>2013-03-21T11:32:23Z</time>
      </trkpt>
      <trkpt lat="47.23417" lon="6.07695">
        <ele>491.85</ele>
        <time>2013-03-21T11:32:35Z</time>
      </trkpt>
      <trkpt lat="47.23421" lon="6.07698">
        <ele>490.89</ele>
        <time>2013-03-21T11:32:39Z</time>
      </trkpt>
      <trkpt lat="47.23434" lon="6.07718">
        <ele>491.37</ele>
        <time>2013-03-21T11:32:54Z</time>
      </trkpt>
      <trkpt lat="47.2345" lon="6.07728">
        <ele>490.41</ele>
        <time>2013-03-21T11:33:10Z</time>
      </trkpt>
      <trkpt lat="47.23459" lon="6.07743">
        <ele>489.45</ele>
        <time>2013-03-21T11:33:24Z</time>
      </trkpt>
      <trkpt lat="47.23478" lon="6.07754">
        <ele>488.49</ele>
        <time>2013-03-21T11:33:39Z</time>
      </trkpt>
      <trkpt lat="47.23495" lon="6.0777">
        <ele>489.45</ele>
        <time>2013-03-21T11:33:56Z</time>
      </trkpt>
      <trkpt lat="47.23513" lon="6.07778">
        <ele>490.41</ele>
        <time>2013-03-21T11:34:13Z</time>
      </trkpt>
      <trkpt lat="47.23526" lon="6.0779">
        <ele>491.37</ele>
        <time>2013-03-21T11:34:28Z</time>
      </trkpt>
      <trkpt lat="47.23527" lon="6.07803">
        <ele>493.29</ele>
        <time>2013-03-21T11:34:42Z</time>
      </trkpt>
      <trkpt lat="47.23529" lon="6.0782">
        <ele>495.22</ele>
        <time>2013-03-21T11:34:56Z</time>
      </trkpt>
      <trkpt lat="47.23531" lon="6.07841">
        <ele>497.62</ele>
        <time>2013-03-21T11:35:11Z</time>
      </trkpt>
      <trkpt lat="47.23533" lon="6.07859">
        <ele>499.06</ele>
        <time>2013-03-21T11:35:26Z</time>
      </trkpt>
      <trkpt lat="47.23535" lon="6.07871">
        <ele>501.46</ele>
        <time>2013-03-21T11:35:41Z</time>
      </trkpt>
      <trkpt lat="47.23525" lon="6.0788">
        <ele>502.91</ele>
        <time>2013-03-21T11:35:55Z</time>
      </trkpt>
      <trkpt lat="47.23523" lon="6.07882">
        <ele>503.39</ele>
        <time>2013-03-21T11:35:57Z</time>
      </trkpt>
      <trkpt lat="47.23511" lon="6.07901">
        <ele>505.31</ele>
        <time>2013-03-21T11:36:13Z</time>
      </trkpt>
      <trkpt lat="47.23509" lon="6.07903">
        <ele>504.83</ele>
        <time>2013-03-21T11:36:16Z</time>
      </trkpt>
      <trkpt lat="47.23501" lon="6.07924">
        <ele>506.75</ele>
        <time>2013-03-21T11:36:32Z</time>
      </trkpt>
      <trkpt lat="47.23502" lon="6.0794">
        <ele>507.71</ele>
        <time>2013-03-21T11:36:46Z</time>
      </trkpt>
      <trkpt lat="47.23503" lon="6.07942">
        <ele>507.71</ele>
        <time>2013-03-21T11:36:47Z</time>
      </trkpt>
      <trkpt lat="47.23506" lon="6.07957">
        <ele>508.67</ele>
        <time>2013-03-21T11:37:04Z</time>
      </trkpt>
      <trkpt lat="47.23505" lon="6.07959">
        <ele>509.64</ele>
        <time>2013-03-21T11:37:29Z</time>
      </trkpt>
      <trkpt lat="47.23505" lon="6.07963">
        <ele>510.12</ele>
        <time>2013-03-21T11:37:32Z</time>
      </trkpt>
      <trkpt lat="47.23505" lon="6.07972">
        <ele>510.6</ele>
        <time>2013-03-21T11:37:37Z</time>
      </trkpt>
      <trkpt lat="47.23509" lon="6.07979">
        <ele>512.04</ele>
        <time>2013-03-21T11:37:43Z</time>
      </trkpt>
      <trkpt lat="47.23524" lon="6.0799">
        <ele>513.96</ele>
        <time>2013-03-21T11:38:00Z</time>
      </trkpt>
      <trkpt lat="47.23535" lon="6.08001">
        <ele>516.37</ele>
        <time>2013-03-21T11:38:15Z</time>
      </trkpt>
      <trkpt lat="47.23535" lon="6.08001">
        <ele>517.81</ele>
        <time>2013-03-21T11:38:38Z</time>
      </trkpt>
      <trkpt lat="47.2355" lon="6.07989">
        <ele>518.29</ele>
        <time>2013-03-21T11:38:53Z</time>
      </trkpt>
      <trkpt lat="47.23553" lon="6.07992">
        <ele>518.77</ele>
        <time>2013-03-21T11:38:55Z</time>
      </trkpt>
      <trkpt lat="47.23567" lon="6.07997">
        <ele>520.69</ele>
        <time>2013-03-21T11:39:03Z</time>
      </trkpt>
      <trkpt lat="47.2357" lon="6.07997">
        <ele>521.17</ele>
        <time>2013-03-21T11:39:05Z</time>
      </trkpt>
      <trkpt lat="47.23589" lon="6.08013">
        <ele>524.06</ele>
        <time>2013-03-21T11:39:23Z</time>
      </trkpt>
      <trkpt lat="47.236" lon="6.08026">
        <ele>525.98</ele>
        <time>2013-03-21T11:39:37Z</time>
      </trkpt>
      <trkpt lat="47.23607" lon="6.08042">
        <ele>527.9</ele>
        <time>2013-03-21T11:39:52Z</time>
      </trkpt>
      <trkpt lat="47.2362" lon="6.08052">
        <ele>529.82</ele>
        <time>2013-03-21T11:40:07Z</time>
      </trkpt>
      <trkpt lat="47.23624" lon="6.08054">
        <ele>530.79</ele>
        <time>2013-03-21T11:40:22Z</time>
      </trkpt>
      <trkpt lat="47.23631" lon="6.0806">
        <ele>531.27</ele>
        <time>2013-03-21T11:40:43Z</time>
      </trkpt>
      <trkpt lat="47.23643" lon="6.08076">
        <ele>533.19</ele>
        <time>2013-03-21T11:41:00Z</time>
      </trkpt>
      <trkpt lat="47.23647" lon="6.08086">
        <ele>534.15</ele>
        <time>2013-03-21T11:41:07Z</time>
      </trkpt>
      <trkpt lat="47.23653" lon="6.08107">
        <ele>535.11</ele>
        <time>2013-03-21T11:41:22Z</time>
      </trkpt>
      <trkpt lat="47.23658" lon="6.08135">
        <ele>536.55</ele>
        <time>2013-03-21T11:41:40Z</time>
      </trkpt>
      <trkpt lat="47.2366" lon="6.08141">
        <ele>537.03</ele>
        <time>2013-03-21T11:41:45Z</time>
      </trkpt>
      <trkpt lat="47.23661" lon="6.08151">
        <ele>537.03</ele>
        <time>2013-03-21T11:41:55Z</time>
      </trkpt>
      <trkpt lat="47.23662" lon="6.08156">
        <ele>536.55</ele>
        <time>2013-03-21T11:41:58Z</time>
      </trkpt>
      <trkpt lat="47.23665" lon="6.08159">
        <ele>536.55</ele>
        <time>2013-03-21T11:42:00Z</time>
      </trkpt>
      <trkpt lat="47.23678" lon="6.0818">
        <ele>538.48</ele>
        <time>2013-03-21T11:42:17Z</time>
      </trkpt>
      <trkpt lat="47.23693" lon="6.08204">
        <ele>539.92</ele>
        <time>2013-03-21T11:42:35Z</time>
      </trkpt>
      <trkpt lat="47.23709" lon="6.08222">
        <ele>541.84</ele>
        <time>2013-03-21T11:42:53Z</time>
      </trkpt>
      <trkpt lat="47.23724" lon="6.08241">
        <ele>543.76</ele>
        <time>2013-03-21T11:43:10Z</time>
      </trkpt>
      <trkpt lat="47.23737" lon="6.08258">
        <ele>545.2</ele>
        <time>2013-03-21T11:43:25Z</time>
      </trkpt>
      <trkpt lat="47.23739" lon="6.08258">
        <ele>545.69</ele>
        <time>2013-03-21T11:43:41Z</time>
      </trkpt>
      <trkpt lat="47.23744" lon="6.08258">
        <ele>546.65</ele>
        <time>2013-03-21T11:44:02Z</time>
      </trkpt>
      <trkpt lat="47.23744" lon="6.08258">
        <ele>547.13</ele>
        <time>2013-03-21T11:44:04Z</time>
      </trkpt>
      <trkpt lat="47.23757" lon="6.08253">
        <ele>548.09</ele>
        <time>2013-03-21T11:44:13Z</time>
      </trkpt>
      <trkpt lat="47.23772" lon="6.0825">
        <ele>550.01</ele>
        <time>2013-03-21T11:44:29Z</time>
      </trkpt>
      <trkpt lat="47.23774" lon="6.0825">
        <ele>550.97</ele>
        <time>2013-03-21T11:44:52Z</time>
      </trkpt>
      <trkpt lat="47.2379" lon="6.08247">
        <ele>553.86</ele>
        <time>2013-03-21T11:45:10Z</time>
      </trkpt>
      <trkpt lat="47.23796" lon="6.08242">
        <ele>554.34</ele>
        <time>2013-03-21T11:45:26Z</time>
      </trkpt>
      <trkpt lat="47.23808" lon="6.08238">
        <ele>556.26</ele>
        <time>2013-03-21T11:45:42Z</time>
      </trkpt>
      <trkpt lat="47.23809" lon="6.08239">
        <ele>556.74</ele>
        <time>2013-03-21T11:45:43Z</time>
      </trkpt>
      <trkpt lat="47.23822" lon="6.08239">
        <ele>558.18</ele>
        <time>2013-03-21T11:45:59Z</time>
      </trkpt>
      <trkpt lat="47.23834" lon="6.08242">
        <ele>560.11</ele>
        <time>2013-03-21T11:46:15Z</time>
      </trkpt>
      <trkpt lat="47.23842" lon="6.08247">
        <ele>560.59</ele>
        <time>2013-03-21T11:46:29Z</time>
      </trkpt>
      <trkpt lat="47.2385" lon="6.08263">
        <ele>562.51</ele>
        <time>2013-03-21T11:46:45Z</time>
      </trkpt>
      <trkpt lat="47.23854" lon="6.08268">
        <ele>562.99</ele>
        <time>2013-03-21T11:46:51Z</time>
      </trkpt>
      <trkpt lat="47.23858" lon="6.08284">
        <ele>562.51</ele>
        <time>2013-03-21T11:47:04Z</time>
      </trkpt>
      <trkpt lat="47.23858" lon="6.08289">
        <ele>562.51</ele>
        <time>2013-03-21T11:47:07Z</time>
      </trkpt>
      <trkpt lat="47.23857" lon="6.08293">
        <ele>562.51</ele>
        <time>2013-03-21T11:47:11Z</time>
      </trkpt>
      <trkpt lat="47.23863" lon="6.08313">
        <ele>562.03</ele>
        <time>2013-03-21T11:47:26Z</time>
      </trkpt>
      <trkpt lat="47.23866" lon="6.08326">
        <ele>562.51</ele>
        <time>2013-03-21T11:47:39Z</time>
      </trkpt>
      <trkpt lat="47.23858" lon="6.08321">
        <ele>560.11</ele>
        <time>2013-03-21T11:47:53Z</time>
      </trkpt>
      <trkpt lat="47.23848" lon="6.08309">
        <ele>559.62</ele>
        <time>2013-03-21T11:48:08Z</time>
      </trkpt>
      <trkpt lat="47.23838" lon="6.08298">
        <ele>557.7</ele>
        <time>2013-03-21T11:48:23Z</time>
      </trkpt>
      <trkpt lat="47.23829" lon="6.08309">
        <ele>555.78</ele>
        <time>2013-03-21T11:48:39Z</time>
      </trkpt>
      <trkpt lat="47.23826" lon="6.08315">
        <ele>555.3</ele>
        <time>2013-03-21T11:48:53Z</time>
      </trkpt>
      <trkpt lat="47.23826" lon="6.08315">
        <ele>555.3</ele>
        <time>2013-03-21T11:49:09Z</time>
      </trkpt>
      <trkpt lat="47.23827" lon="6.08316">
        <ele>554.82</ele>
        <time>2013-03-21T11:49:34Z</time>
      </trkpt>
      <trkpt lat="47.23826" lon="6.08316">
        <ele>555.3</ele>
        <time>2013-03-21T11:50:03Z</time>
      </trkpt>
      <trkpt lat="47.23826" lon="6.08316">
        <ele>554.82</ele>
        <time>2013-03-21T11:50:21Z</time>
      </trkpt>
      <trkpt lat="47.2382" lon="6.08323">
        <ele>555.3</ele>
        <time>2013-03-21T11:50:44Z</time>
      </trkpt>
      <trkpt lat="47.23821" lon="6.08323">
        <ele>555.3</ele>
        <time>2013-03-21T11:51:10Z</time>
      </trkpt>
      <trkpt lat="47.23824" lon="6.08323">
        <ele>551.93</ele>
        <time>2013-03-21T11:51:24Z</time>
      </trkpt>
      <trkpt lat="47.23824" lon="6.08323">
        <ele>555.78</ele>
        <time>2013-03-21T11:51:25Z</time>
      </trkpt>
      <trkpt lat="47.23823" lon="6.08323">
        <ele>555.3</ele>
        <time>2013-03-21T11:51:26Z</time>
      </trkpt>
      <trkpt lat="47.23822" lon="6.08322">
        <ele>546.65</ele>
        <time>2013-03-21T11:51:29Z</time>
      </trkpt>
      <trkpt lat="47.23822" lon="6.08322">
        <ele>549.53</ele>
        <time>2013-03-21T11:51:30Z</time>
      </trkpt>
      <trkpt lat="47.23821" lon="6.08322">
        <ele>557.22</ele>
        <time>2013-03-21T11:51:31Z</time>
      </trkpt>
      <trkpt lat="47.23821" lon="6.08322">
        <ele>554.82</ele>
        <time>2013-03-21T11:51:32Z</time>
      </trkpt>
      <trkpt lat="47.2382" lon="6.08322">
        <ele>558.18</ele>
        <time>2013-03-21T11:51:33Z</time>
      </trkpt>
      <trkpt lat="47.2382" lon="6.08321">
        <ele>550.97</ele>
        <time>2013-03-21T11:51:34Z</time>
      </trkpt>
      <trkpt lat="47.23819" lon="6.08321">
        <ele>555.3</ele>
        <time>2013-03-21T11:51:35Z</time>
      </trkpt>
      <trkpt lat="47.23834" lon="6.08338">
        <ele>554.82</ele>
        <time>2013-03-21T12:02:20Z</time>
      </trkpt>
      <trkpt lat="47.23823" lon="6.08341">
        <ele>553.86</ele>
        <time>2013-03-21T12:02:46Z</time>
      </trkpt>
      <trkpt lat="47.23819" lon="6.08343">
        <ele>554.34</ele>
        <time>2013-03-21T12:03:12Z</time>
      </trkpt>
      <trkpt lat="47.23826" lon="6.08341">
        <ele>554.34</ele>
        <time>2013-03-21T12:03:24Z</time>
      </trkpt>
      <trkpt lat="47.2383" lon="6.0834">
        <ele>554.34</ele>
        <time>2013-03-21T12:03:28Z</time>
      </trkpt>
      <trkpt lat="47.2383" lon="6.08333">
        <ele>554.82</ele>
        <time>2013-03-21T12:03:51Z</time>
      </trkpt>
      <trkpt lat="47.23829" lon="6.08328">
        <ele>555.3</ele>
        <time>2013-03-21T12:04:15Z</time>
      </trkpt>
      <trkpt lat="47.23827" lon="6.08329">
        <ele>554.82</ele>
        <time>2013-03-21T12:04:18Z</time>
      </trkpt>
      <trkpt lat="47.23806" lon="6.08344">
        <ele>555.3</ele>
        <time>2013-03-21T12:04:42Z</time>
      </trkpt>
      <trkpt lat="47.23802" lon="6.08352">
        <ele>555.3</ele>
        <time>2013-03-21T12:04:49Z</time>
      </trkpt>
      <trkpt lat="47.23763" lon="6.0841">
        <ele>555.3</ele>
        <time>2013-03-21T12:05:37Z</time>
      </trkpt>
      <trkpt lat="47.23763" lon="6.0841">
        <ele>554.82</ele>
        <time>2013-03-21T12:05:57Z</time>
      </trkpt>
      <trkpt lat="47.2377" lon="6.08395">
        <ele>555.3</ele>
        <time>2013-03-21T12:06:16Z</time>
      </trkpt>
      <trkpt lat="47.23771" lon="6.08399">
        <ele>554.82</ele>
        <time>2013-03-21T12:06:32Z</time>
      </trkpt>
      <trkpt lat="47.23764" lon="6.08407">
        <ele>555.3</ele>
        <time>2013-03-21T12:06:52Z</time>
      </trkpt>
      <trkpt lat="47.23799" lon="6.08372">
        <ele>555.3</ele>
        <time>2013-03-21T12:07:09Z</time>
      </trkpt>
      <trkpt lat="47.23788" lon="6.08389">
        <ele>554.82</ele>
        <time>2013-03-21T12:07:33Z</time>
      </trkpt>
      <trkpt lat="47.23768" lon="6.08424">
        <ele>554.82</ele>
        <time>2013-03-21T12:08:00Z</time>
      </trkpt>
      <trkpt lat="47.23763" lon="6.0843">
        <ele>554.82</ele>
        <time>2013-03-21T12:08:24Z</time>
      </trkpt>
      <trkpt lat="47.23763" lon="6.0843">
        <ele>554.82</ele>
        <time>2013-03-21T12:08:51Z</time>
      </trkpt>
      <trkpt lat="47.23764" lon="6.08426">
        <ele>554.82</ele>
        <time>2013-03-21T12:09:02Z</time>
      </trkpt>
      <trkpt lat="47.23772" lon="6.0841">
        <ele>554.34</ele>
        <time>2013-03-21T12:09:31Z</time>
      </trkpt>
      <trkpt lat="47.23784" lon="6.08393">
        <ele>554.34</ele>
        <time>2013-03-21T12:09:56Z</time>
      </trkpt>
      <trkpt lat="47.23808" lon="6.08357">
        <ele>554.34</ele>
        <time>2013-03-21T12:10:07Z</time>
      </trkpt>
      <trkpt lat="47.23817" lon="6.08349">
        <ele>554.82</ele>
        <time>2013-03-21T12:10:12Z</time>
      </trkpt>
      <trkpt lat="47.23838" lon="6.08321">
        <ele>554.82</ele>
        <time>2013-03-21T12:10:31Z</time>
      </trkpt>
      <trkpt lat="47.2384" lon="6.08315">
        <ele>555.3</ele>
        <time>2013-03-21T12:10:34Z</time>
      </trkpt>
      <trkpt lat="47.2384" lon="6.08309">
        <ele>554.34</ele>
        <time>2013-03-21T12:10:54Z</time>
      </trkpt>
      <trkpt lat="47.23837" lon="6.08313">
        <ele>554.82</ele>
        <time>2013-03-21T12:10:57Z</time>
      </trkpt>
      <trkpt lat="47.23836" lon="6.08315">
        <ele>554.82</ele>
        <time>2013-03-21T12:11:04Z</time>
      </trkpt>
      <trkpt lat="47.23832" lon="6.08318">
        <ele>554.34</ele>
        <time>2013-03-21T12:11:23Z</time>
      </trkpt>
      <trkpt lat="47.23828" lon="6.08319">
        <ele>554.82</ele>
        <time>2013-03-21T12:11:49Z</time>
      </trkpt>
      <trkpt lat="47.23828" lon="6.08319">
        <ele>554.34</ele>
        <time>2013-03-21T12:13:02Z</time>
      </trkpt>
      <trkpt lat="47.23832" lon="6.08313">
        <ele>555.3</ele>
        <time>2013-03-21T12:13:09Z</time>
      </trkpt>
      <trkpt lat="47.23845" lon="6.08302">
        <ele>555.3</ele>
        <time>2013-03-21T12:13:33Z</time>
      </trkpt>
      <trkpt lat="47.23841" lon="6.08307">
        <ele>555.3</ele>
        <time>2013-03-21T12:14:00Z</time>
      </trkpt>
      <trkpt lat="47.23841" lon="6.08308">
        <ele>554.82</ele>
        <time>2013-03-21T12:14:25Z</time>
      </trkpt>
      <trkpt lat="47.23846" lon="6.08302">
        <ele>554.82</ele>
        <time>2013-03-21T12:14:52Z</time>
      </trkpt>
      <trkpt lat="47.23846" lon="6.08302">
        <ele>554.82</ele>
        <time>2013-03-21T12:15:21Z</time>
      </trkpt>
      <trkpt lat="47.23846" lon="6.08303">
        <ele>554.82</ele>
        <time>2013-03-21T12:16:00Z</time>
      </trkpt>
      <trkpt lat="47.23846" lon="6.08302">
        <ele>554.82</ele>
        <time>2013-03-21T12:16:29Z</time>
      </trkpt>
      <trkpt lat="47.23845" lon="6.08307">
        <ele>554.82</ele>
        <time>2013-03-21T12:16:48Z</time>
      </trkpt>
      <trkpt lat="47.23838" lon="6.08328">
        <ele>554.82</ele>
        <time>2013-03-21T12:17:16Z</time>
      </trkpt>
      <trkpt lat="47.23834" lon="6.08334">
        <ele>554.82</ele>
        <time>2013-03-21T12:17:42Z</time>
      </trkpt>
      <trkpt lat="47.23829" lon="6.08342">
        <ele>554.82</ele>
        <time>2013-03-21T12:18:11Z</time>
      </trkpt>
      <trkpt lat="47.23822" lon="6.08353">
        <ele>554.34</ele>
        <time>2013-03-21T12:18:25Z</time>
      </trkpt>
      <trkpt lat="47.23819" lon="6.08363">
        <ele>555.3</ele>
        <time>2013-03-21T12:18:50Z</time>
      </trkpt>
      <trkpt lat="47.23817" lon="6.08363">
        <ele>555.3</ele>
        <time>2013-03-21T12:19:02Z</time>
      </trkpt>
      <trkpt lat="47.23821" lon="6.08355">
        <ele>557.7</ele>
        <time>2013-03-21T12:19:15Z</time>
      </trkpt>
      <trkpt lat="47.23821" lon="6.08355">
        <ele>553.38</ele>
        <time>2013-03-21T12:19:16Z</time>
      </trkpt>
      <trkpt lat="47.23825" lon="6.08347">
        <ele>556.74</ele>
        <time>2013-03-21T12:19:27Z</time>
      </trkpt>
      <trkpt lat="47.23829" lon="6.08341">
        <ele>554.82</ele>
        <time>2013-03-21T12:19:54Z</time>
      </trkpt>
      <trkpt lat="47.23827" lon="6.08341">
        <ele>554.82</ele>
        <time>2013-03-21T12:20:20Z</time>
      </trkpt>
      <trkpt lat="47.23861" lon="6.08337">
        <ele>556.26</ele>
        <time>2013-03-21T12:26:19Z</time>
      </trkpt>
      <trkpt lat="47.23856" lon="6.08335">
        <ele>556.26</ele>
        <time>2013-03-21T12:26:21Z</time>
      </trkpt>
      <trkpt lat="47.23847" lon="6.08329">
        <ele>556.26</ele>
        <time>2013-03-21T12:26:34Z</time>
      </trkpt>
      <trkpt lat="47.23853" lon="6.08332">
        <ele>556.26</ele>
        <time>2013-03-21T12:26:57Z</time>
      </trkpt>
      <trkpt lat="47.23838" lon="6.08329">
        <ele>556.26</ele>
        <time>2013-03-21T12:27:24Z</time>
      </trkpt>
      <trkpt lat="47.23824" lon="6.08323">
        <ele>556.26</ele>
        <time>2013-03-21T12:27:48Z</time>
      </trkpt>
      <trkpt lat="47.23819" lon="6.08325">
        <ele>556.26</ele>
        <time>2013-03-21T12:27:57Z</time>
      </trkpt>
      <trkpt lat="47.23808" lon="6.08321">
        <ele>556.26</ele>
        <time>2013-03-21T12:28:17Z</time>
      </trkpt>
      <trkpt lat="47.23816" lon="6.08325">
        <ele>555.78</ele>
        <time>2013-03-21T12:28:43Z</time>
      </trkpt>
      <trkpt lat="47.23818" lon="6.08327">
        <ele>555.78</ele>
        <time>2013-03-21T12:28:58Z</time>
      </trkpt>
      <trkpt lat="47.23821" lon="6.08327">
        <ele>556.26</ele>
        <time>2013-03-21T12:29:00Z</time>
      </trkpt>
      <trkpt lat="47.23827" lon="6.08323">
        <ele>556.26</ele>
        <time>2013-03-21T12:29:23Z</time>
      </trkpt>
      <trkpt lat="47.23832" lon="6.08331">
        <ele>556.26</ele>
        <time>2013-03-21T12:29:35Z</time>
      </trkpt>
      <trkpt lat="47.23831" lon="6.08328">
        <ele>556.74</ele>
        <time>2013-03-21T12:29:48Z</time>
      </trkpt>
      <trkpt lat="47.23832" lon="6.08331">
        <ele>556.74</ele>
        <time>2013-03-21T12:30:10Z</time>
      </trkpt>
      <trkpt lat="47.23832" lon="6.08331">
        <ele>556.74</ele>
        <time>2013-03-21T12:30:35Z</time>
      </trkpt>
      <trkpt lat="47.23832" lon="6.08331">
        <ele>556.74</ele>
        <time>2013-03-21T12:30:40Z</time>
      </trkpt>
      <trkpt lat="47.23831" lon="6.0833">
        <ele>556.74</ele>
        <time>2013-03-21T12:30:42Z</time>
      </trkpt>
      <trkpt lat="47.23832" lon="6.08322">
        <ele>558.18</ele>
        <time>2013-03-21T12:31:02Z</time>
      </trkpt>
      <trkpt lat="47.23832" lon="6.08322">
        <ele>556.74</ele>
        <time>2013-03-21T12:31:04Z</time>
      </trkpt>
      <trkpt lat="47.23832" lon="6.08322">
        <ele>556.74</ele>
        <time>2013-03-21T12:31:40Z</time>
      </trkpt>
      <trkpt lat="47.23832" lon="6.08322">
        <ele>555.3</ele>
        <time>2013-03-21T12:31:42Z</time>
      </trkpt>
      <trkpt lat="47.23832" lon="6.08322">
        <ele>552.9</ele>
        <time>2013-03-21T12:31:49Z</time>
      </trkpt>
      <trkpt lat="47.23832" lon="6.08322">
        <ele>551.93</ele>
        <time>2013-03-21T12:31:50Z</time>
      </trkpt>
      <trkpt lat="47.23832" lon="6.08322">
        <ele>556.74</ele>
        <time>2013-03-21T12:31:51Z</time>
      </trkpt>
      <trkpt lat="47.23832" lon="6.08322">
        <ele>553.38</ele>
        <time>2013-03-21T12:31:56Z</time>
      </trkpt>
      <trkpt lat="47.23832" lon="6.08322">
        <ele>556.26</ele>
        <time>2013-03-21T12:31:57Z</time>
      </trkpt>
      <trkpt lat="47.23832" lon="6.08322">
        <ele>554.34</ele>
        <time>2013-03-21T12:31:59Z</time>
      </trkpt>
      <trkpt lat="47.23832" lon="6.08322">
        <ele>556.74</ele>
        <time>2013-03-21T12:32:01Z</time>
      </trkpt>
      <trkpt lat="47.23832" lon="6.08322">
        <ele>554.34</ele>
        <time>2013-03-21T12:32:03Z</time>
      </trkpt>
      <trkpt lat="47.23832" lon="6.08322">
        <ele>557.22</ele>
        <time>2013-03-21T12:32:04Z</time>
      </trkpt>
      <trkpt lat="47.23833" lon="6.08322">
        <ele>552.9</ele>
        <time>2013-03-21T12:32:07Z</time>
      </trkpt>
      <trkpt lat="47.23834" lon="6.08322">
        <ele>556.26</ele>
        <time>2013-03-21T12:32:08Z</time>
      </trkpt>
      <trkpt lat="47.23837" lon="6.08324">
        <ele>553.38</ele>
        <time>2013-03-21T12:32:16Z</time>
      </trkpt>
      <trkpt lat="47.23838" lon="6.08324">
        <ele>553.86</ele>
        <time>2013-03-21T12:32:17Z</time>
      </trkpt>
      <trkpt lat="47.23837" lon="6.08324">
        <ele>556.26</ele>
        <time>2013-03-21T12:32:18Z</time>
      </trkpt>
      <trkpt lat="47.23838" lon="6.08325">
        <ele>558.18</ele>
        <time>2013-03-21T12:32:24Z</time>
      </trkpt>
      <trkpt lat="47.23838" lon="6.08325">
        <ele>554.82</ele>
        <time>2013-03-21T12:32:25Z</time>
      </trkpt>
      <trkpt lat="47.23838" lon="6.08325">
        <ele>555.3</ele>
        <time>2013-03-21T12:32:27Z</time>
      </trkpt>
      <trkpt lat="47.23839" lon="6.08325">
        <ele>557.7</ele>
        <time>2013-03-21T12:32:29Z</time>
      </trkpt>
      <trkpt lat="47.23839" lon="6.08325">
        <ele>556.26</ele>
        <time>2013-03-21T12:32:30Z</time>
      </trkpt>
      <trkpt lat="47.23839" lon="6.08325">
        <ele>554.34</ele>
        <time>2013-03-21T12:32:31Z</time>
      </trkpt>
      <trkpt lat="47.23839" lon="6.08325">
        <ele>552.9</ele>
        <time>2013-03-21T12:32:33Z</time>
      </trkpt>
      <trkpt lat="47.23839" lon="6.08325">
        <ele>558.18</ele>
        <time>2013-03-21T12:32:34Z</time>
      </trkpt>
      <trkpt lat="47.23839" lon="6.08325">
        <ele>556.74</ele>
        <time>2013-03-21T12:32:35Z</time>
      </trkpt>
      <trkpt lat="47.23839" lon="6.08325">
        <ele>552.9</ele>
        <time>2013-03-21T12:32:36Z</time>
      </trkpt>
      <trkpt lat="47.23839" lon="6.08325">
        <ele>560.11</ele>
        <time>2013-03-21T12:32:37Z</time>
      </trkpt>
      <trkpt lat="47.23839" lon="6.08325">
        <ele>556.74</ele>
        <time>2013-03-21T12:32:38Z</time>
      </trkpt>
      <trkpt lat="47.23839" lon="6.08324">
        <ele>551.45</ele>
        <time>2013-03-21T12:32:39Z</time>
      </trkpt>
      <trkpt lat="47.23839" lon="6.08324">
        <ele>558.66</ele>
        <time>2013-03-21T12:32:40Z</time>
      </trkpt>
      <trkpt lat="47.23839" lon="6.08325">
        <ele>554.82</ele>
        <time>2013-03-21T12:32:42Z</time>
      </trkpt>
      <trkpt lat="47.23839" lon="6.08325">
        <ele>557.22</ele>
        <time>2013-03-21T12:32:43Z</time>
      </trkpt>
      <trkpt lat="47.23839" lon="6.08325">
        <ele>552.41</ele>
        <time>2013-03-21T12:32:44Z</time>
      </trkpt>
      <trkpt lat="47.23839" lon="6.08325">
        <ele>558.66</ele>
        <time>2013-03-21T12:32:45Z</time>
      </trkpt>
      <trkpt lat="47.23839" lon="6.08325">
        <ele>556.74</ele>
        <time>2013-03-21T12:32:46Z</time>
      </trkpt>
      <trkpt lat="47.23839" lon="6.08325">
        <ele>559.62</ele>
        <time>2013-03-21T12:32:49Z</time>
      </trkpt>
      <trkpt lat="47.23839" lon="6.08325">
        <ele>553.86</ele>
        <time>2013-03-21T12:32:50Z</time>
      </trkpt>
      <trkpt lat="47.23839" lon="6.08325">
        <ele>555.3</ele>
        <time>2013-03-21T12:32:51Z</time>
      </trkpt>
      <trkpt lat="47.2384" lon="6.08324">
        <ele>558.66</ele>
        <time>2013-03-21T12:33:00Z</time>
      </trkpt>
      <trkpt lat="47.2384" lon="6.08323">
        <ele>553.86</ele>
        <time>2013-03-21T12:33:01Z</time>
      </trkpt>
      <trkpt lat="47.2384" lon="6.08323">
        <ele>556.74</ele>
        <time>2013-03-21T12:33:02Z</time>
      </trkpt>
      <trkpt lat="47.23841" lon="6.08322">
        <ele>556.26</ele>
        <time>2013-03-21T12:33:05Z</time>
      </trkpt>
      <trkpt lat="47.23852" lon="6.08317">
        <ele>556.74</ele>
        <time>2013-03-21T12:33:24Z</time>
      </trkpt>
      <trkpt lat="47.23851" lon="6.08318">
        <ele>556.74</ele>
        <time>2013-03-21T12:33:25Z</time>
      </trkpt>
      <trkpt lat="47.23839" lon="6.0832">
        <ele>551.93</ele>
        <time>2013-03-21T12:33:46Z</time>
      </trkpt>
      <trkpt lat="47.23839" lon="6.0832">
        <ele>551.93</ele>
        <time>2013-03-21T12:33:49Z</time>
      </trkpt>
      <trkpt lat="47.23839" lon="6.0832">
        <ele>557.7</ele>
        <time>2013-03-21T12:33:50Z</time>
      </trkpt>
      <trkpt lat="47.23839" lon="6.0832">
        <ele>556.26</ele>
        <time>2013-03-21T12:33:51Z</time>
      </trkpt>
      <trkpt lat="47.23839" lon="6.0832">
        <ele>558.18</ele>
        <time>2013-03-21T12:33:52Z</time>
      </trkpt>
      <trkpt lat="47.23839" lon="6.0832">
        <ele>552.41</ele>
        <time>2013-03-21T12:33:53Z</time>
      </trkpt>
      <trkpt lat="47.23839" lon="6.0832">
        <ele>552.9</ele>
        <time>2013-03-21T12:33:54Z</time>
      </trkpt>
      <trkpt lat="47.23839" lon="6.0832">
        <ele>556.26</ele>
        <time>2013-03-21T12:33:55Z</time>
      </trkpt>
      <trkpt lat="47.2384" lon="6.0832">
        <ele>557.7</ele>
        <time>2013-03-21T12:33:56Z</time>
      </trkpt>
      <trkpt lat="47.2384" lon="6.0832">
        <ele>552.41</ele>
        <time>2013-03-21T12:33:57Z</time>
      </trkpt>
      <trkpt lat="47.2384" lon="6.0832">
        <ele>556.74</ele>
        <time>2013-03-21T12:33:58Z</time>
      </trkpt>
      <trkpt lat="47.2384" lon="6.0832">
        <ele>557.7</ele>
        <time>2013-03-21T12:33:59Z</time>
      </trkpt>
      <trkpt lat="47.2384" lon="6.0832">
        <ele>553.38</ele>
        <time>2013-03-21T12:34:00Z</time>
      </trkpt>
      <trkpt lat="47.2384" lon="6.0832">
        <ele>556.26</ele>
        <time>2013-03-21T12:34:01Z</time>
      </trkpt>
      <trkpt lat="47.2384" lon="6.0832">
        <ele>558.18</ele>
        <time>2013-03-21T12:34:02Z</time>
      </trkpt>
      <trkpt lat="47.2384" lon="6.0832">
        <ele>554.82</ele>
        <time>2013-03-21T12:34:04Z</time>
      </trkpt>
      <trkpt lat="47.2384" lon="6.0832">
        <ele>556.74</ele>
        <time>2013-03-21T12:34:05Z</time>
      </trkpt>
      <trkpt lat="47.2384" lon="6.08319">
        <ele>558.18</ele>
        <time>2013-03-21T12:34:06Z</time>
      </trkpt>
      <trkpt lat="47.2384" lon="6.08319">
        <ele>558.18</ele>
        <time>2013-03-21T12:34:07Z</time>
      </trkpt>
      <trkpt lat="47.23841" lon="6.08319">
        <ele>555.78</ele>
        <time>2013-03-21T12:34:08Z</time>
      </trkpt>
      <trkpt lat="47.23841" lon="6.08319">
        <ele>554.34</ele>
        <time>2013-03-21T12:34:09Z</time>
      </trkpt>
      <trkpt lat="47.23841" lon="6.08319">
        <ele>554.82</ele>
        <time>2013-03-21T12:34:10Z</time>
      </trkpt>
      <trkpt lat="47.23841" lon="6.08319">
        <ele>558.18</ele>
        <time>2013-03-21T12:34:11Z</time>
      </trkpt>
      <trkpt lat="47.23841" lon="6.08319">
        <ele>555.3</ele>
        <time>2013-03-21T12:34:12Z</time>
      </trkpt>
      <trkpt lat="47.23841" lon="6.08319">
        <ele>558.66</ele>
        <time>2013-03-21T12:34:14Z</time>
      </trkpt>
      <trkpt lat="47.23842" lon="6.08319">
        <ele>555.78</ele>
        <time>2013-03-21T12:34:15Z</time>
      </trkpt>
      <trkpt lat="47.23842" lon="6.08319">
        <ele>559.14</ele>
        <time>2013-03-21T12:34:18Z</time>
      </trkpt>
      <trkpt lat="47.23836" lon="6.0833">
        <ele>556.74</ele>
        <time>2013-03-21T12:35:20Z</time>
      </trkpt>
      <trkpt lat="47.23835" lon="6.08325">
        <ele>556.74</ele>
        <time>2013-03-21T12:35:42Z</time>
      </trkpt>
      <trkpt lat="47.23836" lon="6.08326">
        <ele>557.22</ele>
        <time>2013-03-21T12:35:43Z</time>
      </trkpt>
      <trkpt lat="47.23841" lon="6.08326">
        <ele>557.22</ele>
        <time>2013-03-21T12:35:56Z</time>
      </trkpt>
      <trkpt lat="47.23852" lon="6.08294">
        <ele>557.22</ele>
        <time>2013-03-21T12:36:17Z</time>
      </trkpt>
      <trkpt lat="47.2384" lon="6.08313">
        <ele>557.22</ele>
        <time>2013-03-21T12:36:32Z</time>
      </trkpt>
      <trkpt lat="47.23846" lon="6.08308">
        <ele>556.74</ele>
        <time>2013-03-21T12:36:59Z</time>
      </trkpt>
      <trkpt lat="47.23844" lon="6.08311">
        <ele>557.22</ele>
        <time>2013-03-21T12:37:20Z</time>
      </trkpt>
      <trkpt lat="47.23845" lon="6.08313">
        <ele>556.26</ele>
        <time>2013-03-21T12:37:22Z</time>
      </trkpt>
      <trkpt lat="47.23828" lon="6.08319">
        <ele>556.74</ele>
        <time>2013-03-21T12:37:36Z</time>
      </trkpt>
      <trkpt lat="47.23827" lon="6.08314">
        <ele>557.22</ele>
        <time>2013-03-21T12:37:49Z</time>
      </trkpt>
      <trkpt lat="47.23827" lon="6.08314">
        <ele>557.22</ele>
        <time>2013-03-21T12:38:21Z</time>
      </trkpt>
      <trkpt lat="47.23827" lon="6.08315">
        <ele>557.7</ele>
        <time>2013-03-21T12:38:51Z</time>
      </trkpt>
      <trkpt lat="47.23827" lon="6.08315">
        <ele>557.22</ele>
        <time>2013-03-21T12:39:12Z</time>
      </trkpt>
      <trkpt lat="47.23827" lon="6.08315">
        <ele>557.7</ele>
        <time>2013-03-21T12:39:23Z</time>
      </trkpt>
      <trkpt lat="47.23833" lon="6.0831">
        <ele>559.62</ele>
        <time>2013-03-21T12:39:40Z</time>
      </trkpt>
      <trkpt lat="47.23835" lon="6.08308">
        <ele>560.59</ele>
        <time>2013-03-21T12:39:55Z</time>
      </trkpt>
      <trkpt lat="47.23838" lon="6.08304">
        <ele>560.59</ele>
        <time>2013-03-21T12:40:11Z</time>
      </trkpt>
      <trkpt lat="47.23842" lon="6.08307">
        <ele>561.07</ele>
        <time>2013-03-21T12:40:18Z</time>
      </trkpt>
      <trkpt lat="47.23855" lon="6.08321">
        <ele>562.99</ele>
        <time>2013-03-21T12:40:33Z</time>
      </trkpt>
      <trkpt lat="47.23866" lon="6.08327">
        <ele>564.43</ele>
        <time>2013-03-21T12:40:43Z</time>
      </trkpt>
      <trkpt lat="47.23867" lon="6.08307">
        <ele>564.91</ele>
        <time>2013-03-21T12:40:55Z</time>
      </trkpt>
      <trkpt lat="47.23877" lon="6.0829">
        <ele>566.35</ele>
        <time>2013-03-21T12:41:11Z</time>
      </trkpt>
      <trkpt lat="47.23882" lon="6.08285">
        <ele>566.83</ele>
        <time>2013-03-21T12:41:19Z</time>
      </trkpt>
      <trkpt lat="47.23888" lon="6.08279">
        <ele>567.8</ele>
        <time>2013-03-21T12:41:30Z</time>
      </trkpt>
      <trkpt lat="47.23893" lon="6.08279">
        <ele>568.76</ele>
        <time>2013-03-21T12:41:36Z</time>
      </trkpt>
      <trkpt lat="47.23896" lon="6.08281">
        <ele>569.24</ele>
        <time>2013-03-21T12:41:40Z</time>
      </trkpt>
      <trkpt lat="47.23909" lon="6.08298">
        <ele>571.16</ele>
        <time>2013-03-21T12:41:58Z</time>
      </trkpt>
      <trkpt lat="47.23918" lon="6.08312">
        <ele>571.64</ele>
        <time>2013-03-21T12:42:11Z</time>
      </trkpt>
      <trkpt lat="47.23922" lon="6.08318">
        <ele>572.12</ele>
        <time>2013-03-21T12:42:17Z</time>
      </trkpt>
      <trkpt lat="47.23936" lon="6.08333">
        <ele>573.08</ele>
        <time>2013-03-21T12:42:33Z</time>
      </trkpt>
      <trkpt lat="47.23948" lon="6.08344">
        <ele>574.53</ele>
        <time>2013-03-21T12:42:47Z</time>
      </trkpt>
      <trkpt lat="47.23951" lon="6.08349">
        <ele>575.01</ele>
        <time>2013-03-21T12:42:51Z</time>
      </trkpt>
      <trkpt lat="47.23969" lon="6.08355">
        <ele>576.93</ele>
        <time>2013-03-21T12:43:06Z</time>
      </trkpt>
      <trkpt lat="47.23975" lon="6.08357">
        <ele>576.93</ele>
        <time>2013-03-21T12:43:19Z</time>
      </trkpt>
      <trkpt lat="47.23975" lon="6.08358">
        <ele>577.41</ele>
        <time>2013-03-21T12:43:21Z</time>
      </trkpt>
      <trkpt lat="47.2398" lon="6.08359">
        <ele>577.41</ele>
        <time>2013-03-21T12:43:33Z</time>
      </trkpt>
      <trkpt lat="47.23984" lon="6.08362">
        <ele>578.85</ele>
        <time>2013-03-21T12:43:48Z</time>
      </trkpt>
      <trkpt lat="47.2399" lon="6.08368">
        <ele>579.33</ele>
        <time>2013-03-21T12:43:56Z</time>
      </trkpt>
      <trkpt lat="47.23994" lon="6.08369">
        <ele>579.33</ele>
        <time>2013-03-21T12:44:01Z</time>
      </trkpt>
      <trkpt lat="47.24007" lon="6.0838">
        <ele>580.29</ele>
        <time>2013-03-21T12:44:15Z</time>
      </trkpt>
      <trkpt lat="47.24019" lon="6.08386">
        <ele>581.73</ele>
        <time>2013-03-21T12:44:28Z</time>
      </trkpt>
      <trkpt lat="47.24021" lon="6.08386">
        <ele>582.22</ele>
        <time>2013-03-21T12:44:46Z</time>
      </trkpt>
      <trkpt lat="47.24022" lon="6.08385">
        <ele>581.73</ele>
        <time>2013-03-21T12:45:03Z</time>
      </trkpt>
      <trkpt lat="47.24021" lon="6.08385">
        <ele>581.73</ele>
        <time>2013-03-21T12:45:22Z</time>
      </trkpt>
      <trkpt lat="47.2402" lon="6.08383">
        <ele>582.22</ele>
        <time>2013-03-21T12:45:41Z</time>
      </trkpt>
      <trkpt lat="47.24021" lon="6.08384">
        <ele>582.7</ele>
        <time>2013-03-21T12:45:59Z</time>
      </trkpt>
      <trkpt lat="47.2402" lon="6.08384">
        <ele>582.7</ele>
        <time>2013-03-21T12:46:19Z</time>
      </trkpt>
      <trkpt lat="47.24021" lon="6.08384">
        <ele>582.22</ele>
        <time>2013-03-21T12:46:40Z</time>
      </trkpt>
      <trkpt lat="47.24027" lon="6.08388">
        <ele>582.7</ele>
        <time>2013-03-21T12:46:50Z</time>
      </trkpt>
      <trkpt lat="47.24032" lon="6.08391">
        <ele>582.7</ele>
        <time>2013-03-21T12:47:02Z</time>
      </trkpt>
      <trkpt lat="47.24036" lon="6.08393">
        <ele>583.18</ele>
        <time>2013-03-21T12:47:15Z</time>
      </trkpt>
      <trkpt lat="47.24043" lon="6.08398">
        <ele>584.62</ele>
        <time>2013-03-21T12:47:26Z</time>
      </trkpt>
      <trkpt lat="47.24046" lon="6.084">
        <ele>585.1</ele>
        <time>2013-03-21T12:47:29Z</time>
      </trkpt>
      <trkpt lat="47.24055" lon="6.0841">
        <ele>585.58</ele>
        <time>2013-03-21T12:47:43Z</time>
      </trkpt>
      <trkpt lat="47.24067" lon="6.08423">
        <ele>586.54</ele>
        <time>2013-03-21T12:47:57Z</time>
      </trkpt>
      <trkpt lat="47.24079" lon="6.08433">
        <ele>587.5</ele>
        <time>2013-03-21T12:48:11Z</time>
      </trkpt>
      <trkpt lat="47.24092" lon="6.08441">
        <ele>588.95</ele>
        <time>2013-03-21T12:48:27Z</time>
      </trkpt>
      <trkpt lat="47.24109" lon="6.08448">
        <ele>590.39</ele>
        <time>2013-03-21T12:48:47Z</time>
      </trkpt>
      <trkpt lat="47.24121" lon="6.08453">
        <ele>591.35</ele>
        <time>2013-03-21T12:49:00Z</time>
      </trkpt>
      <trkpt lat="47.24125" lon="6.08452">
        <ele>591.83</ele>
        <time>2013-03-21T12:49:05Z</time>
      </trkpt>
      <trkpt lat="47.24141" lon="6.08461">
        <ele>592.79</ele>
        <time>2013-03-21T12:49:22Z</time>
      </trkpt>
      <trkpt lat="47.24153" lon="6.08465">
        <ele>594.71</ele>
        <time>2013-03-21T12:49:38Z</time>
      </trkpt>
      <trkpt lat="47.24158" lon="6.08472">
        <ele>594.71</ele>
        <time>2013-03-21T12:49:52Z</time>
      </trkpt>
      <trkpt lat="47.24159" lon="6.08473">
        <ele>594.23</ele>
        <time>2013-03-21T12:49:53Z</time>
      </trkpt>
      <trkpt lat="47.24171" lon="6.08485">
        <ele>595.67</ele>
        <time>2013-03-21T12:50:08Z</time>
      </trkpt>
      <trkpt lat="47.24184" lon="6.08493">
        <ele>597.12</ele>
        <time>2013-03-21T12:50:21Z</time>
      </trkpt>
      <trkpt lat="47.24197" lon="6.08503">
        <ele>598.08</ele>
        <time>2013-03-21T12:50:35Z</time>
      </trkpt>
      <trkpt lat="47.24214" lon="6.08521">
        <ele>599.52</ele>
        <time>2013-03-21T12:50:51Z</time>
      </trkpt>
      <trkpt lat="47.24232" lon="6.08528">
        <ele>599.52</ele>
        <time>2013-03-21T12:51:07Z</time>
      </trkpt>
      <trkpt lat="47.24244" lon="6.0853">
        <ele>600</ele>
        <time>2013-03-21T12:51:18Z</time>
      </trkpt>
      <trkpt lat="47.24257" lon="6.08536">
        <ele>600.48</ele>
        <time>2013-03-21T12:51:31Z</time>
      </trkpt>
      <trkpt lat="47.24261" lon="6.08539">
        <ele>600.96</ele>
        <time>2013-03-21T12:51:36Z</time>
      </trkpt>
      <trkpt lat="47.24281" lon="6.08552">
        <ele>601.44</ele>
        <time>2013-03-21T12:51:54Z</time>
      </trkpt>
      <trkpt lat="47.24298" lon="6.08558">
        <ele>601.44</ele>
        <time>2013-03-21T12:52:13Z</time>
      </trkpt>
      <trkpt lat="47.24299" lon="6.08559">
        <ele>606.25</ele>
        <time>2013-03-21T12:52:14Z</time>
      </trkpt>
      <trkpt lat="47.243" lon="6.08559">
        <ele>601.92</ele>
        <time>2013-03-21T12:52:15Z</time>
      </trkpt>
      <trkpt lat="47.24315" lon="6.08576">
        <ele>602.4</ele>
        <time>2013-03-21T12:52:30Z</time>
      </trkpt>
      <trkpt lat="47.24331" lon="6.08581">
        <ele>602.88</ele>
        <time>2013-03-21T12:52:45Z</time>
      </trkpt>
      <trkpt lat="47.24334" lon="6.08581">
        <ele>602.88</ele>
        <time>2013-03-21T12:52:53Z</time>
      </trkpt>
      <trkpt lat="47.24342" lon="6.08588">
        <ele>602.4</ele>
        <time>2013-03-21T12:53:05Z</time>
      </trkpt>
      <trkpt lat="47.24357" lon="6.0859">
        <ele>602.4</ele>
        <time>2013-03-21T12:53:19Z</time>
      </trkpt>
      <trkpt lat="47.24358" lon="6.08589">
        <ele>602.4</ele>
        <time>2013-03-21T12:53:27Z</time>
      </trkpt>
      <trkpt lat="47.24365" lon="6.08587">
        <ele>601.92</ele>
        <time>2013-03-21T12:53:33Z</time>
      </trkpt>
      <trkpt lat="47.2437" lon="6.08587">
        <ele>602.4</ele>
        <time>2013-03-21T12:53:38Z</time>
      </trkpt>
      <trkpt lat="47.24381" lon="6.08568">
        <ele>602.4</ele>
        <time>2013-03-21T12:53:51Z</time>
      </trkpt>
      <trkpt lat="47.24398" lon="6.08549">
        <ele>602.88</ele>
        <time>2013-03-21T12:54:06Z</time>
      </trkpt>
      <trkpt lat="47.24415" lon="6.08541">
        <ele>602.88</ele>
        <time>2013-03-21T12:54:22Z</time>
      </trkpt>
      <trkpt lat="47.2443" lon="6.08542">
        <ele>603.85</ele>
        <time>2013-03-21T12:54:39Z</time>
      </trkpt>
      <trkpt lat="47.24448" lon="6.08548">
        <ele>604.33</ele>
        <time>2013-03-21T12:54:56Z</time>
      </trkpt>
      <trkpt lat="47.24465" lon="6.08547">
        <ele>604.33</ele>
        <time>2013-03-21T12:55:12Z</time>
      </trkpt>
      <trkpt lat="47.24467" lon="6.08548">
        <ele>604.33</ele>
        <time>2013-03-21T12:55:14Z</time>
      </trkpt>
      <trkpt lat="47.24484" lon="6.0856">
        <ele>603.36</ele>
        <time>2013-03-21T12:55:32Z</time>
      </trkpt>
      <trkpt lat="47.24498" lon="6.08571">
        <ele>602.88</ele>
        <time>2013-03-21T12:55:46Z</time>
      </trkpt>
      <trkpt lat="47.24514" lon="6.08585">
        <ele>601.44</ele>
        <time>2013-03-21T12:56:04Z</time>
      </trkpt>
      <trkpt lat="47.2452" lon="6.0859">
        <ele>600.96</ele>
        <time>2013-03-21T12:56:19Z</time>
      </trkpt>
      <trkpt lat="47.24522" lon="6.0859">
        <ele>600.96</ele>
        <time>2013-03-21T12:56:36Z</time>
      </trkpt>
      <trkpt lat="47.24522" lon="6.0859">
        <ele>600.48</ele>
        <time>2013-03-21T12:56:59Z</time>
      </trkpt>
      <trkpt lat="47.24522" lon="6.0859">
        <ele>600.96</ele>
        <time>2013-03-21T12:57:29Z</time>
      </trkpt>
      <trkpt lat="47.24522" lon="6.08593">
        <ele>600.96</ele>
        <time>2013-03-21T12:57:39Z</time>
      </trkpt>
      <trkpt lat="47.24516" lon="6.0861">
        <ele>601.92</ele>
        <time>2013-03-21T12:57:54Z</time>
      </trkpt>
      <trkpt lat="47.24512" lon="6.08618">
        <ele>602.88</ele>
        <time>2013-03-21T12:58:08Z</time>
      </trkpt>
      <trkpt lat="47.24512" lon="6.08618">
        <ele>603.36</ele>
        <time>2013-03-21T12:58:19Z</time>
      </trkpt>
      <trkpt lat="47.24502" lon="6.08636">
        <ele>604.33</ele>
        <time>2013-03-21T12:58:35Z</time>
      </trkpt>
      <trkpt lat="47.24495" lon="6.08659">
        <ele>605.29</ele>
        <time>2013-03-21T12:58:50Z</time>
      </trkpt>
      <trkpt lat="47.24486" lon="6.08677">
        <ele>605.77</ele>
        <time>2013-03-21T12:59:05Z</time>
      </trkpt>
      <trkpt lat="47.24479" lon="6.08697">
        <ele>605.77</ele>
        <time>2013-03-21T12:59:19Z</time>
      </trkpt>
      <trkpt lat="47.24473" lon="6.08709">
        <ele>606.25</ele>
        <time>2013-03-21T12:59:28Z</time>
      </trkpt>
      <trkpt lat="47.24464" lon="6.08729">
        <ele>605.77</ele>
        <time>2013-03-21T12:59:44Z</time>
      </trkpt>
      <trkpt lat="47.24462" lon="6.08736">
        <ele>606.25</ele>
        <time>2013-03-21T12:59:48Z</time>
      </trkpt>
      <trkpt lat="47.24458" lon="6.08754">
        <ele>606.25</ele>
        <time>2013-03-21T13:00:03Z</time>
      </trkpt>
      <trkpt lat="47.24458" lon="6.08757">
        <ele>605.77</ele>
        <time>2013-03-21T13:00:18Z</time>
      </trkpt>
      <trkpt lat="47.24458" lon="6.08757">
        <ele>605.77</ele>
        <time>2013-03-21T13:00:41Z</time>
      </trkpt>
      <trkpt lat="47.24459" lon="6.08758">
        <ele>605.77</ele>
        <time>2013-03-21T13:01:02Z</time>
      </trkpt>
      <trkpt lat="47.24459" lon="6.08758">
        <ele>606.25</ele>
        <time>2013-03-21T13:01:24Z</time>
      </trkpt>
      <trkpt lat="47.24461" lon="6.08767">
        <ele>606.73</ele>
        <time>2013-03-21T13:01:49Z</time>
      </trkpt>
      <trkpt lat="47.24463" lon="6.0877">
        <ele>606.73</ele>
        <time>2013-03-21T13:01:51Z</time>
      </trkpt>
      <trkpt lat="47.24476" lon="6.08787">
        <ele>606.73</ele>
        <time>2013-03-21T13:02:06Z</time>
      </trkpt>
      <trkpt lat="47.2449" lon="6.08804">
        <ele>607.21</ele>
        <time>2013-03-21T13:02:20Z</time>
      </trkpt>
      <trkpt lat="47.245" lon="6.08813">
        <ele>607.69</ele>
        <time>2013-03-21T13:02:29Z</time>
      </trkpt>
      <trkpt lat="47.24509" lon="6.08823">
        <ele>608.17</ele>
        <time>2013-03-21T13:02:44Z</time>
      </trkpt>
      <trkpt lat="47.24505" lon="6.08834">
        <ele>607.69</ele>
        <time>2013-03-21T13:03:03Z</time>
      </trkpt>
      <trkpt lat="47.24498" lon="6.08844">
        <ele>605.29</ele>
        <time>2013-03-21T13:03:14Z</time>
      </trkpt>
      <trkpt lat="47.24496" lon="6.08863">
        <ele>604.81</ele>
        <time>2013-03-21T13:03:24Z</time>
      </trkpt>
      <trkpt lat="47.24505" lon="6.08888">
        <ele>603.85</ele>
        <time>2013-03-21T13:03:40Z</time>
      </trkpt>
      <trkpt lat="47.24511" lon="6.08913">
        <ele>604.33</ele>
        <time>2013-03-21T13:03:55Z</time>
      </trkpt>
      <trkpt lat="47.24519" lon="6.08933">
        <ele>603.85</ele>
        <time>2013-03-21T13:04:10Z</time>
      </trkpt>
      <trkpt lat="47.24521" lon="6.08936">
        <ele>603.36</ele>
        <time>2013-03-21T13:04:12Z</time>
      </trkpt>
      <trkpt lat="47.2453" lon="6.08941">
        <ele>604.81</ele>
        <time>2013-03-21T13:04:28Z</time>
      </trkpt>
      <trkpt lat="47.2453" lon="6.0894">
        <ele>603.85</ele>
        <time>2013-03-21T13:04:43Z</time>
      </trkpt>
      <trkpt lat="47.2453" lon="6.0894">
        <ele>603.85</ele>
        <time>2013-03-21T13:05:17Z</time>
      </trkpt>
      <trkpt lat="47.2453" lon="6.0894">
        <ele>604.81</ele>
        <time>2013-03-21T13:05:41Z</time>
      </trkpt>
      <trkpt lat="47.2453" lon="6.0894">
        <ele>604.81</ele>
        <time>2013-03-21T13:05:54Z</time>
      </trkpt>
      <trkpt lat="47.24528" lon="6.08936">
        <ele>604.33</ele>
        <time>2013-03-21T13:06:02Z</time>
      </trkpt>
      <trkpt lat="47.24525" lon="6.08939">
        <ele>603.85</ele>
        <time>2013-03-21T13:06:04Z</time>
      </trkpt>
      <trkpt lat="47.24531" lon="6.08963">
        <ele>602.88</ele>
        <time>2013-03-21T13:06:18Z</time>
      </trkpt>
      <trkpt lat="47.24543" lon="6.08992">
        <ele>602.4</ele>
        <time>2013-03-21T13:06:33Z</time>
      </trkpt>
      <trkpt lat="47.24552" lon="6.09017">
        <ele>601.92</ele>
        <time>2013-03-21T13:06:45Z</time>
      </trkpt>
      <trkpt lat="47.24555" lon="6.09026">
        <ele>601.44</ele>
        <time>2013-03-21T13:06:50Z</time>
      </trkpt>
      <trkpt lat="47.24565" lon="6.09052">
        <ele>600.48</ele>
        <time>2013-03-21T13:07:05Z</time>
      </trkpt>
      <trkpt lat="47.24569" lon="6.09062">
        <ele>600</ele>
        <time>2013-03-21T13:07:13Z</time>
      </trkpt>
      <trkpt lat="47.24579" lon="6.09086">
        <ele>599.52</ele>
        <time>2013-03-21T13:07:27Z</time>
      </trkpt>
      <trkpt lat="47.24579" lon="6.09086">
        <ele>599.04</ele>
        <time>2013-03-21T13:07:36Z</time>
      </trkpt>
      <trkpt lat="47.24581" lon="6.09091">
        <ele>599.52</ele>
        <time>2013-03-21T13:07:40Z</time>
      </trkpt>
      <trkpt lat="47.24584" lon="6.09098">
        <ele>599.52</ele>
        <time>2013-03-21T13:07:44Z</time>
      </trkpt>
      <trkpt lat="47.24596" lon="6.09127">
        <ele>598.08</ele>
        <time>2013-03-21T13:07:59Z</time>
      </trkpt>
      <trkpt lat="47.24606" lon="6.0915">
        <ele>597.12</ele>
        <time>2013-03-21T13:08:13Z</time>
      </trkpt>
      <trkpt lat="47.2462" lon="6.09175">
        <ele>596.64</ele>
        <time>2013-03-21T13:08:28Z</time>
      </trkpt>
      <trkpt lat="47.24635" lon="6.092">
        <ele>595.19</ele>
        <time>2013-03-21T13:08:43Z</time>
      </trkpt>
      <trkpt lat="47.24649" lon="6.09221">
        <ele>594.23</ele>
        <time>2013-03-21T13:08:57Z</time>
      </trkpt>
      <trkpt lat="47.24668" lon="6.09245">
        <ele>592.79</ele>
        <time>2013-03-21T13:09:13Z</time>
      </trkpt>
      <trkpt lat="47.24684" lon="6.09267">
        <ele>591.83</ele>
        <time>2013-03-21T13:09:28Z</time>
      </trkpt>
      <trkpt lat="47.247" lon="6.09285">
        <ele>591.35</ele>
        <time>2013-03-21T13:09:41Z</time>
      </trkpt>
      <trkpt lat="47.24716" lon="6.09303">
        <ele>589.91</ele>
        <time>2013-03-21T13:09:55Z</time>
      </trkpt>
      <trkpt lat="47.24722" lon="6.09309">
        <ele>590.39</ele>
        <time>2013-03-21T13:10:00Z</time>
      </trkpt>
      <trkpt lat="47.24746" lon="6.09317">
        <ele>588.95</ele>
        <time>2013-03-21T13:10:15Z</time>
      </trkpt>
      <trkpt lat="47.24756" lon="6.09314">
        <ele>588.95</ele>
        <time>2013-03-21T13:10:25Z</time>
      </trkpt>
      <trkpt lat="47.24762" lon="6.09313">
        <ele>588.46</ele>
        <time>2013-03-21T13:10:37Z</time>
      </trkpt>
      <trkpt lat="47.24783" lon="6.09313">
        <ele>587.5</ele>
        <time>2013-03-21T13:10:51Z</time>
      </trkpt>
      <trkpt lat="47.24807" lon="6.09302">
        <ele>587.5</ele>
        <time>2013-03-21T13:11:07Z</time>
      </trkpt>
      <trkpt lat="47.24824" lon="6.09294">
        <ele>587.02</ele>
        <time>2013-03-21T13:11:21Z</time>
      </trkpt>
      <trkpt lat="47.24829" lon="6.09292">
        <ele>586.06</ele>
        <time>2013-03-21T13:11:28Z</time>
      </trkpt>
      <trkpt lat="47.24833" lon="6.09299">
        <ele>585.1</ele>
        <time>2013-03-21T13:11:35Z</time>
      </trkpt>
      <trkpt lat="47.24826" lon="6.09318">
        <ele>583.66</ele>
        <time>2013-03-21T13:11:51Z</time>
      </trkpt>
      <trkpt lat="47.24826" lon="6.0932">
        <ele>583.66</ele>
        <time>2013-03-21T13:11:52Z</time>
      </trkpt>
      <trkpt lat="47.24836" lon="6.09344">
        <ele>582.7</ele>
        <time>2013-03-21T13:12:07Z</time>
      </trkpt>
      <trkpt lat="47.24848" lon="6.09363">
        <ele>582.22</ele>
        <time>2013-03-21T13:12:22Z</time>
      </trkpt>
      <trkpt lat="47.24863" lon="6.09383">
        <ele>581.25</ele>
        <time>2013-03-21T13:12:38Z</time>
      </trkpt>
      <trkpt lat="47.24874" lon="6.09405">
        <ele>581.25</ele>
        <time>2013-03-21T13:12:52Z</time>
      </trkpt>
      <trkpt lat="47.24878" lon="6.09411">
        <ele>580.29</ele>
        <time>2013-03-21T13:12:58Z</time>
      </trkpt>
      <trkpt lat="47.2488" lon="6.09429">
        <ele>580.29</ele>
        <time>2013-03-21T13:13:08Z</time>
      </trkpt>
      <trkpt lat="47.24879" lon="6.09435">
        <ele>579.81</ele>
        <time>2013-03-21T13:13:11Z</time>
      </trkpt>
      <trkpt lat="47.24873" lon="6.09461">
        <ele>579.81</ele>
        <time>2013-03-21T13:13:25Z</time>
      </trkpt>
      <trkpt lat="47.24873" lon="6.0949">
        <ele>578.85</ele>
        <time>2013-03-21T13:13:40Z</time>
      </trkpt>
      <trkpt lat="47.24871" lon="6.09518">
        <ele>577.89</ele>
        <time>2013-03-21T13:13:56Z</time>
      </trkpt>
      <trkpt lat="47.24875" lon="6.09544">
        <ele>576.45</ele>
        <time>2013-03-21T13:14:10Z</time>
      </trkpt>
      <trkpt lat="47.24881" lon="6.09568">
        <ele>576.45</ele>
        <time>2013-03-21T13:14:24Z</time>
      </trkpt>
      <trkpt lat="47.24889" lon="6.09592">
        <ele>575.49</ele>
        <time>2013-03-21T13:14:38Z</time>
      </trkpt>
      <trkpt lat="47.24896" lon="6.0962">
        <ele>574.53</ele>
        <time>2013-03-21T13:14:55Z</time>
      </trkpt>
      <trkpt lat="47.24904" lon="6.09643">
        <ele>573.56</ele>
        <time>2013-03-21T13:15:09Z</time>
      </trkpt>
      <trkpt lat="47.24912" lon="6.09664">
        <ele>574.04</ele>
        <time>2013-03-21T13:15:23Z</time>
      </trkpt>
      <trkpt lat="47.24922" lon="6.09688">
        <ele>573.08</ele>
        <time>2013-03-21T13:15:38Z</time>
      </trkpt>
      <trkpt lat="47.24931" lon="6.09711">
        <ele>572.6</ele>
        <time>2013-03-21T13:15:52Z</time>
      </trkpt>
      <trkpt lat="47.2494" lon="6.09732">
        <ele>572.12</ele>
        <time>2013-03-21T13:16:05Z</time>
      </trkpt>
      <trkpt lat="47.24947" lon="6.09752">
        <ele>571.64</ele>
        <time>2013-03-21T13:16:18Z</time>
      </trkpt>
      <trkpt lat="47.24948" lon="6.09757">
        <ele>571.64</ele>
        <time>2013-03-21T13:16:22Z</time>
      </trkpt>
      <trkpt lat="47.24952" lon="6.09763">
        <ele>571.64</ele>
        <time>2013-03-21T13:16:29Z</time>
      </trkpt>
      <trkpt lat="47.24947" lon="6.09783">
        <ele>570.68</ele>
        <time>2013-03-21T13:16:42Z</time>
      </trkpt>
      <trkpt lat="47.24947" lon="6.09798">
        <ele>569.72</ele>
        <time>2013-03-21T13:16:51Z</time>
      </trkpt>
      <trkpt lat="47.24947" lon="6.09805">
        <ele>569.24</ele>
        <time>2013-03-21T13:16:55Z</time>
      </trkpt>
      <trkpt lat="47.24944" lon="6.09814">
        <ele>561.55</ele>
        <time>2013-03-21T13:17:04Z</time>
      </trkpt>
      <trkpt lat="47.24944" lon="6.09814">
        <ele>570.68</ele>
        <time>2013-03-21T13:17:05Z</time>
      </trkpt>
      <trkpt lat="47.24944" lon="6.09814">
        <ele>568.76</ele>
        <time>2013-03-21T13:17:32Z</time>
      </trkpt>
      <trkpt lat="47.24943" lon="6.09816">
        <ele>568.28</ele>
        <time>2013-03-21T13:17:40Z</time>
      </trkpt>
      <trkpt lat="47.24941" lon="6.09818">
        <ele>568.28</ele>
        <time>2013-03-21T13:17:43Z</time>
      </trkpt>
      <trkpt lat="47.2493" lon="6.09824">
        <ele>566.83</ele>
        <time>2013-03-21T13:17:55Z</time>
      </trkpt>
      <trkpt lat="47.2493" lon="6.09825">
        <ele>566.83</ele>
        <time>2013-03-21T13:17:57Z</time>
      </trkpt>
      <trkpt lat="47.24931" lon="6.09833">
        <ele>566.35</ele>
        <time>2013-03-21T13:18:02Z</time>
      </trkpt>
      <trkpt lat="47.2494" lon="6.09851">
        <ele>566.35</ele>
        <time>2013-03-21T13:18:14Z</time>
      </trkpt>
      <trkpt lat="47.24953" lon="6.09872">
        <ele>565.87</ele>
        <time>2013-03-21T13:18:28Z</time>
      </trkpt>
      <trkpt lat="47.24964" lon="6.09888">
        <ele>565.39</ele>
        <time>2013-03-21T13:18:42Z</time>
      </trkpt>
      <trkpt lat="47.24982" lon="6.09901">
        <ele>565.39</ele>
        <time>2013-03-21T13:18:58Z</time>
      </trkpt>
      <trkpt lat="47.24998" lon="6.09909">
        <ele>565.39</ele>
        <time>2013-03-21T13:19:12Z</time>
      </trkpt>
      <trkpt lat="47.25017" lon="6.09914">
        <ele>565.87</ele>
        <time>2013-03-21T13:19:27Z</time>
      </trkpt>
      <trkpt lat="47.25022" lon="6.09915">
        <ele>565.39</ele>
        <time>2013-03-21T13:19:31Z</time>
      </trkpt>
      <trkpt lat="47.25035" lon="6.09934">
        <ele>565.39</ele>
        <time>2013-03-21T13:19:45Z</time>
      </trkpt>
      <trkpt lat="47.25045" lon="6.09961">
        <ele>565.87</ele>
        <time>2013-03-21T13:20:01Z</time>
      </trkpt>
      <trkpt lat="47.25055" lon="6.09988">
        <ele>565.87</ele>
        <time>2013-03-21T13:20:16Z</time>
      </trkpt>
      <trkpt lat="47.25064" lon="6.10008">
        <ele>565.87</ele>
        <time>2013-03-21T13:20:30Z</time>
      </trkpt>
      <trkpt lat="47.25065" lon="6.1001">
        <ele>565.39</ele>
        <time>2013-03-21T13:20:31Z</time>
      </trkpt>
      <trkpt lat="47.25078" lon="6.10036">
        <ele>565.39</ele>
        <time>2013-03-21T13:20:48Z</time>
      </trkpt>
      <trkpt lat="47.25087" lon="6.10061">
        <ele>565.39</ele>
        <time>2013-03-21T13:21:04Z</time>
      </trkpt>
      <trkpt lat="47.25098" lon="6.10085">
        <ele>565.39</ele>
        <time>2013-03-21T13:21:19Z</time>
      </trkpt>
      <trkpt lat="47.25112" lon="6.10107">
        <ele>564.91</ele>
        <time>2013-03-21T13:21:35Z</time>
      </trkpt>
      <trkpt lat="47.25125" lon="6.10128">
        <ele>564.43</ele>
        <time>2013-03-21T13:21:49Z</time>
      </trkpt>
      <trkpt lat="47.25142" lon="6.10153">
        <ele>563.47</ele>
        <time>2013-03-21T13:22:07Z</time>
      </trkpt>
      <trkpt lat="47.25157" lon="6.10174">
        <ele>561.55</ele>
        <time>2013-03-21T13:22:21Z</time>
      </trkpt>
      <trkpt lat="47.25172" lon="6.10189">
        <ele>559.62</ele>
        <time>2013-03-21T13:22:37Z</time>
      </trkpt>
      <trkpt lat="47.25172" lon="6.10191">
        <ele>559.62</ele>
        <time>2013-03-21T13:22:38Z</time>
      </trkpt>
      <trkpt lat="47.25199" lon="6.10208">
        <ele>557.7</ele>
        <time>2013-03-21T13:22:59Z</time>
      </trkpt>
      <trkpt lat="47.25217" lon="6.10226">
        <ele>555.78</ele>
        <time>2013-03-21T13:23:16Z</time>
      </trkpt>
      <trkpt lat="47.25228" lon="6.10234">
        <ele>554.34</ele>
        <time>2013-03-21T13:23:26Z</time>
      </trkpt>
      <trkpt lat="47.25246" lon="6.10249">
        <ele>552.41</ele>
        <time>2013-03-21T13:23:41Z</time>
      </trkpt>
      <trkpt lat="47.25264" lon="6.10264">
        <ele>550.01</ele>
        <time>2013-03-21T13:23:59Z</time>
      </trkpt>
      <trkpt lat="47.25272" lon="6.10278">
        <ele>549.05</ele>
        <time>2013-03-21T13:24:12Z</time>
      </trkpt>
      <trkpt lat="47.25279" lon="6.10301">
        <ele>548.09</ele>
        <time>2013-03-21T13:24:26Z</time>
      </trkpt>
      <trkpt lat="47.25275" lon="6.10321">
        <ele>546.17</ele>
        <time>2013-03-21T13:24:42Z</time>
      </trkpt>
      <trkpt lat="47.25272" lon="6.10348">
        <ele>545.2</ele>
        <time>2013-03-21T13:24:57Z</time>
      </trkpt>
      <trkpt lat="47.25277" lon="6.10361">
        <ele>543.76</ele>
        <time>2013-03-21T13:25:05Z</time>
      </trkpt>
      <trkpt lat="47.25284" lon="6.10367">
        <ele>543.28</ele>
        <time>2013-03-21T13:25:12Z</time>
      </trkpt>
      <trkpt lat="47.25306" lon="6.10376">
        <ele>540.88</ele>
        <time>2013-03-21T13:25:28Z</time>
      </trkpt>
      <trkpt lat="47.25328" lon="6.10369">
        <ele>538.48</ele>
        <time>2013-03-21T13:25:46Z</time>
      </trkpt>
      <trkpt lat="47.25348" lon="6.10368">
        <ele>536.55</ele>
        <time>2013-03-21T13:26:02Z</time>
      </trkpt>
      <trkpt lat="47.25372" lon="6.10371">
        <ele>534.15</ele>
        <time>2013-03-21T13:26:18Z</time>
      </trkpt>
      <trkpt lat="47.25387" lon="6.10381">
        <ele>532.71</ele>
        <time>2013-03-21T13:26:33Z</time>
      </trkpt>
      <trkpt lat="47.254" lon="6.10397">
        <ele>531.27</ele>
        <time>2013-03-21T13:26:46Z</time>
      </trkpt>
      <trkpt lat="47.25402" lon="6.104">
        <ele>530.79</ele>
        <time>2013-03-21T13:26:49Z</time>
      </trkpt>
      <trkpt lat="47.25416" lon="6.10421">
        <ele>529.82</ele>
        <time>2013-03-21T13:27:05Z</time>
      </trkpt>
      <trkpt lat="47.2543" lon="6.1043">
        <ele>528.38</ele>
        <time>2013-03-21T13:27:17Z</time>
      </trkpt>
      <trkpt lat="47.25434" lon="6.10427">
        <ele>527.42</ele>
        <time>2013-03-21T13:27:23Z</time>
      </trkpt>
      <trkpt lat="47.25441" lon="6.10409">
        <ele>526.46</ele>
        <time>2013-03-21T13:27:31Z</time>
      </trkpt>
      <trkpt lat="47.25443" lon="6.10397">
        <ele>526.46</ele>
        <time>2013-03-21T13:27:36Z</time>
      </trkpt>
      <trkpt lat="47.2544" lon="6.10364">
        <ele>525.02</ele>
        <time>2013-03-21T13:27:52Z</time>
      </trkpt>
      <trkpt lat="47.25438" lon="6.10359">
        <ele>524.54</ele>
        <time>2013-03-21T13:27:55Z</time>
      </trkpt>
      <trkpt lat="47.25432" lon="6.10329">
        <ele>523.09</ele>
        <time>2013-03-21T13:28:11Z</time>
      </trkpt>
      <trkpt lat="47.25432" lon="6.10326">
        <ele>523.09</ele>
        <time>2013-03-21T13:28:13Z</time>
      </trkpt>
      <trkpt lat="47.2543" lon="6.10311">
        <ele>522.13</ele>
        <time>2013-03-21T13:28:21Z</time>
      </trkpt>
      <trkpt lat="47.25429" lon="6.10277">
        <ele>520.21</ele>
        <time>2013-03-21T13:28:38Z</time>
      </trkpt>
      <trkpt lat="47.25425" lon="6.10259">
        <ele>519.73</ele>
        <time>2013-03-21T13:28:48Z</time>
      </trkpt>
      <trkpt lat="47.25422" lon="6.10249">
        <ele>519.25</ele>
        <time>2013-03-21T13:28:53Z</time>
      </trkpt>
      <trkpt lat="47.25423" lon="6.10219">
        <ele>518.29</ele>
        <time>2013-03-21T13:29:09Z</time>
      </trkpt>
      <trkpt lat="47.25424" lon="6.10197">
        <ele>517.81</ele>
        <time>2013-03-21T13:29:22Z</time>
      </trkpt>
      <trkpt lat="47.25427" lon="6.10169">
        <ele>517.33</ele>
        <time>2013-03-21T13:29:36Z</time>
      </trkpt>
      <trkpt lat="47.25427" lon="6.10158">
        <ele>516.85</ele>
        <time>2013-03-21T13:29:43Z</time>
      </trkpt>
      <trkpt lat="47.25434" lon="6.10126">
        <ele>515.88</ele>
        <time>2013-03-21T13:29:59Z</time>
      </trkpt>
      <trkpt lat="47.25435" lon="6.10095">
        <ele>514.92</ele>
        <time>2013-03-21T13:30:14Z</time>
      </trkpt>
      <trkpt lat="47.2544" lon="6.10067">
        <ele>514.92</ele>
        <time>2013-03-21T13:30:29Z</time>
      </trkpt>
      <trkpt lat="47.25446" lon="6.1004">
        <ele>513.96</ele>
        <time>2013-03-21T13:30:44Z</time>
      </trkpt>
      <trkpt lat="47.25452" lon="6.10025">
        <ele>513.96</ele>
        <time>2013-03-21T13:30:54Z</time>
      </trkpt>
      <trkpt lat="47.25462" lon="6.10004">
        <ele>513</ele>
        <time>2013-03-21T13:31:10Z</time>
      </trkpt>
      <trkpt lat="47.25473" lon="6.09996">
        <ele>512.04</ele>
        <time>2013-03-21T13:31:23Z</time>
      </trkpt>
      <trkpt lat="47.25489" lon="6.09975">
        <ele>511.56</ele>
        <time>2013-03-21T13:31:40Z</time>
      </trkpt>
      <trkpt lat="47.25495" lon="6.09969">
        <ele>511.08</ele>
        <time>2013-03-21T13:31:44Z</time>
      </trkpt>
      <trkpt lat="47.25502" lon="6.09953">
        <ele>511.08</ele>
        <time>2013-03-21T13:31:55Z</time>
      </trkpt>
      <trkpt lat="47.25522" lon="6.09932">
        <ele>510.12</ele>
        <time>2013-03-21T13:32:12Z</time>
      </trkpt>
      <trkpt lat="47.25523" lon="6.09931">
        <ele>509.64</ele>
        <time>2013-03-21T13:32:13Z</time>
      </trkpt>
      <trkpt lat="47.25533" lon="6.09913">
        <ele>508.67</ele>
        <time>2013-03-21T13:32:28Z</time>
      </trkpt>
      <trkpt lat="47.2555" lon="6.09888">
        <ele>508.67</ele>
        <time>2013-03-21T13:32:43Z</time>
      </trkpt>
      <trkpt lat="47.25557" lon="6.09873">
        <ele>508.19</ele>
        <time>2013-03-21T13:32:57Z</time>
      </trkpt>
      <trkpt lat="47.2556" lon="6.09876">
        <ele>507.23</ele>
        <time>2013-03-21T13:33:15Z</time>
      </trkpt>
      <trkpt lat="47.25568" lon="6.09895">
        <ele>506.27</ele>
        <time>2013-03-21T13:33:31Z</time>
      </trkpt>
      <trkpt lat="47.25571" lon="6.09899">
        <ele>504.83</ele>
        <time>2013-03-21T13:33:35Z</time>
      </trkpt>
      <trkpt lat="47.2558" lon="6.09911">
        <ele>503.87</ele>
        <time>2013-03-21T13:33:47Z</time>
      </trkpt>
      <trkpt lat="47.25591" lon="6.09928">
        <ele>501.95</ele>
        <time>2013-03-21T13:34:02Z</time>
      </trkpt>
      <trkpt lat="47.25607" lon="6.09946">
        <ele>499.06</ele>
        <time>2013-03-21T13:34:19Z</time>
      </trkpt>
      <trkpt lat="47.25616" lon="6.09952">
        <ele>497.62</ele>
        <time>2013-03-21T13:34:35Z</time>
      </trkpt>
      <trkpt lat="47.25616" lon="6.09953">
        <ele>497.14</ele>
        <time>2013-03-21T13:34:53Z</time>
      </trkpt>
      <trkpt lat="47.2563" lon="6.09959">
        <ele>494.74</ele>
        <time>2013-03-21T13:35:10Z</time>
      </trkpt>
      <trkpt lat="47.25639" lon="6.09961">
        <ele>491.85</ele>
        <time>2013-03-21T13:35:23Z</time>
      </trkpt>
      <trkpt lat="47.25645" lon="6.09963">
        <ele>489.93</ele>
        <time>2013-03-21T13:35:39Z</time>
      </trkpt>
      <trkpt lat="47.25652" lon="6.09969">
        <ele>488.49</ele>
        <time>2013-03-21T13:35:54Z</time>
      </trkpt>
      <trkpt lat="47.25663" lon="6.09976">
        <ele>487.53</ele>
        <time>2013-03-21T13:36:08Z</time>
      </trkpt>
      <trkpt lat="47.25665" lon="6.09977">
        <ele>487.05</ele>
        <time>2013-03-21T13:36:13Z</time>
      </trkpt>
      <trkpt lat="47.25676" lon="6.09985">
        <ele>485.6</ele>
        <time>2013-03-21T13:36:29Z</time>
      </trkpt>
      <trkpt lat="47.25683" lon="6.0999">
        <ele>483.68</ele>
        <time>2013-03-21T13:36:44Z</time>
      </trkpt>
      <trkpt lat="47.25695" lon="6.10002">
        <ele>482.72</ele>
        <time>2013-03-21T13:36:59Z</time>
      </trkpt>
      <trkpt lat="47.25697" lon="6.10004">
        <ele>482.24</ele>
        <time>2013-03-21T13:37:01Z</time>
      </trkpt>
      <trkpt lat="47.25699" lon="6.10005">
        <ele>482.24</ele>
        <time>2013-03-21T13:37:19Z</time>
      </trkpt>
      <trkpt lat="47.25699" lon="6.10005">
        <ele>481.76</ele>
        <time>2013-03-21T13:37:29Z</time>
      </trkpt>
      <trkpt lat="47.2571" lon="6.10011">
        <ele>480.8</ele>
        <time>2013-03-21T13:37:44Z</time>
      </trkpt>
      <trkpt lat="47.25713" lon="6.10013">
        <ele>480.8</ele>
        <time>2013-03-21T13:37:47Z</time>
      </trkpt>
      <trkpt lat="47.2572" lon="6.10016">
        <ele>479.84</ele>
        <time>2013-03-21T13:37:53Z</time>
      </trkpt>
      <trkpt lat="47.2573" lon="6.10019">
        <ele>479.84</ele>
        <time>2013-03-21T13:38:01Z</time>
      </trkpt>
      <trkpt lat="47.25732" lon="6.10019">
        <ele>479.84</ele>
        <time>2013-03-21T13:38:03Z</time>
      </trkpt>
      <trkpt lat="47.25743" lon="6.10022">
        <ele>479.84</ele>
        <time>2013-03-21T13:38:12Z</time>
      </trkpt>
      <trkpt lat="47.25764" lon="6.10028">
        <ele>478.87</ele>
        <time>2013-03-21T13:38:29Z</time>
      </trkpt>
      <trkpt lat="47.2577" lon="6.1003">
        <ele>477.91</ele>
        <time>2013-03-21T13:38:34Z</time>
      </trkpt>
      <trkpt lat="47.25787" lon="6.10033">
        <ele>476.95</ele>
        <time>2013-03-21T13:38:49Z</time>
      </trkpt>
      <trkpt lat="47.25802" lon="6.10041">
        <ele>475.99</ele>
        <time>2013-03-21T13:38:59Z</time>
      </trkpt>
      <trkpt lat="47.25817" lon="6.10054">
        <ele>474.07</ele>
        <time>2013-03-21T13:39:13Z</time>
      </trkpt>
      <trkpt lat="47.25829" lon="6.10071">
        <ele>472.14</ele>
        <time>2013-03-21T13:39:28Z</time>
      </trkpt>
      <trkpt lat="47.25835" lon="6.10076">
        <ele>471.18</ele>
        <time>2013-03-21T13:39:35Z</time>
      </trkpt>
      <trkpt lat="47.2584" lon="6.10079">
        <ele>470.22</ele>
        <time>2013-03-21T13:39:39Z</time>
      </trkpt>
      <trkpt lat="47.25847" lon="6.10074">
        <ele>470.22</ele>
        <time>2013-03-21T13:39:48Z</time>
      </trkpt>
      <trkpt lat="47.25858" lon="6.10067">
        <ele>469.74</ele>
        <time>2013-03-21T13:39:57Z</time>
      </trkpt>
      <trkpt lat="47.25866" lon="6.10058">
        <ele>469.74</ele>
        <time>2013-03-21T13:40:02Z</time>
      </trkpt>
      <trkpt lat="47.25876" lon="6.10058">
        <ele>468.3</ele>
        <time>2013-03-21T13:40:20Z</time>
      </trkpt>
      <trkpt lat="47.25878" lon="6.10053">
        <ele>467.82</ele>
        <time>2013-03-21T13:40:24Z</time>
      </trkpt>
      <trkpt lat="47.25878" lon="6.1005">
        <ele>468.3</ele>
        <time>2013-03-21T13:40:41Z</time>
      </trkpt>
      <trkpt lat="47.25878" lon="6.1005">
        <ele>468.3</ele>
        <time>2013-03-21T13:41:11Z</time>
      </trkpt>
      <trkpt lat="47.25882" lon="6.1005">
        <ele>468.3</ele>
        <time>2013-03-21T13:41:36Z</time>
      </trkpt>
      <trkpt lat="47.25892" lon="6.10044">
        <ele>468.78</ele>
        <time>2013-03-21T13:41:45Z</time>
      </trkpt>
      <trkpt lat="47.25896" lon="6.10042">
        <ele>468.3</ele>
        <time>2013-03-21T13:41:51Z</time>
      </trkpt>
      <trkpt lat="47.25904" lon="6.10042">
        <ele>469.26</ele>
        <time>2013-03-21T13:42:00Z</time>
      </trkpt>
      <trkpt lat="47.25912" lon="6.10043">
        <ele>469.26</ele>
        <time>2013-03-21T13:42:05Z</time>
      </trkpt>
      <trkpt lat="47.25918" lon="6.10043">
        <ele>469.26</ele>
        <time>2013-03-21T13:42:12Z</time>
      </trkpt>
      <trkpt lat="47.25922" lon="6.10044">
        <ele>469.26</ele>
        <time>2013-03-21T13:42:15Z</time>
      </trkpt>
      <trkpt lat="47.2594" lon="6.10046">
        <ele>469.74</ele>
        <time>2013-03-21T13:42:31Z</time>
      </trkpt>
      <trkpt lat="47.25956" lon="6.10043">
        <ele>468.3</ele>
        <time>2013-03-21T13:42:49Z</time>
      </trkpt>
      <trkpt lat="47.25971" lon="6.10039">
        <ele>467.34</ele>
        <time>2013-03-21T13:43:06Z</time>
      </trkpt>
      <trkpt lat="47.25982" lon="6.10038">
        <ele>466.38</ele>
        <time>2013-03-21T13:43:21Z</time>
      </trkpt>
      <trkpt lat="47.25997" lon="6.10035">
        <ele>464.93</ele>
        <time>2013-03-21T13:43:37Z</time>
      </trkpt>
      <trkpt lat="47.26011" lon="6.10032">
        <ele>462.53</ele>
        <time>2013-03-21T13:43:53Z</time>
      </trkpt>
      <trkpt lat="47.26027" lon="6.10027">
        <ele>459.65</ele>
        <time>2013-03-21T13:44:10Z</time>
      </trkpt>
      <trkpt lat="47.26032" lon="6.10023">
        <ele>457.72</ele>
        <time>2013-03-21T13:44:22Z</time>
      </trkpt>
      <trkpt lat="47.26041" lon="6.10023">
        <ele>456.28</ele>
        <time>2013-03-21T13:44:32Z</time>
      </trkpt>
      <trkpt lat="47.26048" lon="6.10034">
        <ele>454.84</ele>
        <time>2013-03-21T13:44:47Z</time>
      </trkpt>
      <trkpt lat="47.26049" lon="6.10057">
        <ele>453.88</ele>
        <time>2013-03-21T13:45:05Z</time>
      </trkpt>
      <trkpt lat="47.26048" lon="6.10081">
        <ele>453.88</ele>
        <time>2013-03-21T13:45:22Z</time>
      </trkpt>
      <trkpt lat="47.26041" lon="6.10099">
        <ele>454.36</ele>
        <time>2013-03-21T13:45:40Z</time>
      </trkpt>
      <trkpt lat="47.26031" lon="6.10115">
        <ele>453.88</ele>
        <time>2013-03-21T13:45:52Z</time>
      </trkpt>
      <trkpt lat="47.26024" lon="6.10128">
        <ele>453.4</ele>
        <time>2013-03-21T13:46:01Z</time>
      </trkpt>
      <trkpt lat="47.26021" lon="6.10132">
        <ele>452.92</ele>
        <time>2013-03-21T13:46:05Z</time>
      </trkpt>
      <trkpt lat="47.2601" lon="6.10152">
        <ele>451.96</ele>
        <time>2013-03-21T13:46:20Z</time>
      </trkpt>
      <trkpt lat="47.26004" lon="6.10175">
        <ele>450.03</ele>
        <time>2013-03-21T13:46:36Z</time>
      </trkpt>
      <trkpt lat="47.26005" lon="6.10197">
        <ele>447.15</ele>
        <time>2013-03-21T13:46:48Z</time>
      </trkpt>
      <trkpt lat="47.26011" lon="6.10215">
        <ele>445.23</ele>
        <time>2013-03-21T13:47:03Z</time>
      </trkpt>
      <trkpt lat="47.26009" lon="6.1023">
        <ele>443.79</ele>
        <time>2013-03-21T13:47:14Z</time>
      </trkpt>
      <trkpt lat="47.26007" lon="6.10253">
        <ele>441.86</ele>
        <time>2013-03-21T13:47:27Z</time>
      </trkpt>
      <trkpt lat="47.26009" lon="6.1028">
        <ele>439.46</ele>
        <time>2013-03-21T13:47:43Z</time>
      </trkpt>
      <trkpt lat="47.26009" lon="6.10284">
        <ele>439.46</ele>
        <time>2013-03-21T13:47:46Z</time>
      </trkpt>
      <trkpt lat="47.26012" lon="6.1031">
        <ele>437.06</ele>
        <time>2013-03-21T13:48:03Z</time>
      </trkpt>
      <trkpt lat="47.2602" lon="6.10335">
        <ele>434.65</ele>
        <time>2013-03-21T13:48:20Z</time>
      </trkpt>
      <trkpt lat="47.26029" lon="6.10353">
        <ele>432.25</ele>
        <time>2013-03-21T13:48:34Z</time>
      </trkpt>
      <trkpt lat="47.26031" lon="6.10359">
        <ele>432.25</ele>
        <time>2013-03-21T13:48:37Z</time>
      </trkpt>
      <trkpt lat="47.26035" lon="6.10362">
        <ele>427.44</ele>
        <time>2013-03-21T13:48:41Z</time>
      </trkpt>
      <trkpt lat="47.26036" lon="6.10362">
        <ele>431.77</ele>
        <time>2013-03-21T13:48:42Z</time>
      </trkpt>
      <trkpt lat="47.26038" lon="6.10364">
        <ele>430.81</ele>
        <time>2013-03-21T13:48:46Z</time>
      </trkpt>
      <trkpt lat="47.26056" lon="6.10361">
        <ele>428.89</ele>
        <time>2013-03-21T13:49:02Z</time>
      </trkpt>
      <trkpt lat="47.26069" lon="6.10349">
        <ele>427.92</ele>
        <time>2013-03-21T13:49:16Z</time>
      </trkpt>
      <trkpt lat="47.2607" lon="6.10343">
        <ele>427.44</ele>
        <time>2013-03-21T13:49:38Z</time>
      </trkpt>
      <trkpt lat="47.26082" lon="6.1032">
        <ele>426.48</ele>
        <time>2013-03-21T13:49:49Z</time>
      </trkpt>
      <trkpt lat="47.26084" lon="6.10316">
        <ele>426.48</ele>
        <time>2013-03-21T13:49:51Z</time>
      </trkpt>
      <trkpt lat="47.2609" lon="6.10301">
        <ele>425.52</ele>
        <time>2013-03-21T13:49:58Z</time>
      </trkpt>
      <trkpt lat="47.261" lon="6.10271">
        <ele>423.6</ele>
        <time>2013-03-21T13:50:14Z</time>
      </trkpt>
      <trkpt lat="47.26108" lon="6.10238">
        <ele>422.64</ele>
        <time>2013-03-21T13:50:31Z</time>
      </trkpt>
      <trkpt lat="47.26111" lon="6.10209">
        <ele>422.16</ele>
        <time>2013-03-21T13:50:47Z</time>
      </trkpt>
      <trkpt lat="47.26115" lon="6.10175">
        <ele>422.64</ele>
        <time>2013-03-21T13:51:03Z</time>
      </trkpt>
      <trkpt lat="47.2612" lon="6.10147">
        <ele>422.16</ele>
        <time>2013-03-21T13:51:18Z</time>
      </trkpt>
      <trkpt lat="47.26122" lon="6.10118">
        <ele>420.23</ele>
        <time>2013-03-21T13:51:34Z</time>
      </trkpt>
      <trkpt lat="47.26131" lon="6.10094">
        <ele>417.35</ele>
        <time>2013-03-21T13:51:49Z</time>
      </trkpt>
      <trkpt lat="47.26138" lon="6.10078">
        <ele>416.87</ele>
        <time>2013-03-21T13:52:00Z</time>
      </trkpt>
      <trkpt lat="47.26148" lon="6.10055">
        <ele>414.95</ele>
        <time>2013-03-21T13:52:16Z</time>
      </trkpt>
      <trkpt lat="47.2616" lon="6.10037">
        <ele>413.5</ele>
        <time>2013-03-21T13:52:32Z</time>
      </trkpt>
      <trkpt lat="47.26174" lon="6.10035">
        <ele>413.5</ele>
        <time>2013-03-21T13:52:49Z</time>
      </trkpt>
      <trkpt lat="47.26174" lon="6.10035">
        <ele>413.5</ele>
        <time>2013-03-21T13:53:16Z</time>
      </trkpt>
      <trkpt lat="47.26174" lon="6.10035">
        <ele>413.5</ele>
        <time>2013-03-21T13:53:47Z</time>
      </trkpt>
      <trkpt lat="47.26175" lon="6.10035">
        <ele>413.5</ele>
        <time>2013-03-21T13:54:08Z</time>
      </trkpt>
      <trkpt lat="47.26183" lon="6.10038">
        <ele>415.43</ele>
        <time>2013-03-21T13:54:26Z</time>
      </trkpt>
      <trkpt lat="47.26191" lon="6.10033">
        <ele>416.87</ele>
        <time>2013-03-21T13:54:43Z</time>
      </trkpt>
      <trkpt lat="47.26207" lon="6.10031">
        <ele>418.31</ele>
        <time>2013-03-21T13:54:59Z</time>
      </trkpt>
      <trkpt lat="47.26219" lon="6.10023">
        <ele>418.79</ele>
        <time>2013-03-21T13:55:13Z</time>
      </trkpt>
      <trkpt lat="47.26226" lon="6.10021">
        <ele>418.31</ele>
        <time>2013-03-21T13:55:19Z</time>
      </trkpt>
      <trkpt lat="47.26235" lon="6.10022">
        <ele>417.83</ele>
        <time>2013-03-21T13:55:27Z</time>
      </trkpt>
      <trkpt lat="47.26248" lon="6.10019">
        <ele>416.39</ele>
        <time>2013-03-21T13:55:43Z</time>
      </trkpt>
      <trkpt lat="47.26252" lon="6.10014">
        <ele>413.5</ele>
        <time>2013-03-21T13:55:56Z</time>
      </trkpt>
      <trkpt lat="47.26252" lon="6.09991">
        <ele>410.62</ele>
        <time>2013-03-21T13:56:12Z</time>
      </trkpt>
      <trkpt lat="47.26251" lon="6.09972">
        <ele>408.22</ele>
        <time>2013-03-21T13:56:25Z</time>
      </trkpt>
      <trkpt lat="47.26254" lon="6.09962">
        <ele>407.26</ele>
        <time>2013-03-21T13:56:30Z</time>
      </trkpt>
      <trkpt lat="47.26258" lon="6.0994">
        <ele>404.37</ele>
        <time>2013-03-21T13:56:44Z</time>
      </trkpt>
      <trkpt lat="47.26262" lon="6.09923">
        <ele>402.45</ele>
        <time>2013-03-21T13:56:58Z</time>
      </trkpt>
      <trkpt lat="47.26262" lon="6.0992">
        <ele>401.97</ele>
        <time>2013-03-21T13:57:02Z</time>
      </trkpt>
      <trkpt lat="47.26268" lon="6.09901">
        <ele>398.6</ele>
        <time>2013-03-21T13:57:17Z</time>
      </trkpt>
      <trkpt lat="47.26269" lon="6.09895">
        <ele>397.64</ele>
        <time>2013-03-21T13:57:22Z</time>
      </trkpt>
      <trkpt lat="47.26267" lon="6.09878">
        <ele>394.28</ele>
        <time>2013-03-21T13:57:37Z</time>
      </trkpt>
      <trkpt lat="47.26265" lon="6.09872">
        <ele>393.32</ele>
        <time>2013-03-21T13:57:43Z</time>
      </trkpt>
      <trkpt lat="47.26264" lon="6.09861">
        <ele>391.39</ele>
        <time>2013-03-21T13:57:52Z</time>
      </trkpt>
      <trkpt lat="47.26262" lon="6.09853">
        <ele>390.91</ele>
        <time>2013-03-21T13:57:57Z</time>
      </trkpt>
      <trkpt lat="47.26259" lon="6.09848">
        <ele>389.95</ele>
        <time>2013-03-21T13:58:01Z</time>
      </trkpt>
      <trkpt lat="47.26255" lon="6.09821">
        <ele>386.59</ele>
        <time>2013-03-21T13:58:16Z</time>
      </trkpt>
      <trkpt lat="47.26251" lon="6.09804">
        <ele>384.66</ele>
        <time>2013-03-21T13:58:28Z</time>
      </trkpt>
      <trkpt lat="47.26251" lon="6.09793">
        <ele>383.7</ele>
        <time>2013-03-21T13:58:36Z</time>
      </trkpt>
      <trkpt lat="47.26249" lon="6.09785">
        <ele>382.74</ele>
        <time>2013-03-21T13:58:42Z</time>
      </trkpt>
      <trkpt lat="47.26248" lon="6.09768">
        <ele>379.86</ele>
        <time>2013-03-21T13:58:57Z</time>
      </trkpt>
      <trkpt lat="47.26246" lon="6.09748">
        <ele>376.49</ele>
        <time>2013-03-21T13:59:11Z</time>
      </trkpt>
      <trkpt lat="47.26247" lon="6.09731">
        <ele>373.13</ele>
        <time>2013-03-21T13:59:26Z</time>
      </trkpt>
      <trkpt lat="47.26248" lon="6.09713">
        <ele>369.76</ele>
        <time>2013-03-21T13:59:41Z</time>
      </trkpt>
      <trkpt lat="47.26247" lon="6.09705">
        <ele>366.88</ele>
        <time>2013-03-21T13:59:55Z</time>
      </trkpt>
      <trkpt lat="47.26247" lon="6.09705">
        <ele>364.48</ele>
        <time>2013-03-21T14:00:10Z</time>
      </trkpt>
      <trkpt lat="47.26247" lon="6.09705">
        <ele>361.11</ele>
        <time>2013-03-21T14:00:27Z</time>
      </trkpt>
      <trkpt lat="47.26247" lon="6.09705">
        <ele>360.63</ele>
        <time>2013-03-21T14:00:28Z</time>
      </trkpt>
      <trkpt lat="47.26251" lon="6.09665">
        <ele>358.71</ele>
        <time>2013-03-21T14:00:43Z</time>
      </trkpt>
      <trkpt lat="47.26251" lon="6.09652">
        <ele>357.27</ele>
        <time>2013-03-21T14:00:48Z</time>
      </trkpt>
      <trkpt lat="47.26251" lon="6.09632">
        <ele>355.34</ele>
        <time>2013-03-21T14:00:58Z</time>
      </trkpt>
      <trkpt lat="47.26251" lon="6.09611">
        <ele>352.46</ele>
        <time>2013-03-21T14:01:15Z</time>
      </trkpt>
      <trkpt lat="47.26246" lon="6.0959">
        <ele>349.58</ele>
        <time>2013-03-21T14:01:33Z</time>
      </trkpt>
      <trkpt lat="47.26247" lon="6.09578">
        <ele>347.17</ele>
        <time>2013-03-21T14:01:46Z</time>
      </trkpt>
      <trkpt lat="47.26248" lon="6.0956">
        <ele>343.81</ele>
        <time>2013-03-21T14:02:02Z</time>
      </trkpt>
      <trkpt lat="47.2625" lon="6.09545">
        <ele>341.89</ele>
        <time>2013-03-21T14:02:17Z</time>
      </trkpt>
      <trkpt lat="47.26249" lon="6.09545">
        <ele>341.41</ele>
        <time>2013-03-21T14:02:39Z</time>
      </trkpt>
      <trkpt lat="47.26249" lon="6.09544">
        <ele>340.92</ele>
        <time>2013-03-21T14:02:59Z</time>
      </trkpt>
      <trkpt lat="47.26249" lon="6.09544">
        <ele>340.92</ele>
        <time>2013-03-21T14:03:00Z</time>
      </trkpt>
      <trkpt lat="47.26245" lon="6.09532">
        <ele>340.44</ele>
        <time>2013-03-21T14:03:05Z</time>
      </trkpt>
      <trkpt lat="47.26236" lon="6.09501">
        <ele>339</ele>
        <time>2013-03-21T14:03:21Z</time>
      </trkpt>
      <trkpt lat="47.26232" lon="6.0949">
        <ele>338.52</ele>
        <time>2013-03-21T14:03:29Z</time>
      </trkpt>
      <trkpt lat="47.26217" lon="6.09468">
        <ele>337.56</ele>
        <time>2013-03-21T14:03:47Z</time>
      </trkpt>
      <trkpt lat="47.262" lon="6.0946">
        <ele>336.6</ele>
        <time>2013-03-21T14:03:58Z</time>
      </trkpt>
      <trkpt lat="47.26194" lon="6.09454">
        <ele>335.64</ele>
        <time>2013-03-21T14:04:03Z</time>
      </trkpt>
      <trkpt lat="47.26179" lon="6.09444">
        <ele>335.16</ele>
        <time>2013-03-21T14:04:18Z</time>
      </trkpt>
      <trkpt lat="47.26177" lon="6.09443">
        <ele>335.16</ele>
        <time>2013-03-21T14:04:20Z</time>
      </trkpt>
      <trkpt lat="47.26162" lon="6.09431">
        <ele>333.71</ele>
        <time>2013-03-21T14:04:35Z</time>
      </trkpt>
      <trkpt lat="47.2616" lon="6.09412">
        <ele>332.75</ele>
        <time>2013-03-21T14:04:46Z</time>
      </trkpt>
      <trkpt lat="47.26168" lon="6.09403">
        <ele>332.27</ele>
        <time>2013-03-21T14:04:54Z</time>
      </trkpt>
      <trkpt lat="47.26174" lon="6.09401">
        <ele>331.79</ele>
        <time>2013-03-21T14:05:00Z</time>
      </trkpt>
      <trkpt lat="47.26195" lon="6.09409">
        <ele>328.91</ele>
        <time>2013-03-21T14:05:19Z</time>
      </trkpt>
      <trkpt lat="47.26211" lon="6.09411">
        <ele>326.99</ele>
        <time>2013-03-21T14:05:33Z</time>
      </trkpt>
      <trkpt lat="47.26229" lon="6.09417">
        <ele>325.54</ele>
        <time>2013-03-21T14:05:48Z</time>
      </trkpt>
      <trkpt lat="47.26245" lon="6.09421">
        <ele>323.62</ele>
        <time>2013-03-21T14:06:02Z</time>
      </trkpt>
      <trkpt lat="47.26266" lon="6.09415">
        <ele>322.18</ele>
        <time>2013-03-21T14:06:16Z</time>
      </trkpt>
      <trkpt lat="47.26275" lon="6.09407">
        <ele>320.74</ele>
        <time>2013-03-21T14:06:23Z</time>
      </trkpt>
      <trkpt lat="47.26281" lon="6.09395">
        <ele>319.78</ele>
        <time>2013-03-21T14:06:30Z</time>
      </trkpt>
      <trkpt lat="47.2629" lon="6.09369">
        <ele>317.37</ele>
        <time>2013-03-21T14:06:46Z</time>
      </trkpt>
      <trkpt lat="47.26296" lon="6.09348">
        <ele>316.41</ele>
        <time>2013-03-21T14:06:59Z</time>
      </trkpt>
      <trkpt lat="47.26299" lon="6.0934">
        <ele>316.41</ele>
        <time>2013-03-21T14:07:04Z</time>
      </trkpt>
      <trkpt lat="47.26301" lon="6.09326">
        <ele>315.45</ele>
        <time>2013-03-21T14:07:12Z</time>
      </trkpt>
      <trkpt lat="47.26309" lon="6.093">
        <ele>313.53</ele>
        <time>2013-03-21T14:07:28Z</time>
      </trkpt>
      <trkpt lat="47.26317" lon="6.09279">
        <ele>313.05</ele>
        <time>2013-03-21T14:07:41Z</time>
      </trkpt>
      <trkpt lat="47.26325" lon="6.09258">
        <ele>311.6</ele>
        <time>2013-03-21T14:07:54Z</time>
      </trkpt>
      <trkpt lat="47.2633" lon="6.09236">
        <ele>310.64</ele>
        <time>2013-03-21T14:08:06Z</time>
      </trkpt>
      <trkpt lat="47.26336" lon="6.09207">
        <ele>309.68</ele>
        <time>2013-03-21T14:08:21Z</time>
      </trkpt>
      <trkpt lat="47.2634" lon="6.09185">
        <ele>308.72</ele>
        <time>2013-03-21T14:08:33Z</time>
      </trkpt>
      <trkpt lat="47.26347" lon="6.0916">
        <ele>307.28</ele>
        <time>2013-03-21T14:08:47Z</time>
      </trkpt>
      <trkpt lat="47.26356" lon="6.09135">
        <ele>306.32</ele>
        <time>2013-03-21T14:09:02Z</time>
      </trkpt>
      <trkpt lat="47.26362" lon="6.09113">
        <ele>305.84</ele>
        <time>2013-03-21T14:09:16Z</time>
      </trkpt>
      <trkpt lat="47.26379" lon="6.09093">
        <ele>304.39</ele>
        <time>2013-03-21T14:09:32Z</time>
      </trkpt>
      <trkpt lat="47.26388" lon="6.09075">
        <ele>304.39</ele>
        <time>2013-03-21T14:09:46Z</time>
      </trkpt>
      <trkpt lat="47.26405" lon="6.09054">
        <ele>303.43</ele>
        <time>2013-03-21T14:10:03Z</time>
      </trkpt>
      <trkpt lat="47.26419" lon="6.09034">
        <ele>302.95</ele>
        <time>2013-03-21T14:10:18Z</time>
      </trkpt>
      <trkpt lat="47.26434" lon="6.09014">
        <ele>301.99</ele>
        <time>2013-03-21T14:10:33Z</time>
      </trkpt>
      <trkpt lat="47.26447" lon="6.09005">
        <ele>301.51</ele>
        <time>2013-03-21T14:10:47Z</time>
      </trkpt>
      <trkpt lat="47.26455" lon="6.09003">
        <ele>301.03</ele>
        <time>2013-03-21T14:10:55Z</time>
      </trkpt>
      <trkpt lat="47.26474" lon="6.0901">
        <ele>299.59</ele>
        <time>2013-03-21T14:11:11Z</time>
      </trkpt>
      <trkpt lat="47.26485" lon="6.0901">
        <ele>297.67</ele>
        <time>2013-03-21T14:11:20Z</time>
      </trkpt>
      <trkpt lat="47.26491" lon="6.08995">
        <ele>296.22</ele>
        <time>2013-03-21T14:11:28Z</time>
      </trkpt>
      <trkpt lat="47.26486" lon="6.08979">
        <ele>295.26</ele>
        <time>2013-03-21T14:11:38Z</time>
      </trkpt>
      <trkpt lat="47.26481" lon="6.08974">
        <ele>294.3</ele>
        <time>2013-03-21T14:11:42Z</time>
      </trkpt>
      <trkpt lat="47.2647" lon="6.08956">
        <ele>293.34</ele>
        <time>2013-03-21T14:11:56Z</time>
      </trkpt>
      <trkpt lat="47.26458" lon="6.08941">
        <ele>291.42</ele>
        <time>2013-03-21T14:12:11Z</time>
      </trkpt>
      <trkpt lat="47.26442" lon="6.08929">
        <ele>289.97</ele>
        <time>2013-03-21T14:12:25Z</time>
      </trkpt>
      <trkpt lat="47.26438" lon="6.08926">
        <ele>289.49</ele>
        <time>2013-03-21T14:12:29Z</time>
      </trkpt>
      <trkpt lat="47.2644" lon="6.08916">
        <ele>287.09</ele>
        <time>2013-03-21T14:12:39Z</time>
      </trkpt>
      <trkpt lat="47.26457" lon="6.08921">
        <ele>285.65</ele>
        <time>2013-03-21T14:12:53Z</time>
      </trkpt>
      <trkpt lat="47.26478" lon="6.08925">
        <ele>283.73</ele>
        <time>2013-03-21T14:13:09Z</time>
      </trkpt>
      <trkpt lat="47.26487" lon="6.08927">
        <ele>282.28</ele>
        <time>2013-03-21T14:13:17Z</time>
      </trkpt>
      <trkpt lat="47.26494" lon="6.08926">
        <ele>281.8</ele>
        <time>2013-03-21T14:13:22Z</time>
      </trkpt>
      <trkpt lat="47.26499" lon="6.08928">
        <ele>281.32</ele>
        <time>2013-03-21T14:13:27Z</time>
      </trkpt>
      <trkpt lat="47.26519" lon="6.0893">
        <ele>278.92</ele>
        <time>2013-03-21T14:13:43Z</time>
      </trkpt>
      <trkpt lat="47.26529" lon="6.0893">
        <ele>278.44</ele>
        <time>2013-03-21T14:13:51Z</time>
      </trkpt>
      <trkpt lat="47.26539" lon="6.08928">
        <ele>277</ele>
        <time>2013-03-21T14:14:00Z</time>
      </trkpt>
      <trkpt lat="47.26558" lon="6.08929">
        <ele>274.59</ele>
        <time>2013-03-21T14:14:16Z</time>
      </trkpt>
      <trkpt lat="47.26577" lon="6.08929">
        <ele>273.15</ele>
        <time>2013-03-21T14:14:31Z</time>
      </trkpt>
      <trkpt lat="47.26584" lon="6.08927">
        <ele>272.19</ele>
        <time>2013-03-21T14:14:38Z</time>
      </trkpt>
      <trkpt lat="47.2659" lon="6.08928">
        <ele>271.71</ele>
        <time>2013-03-21T14:14:43Z</time>
      </trkpt>
      <trkpt lat="47.26607" lon="6.0893">
        <ele>269.79</ele>
        <time>2013-03-21T14:14:58Z</time>
      </trkpt>
      <trkpt lat="47.26625" lon="6.0893">
        <ele>267.86</ele>
        <time>2013-03-21T14:15:13Z</time>
      </trkpt>
      <trkpt lat="47.26641" lon="6.08931">
        <ele>265.46</ele>
        <time>2013-03-21T14:15:28Z</time>
      </trkpt>
      <trkpt lat="47.26659" lon="6.08931">
        <ele>263.54</ele>
        <time>2013-03-21T14:15:43Z</time>
      </trkpt>
      <trkpt lat="47.26678" lon="6.08932">
        <ele>260.65</ele>
        <time>2013-03-21T14:15:57Z</time>
      </trkpt>
      <trkpt lat="47.26693" lon="6.08932">
        <ele>258.73</ele>
        <time>2013-03-21T14:16:11Z</time>
      </trkpt>
      <trkpt lat="47.26711" lon="6.08931">
        <ele>256.33</ele>
        <time>2013-03-21T14:16:27Z</time>
      </trkpt>
      <trkpt lat="47.26726" lon="6.08917">
        <ele>253.44</ele>
        <time>2013-03-21T14:16:41Z</time>
      </trkpt>
      <trkpt lat="47.26738" lon="6.08894">
        <ele>251.52</ele>
        <time>2013-03-21T14:16:56Z</time>
      </trkpt>
      <trkpt lat="47.26748" lon="6.08877">
        <ele>250.56</ele>
        <time>2013-03-21T14:17:10Z</time>
      </trkpt>
      <trkpt lat="47.26765" lon="6.08869">
        <ele>250.56</ele>
        <time>2013-03-21T14:17:23Z</time>
      </trkpt>
      <trkpt lat="47.26781" lon="6.08851">
        <ele>250.08</ele>
        <time>2013-03-21T14:17:39Z</time>
      </trkpt>
      <trkpt lat="47.26786" lon="6.08845">
        <ele>250.08</ele>
        <time>2013-03-21T14:17:44Z</time>
      </trkpt>
      <trkpt lat="47.268" lon="6.08829">
        <ele>250.08</ele>
        <time>2013-03-21T14:17:59Z</time>
      </trkpt>
      <trkpt lat="47.26815" lon="6.08815">
        <ele>250.08</ele>
        <time>2013-03-21T14:18:13Z</time>
      </trkpt>
      <trkpt lat="47.26831" lon="6.08802">
        <ele>249.6</ele>
        <time>2013-03-21T14:18:27Z</time>
      </trkpt>
      <trkpt lat="47.26836" lon="6.08799">
        <ele>250.08</ele>
        <time>2013-03-21T14:18:31Z</time>
      </trkpt>
      <trkpt lat="47.26846" lon="6.08782">
        <ele>250.08</ele>
        <time>2013-03-21T14:18:44Z</time>
      </trkpt>
      <trkpt lat="47.26846" lon="6.08753">
        <ele>250.08</ele>
        <time>2013-03-21T14:19:00Z</time>
      </trkpt>
      <trkpt lat="47.26844" lon="6.08725">
        <ele>249.6</ele>
        <time>2013-03-21T14:19:15Z</time>
      </trkpt>
      <trkpt lat="47.26844" lon="6.08725">
        <ele>249.6</ele>
        <time>2013-03-21T14:19:18Z</time>
      </trkpt>
      <trkpt lat="47.26839" lon="6.08695">
        <ele>249.6</ele>
        <time>2013-03-21T14:19:34Z</time>
      </trkpt>
      <trkpt lat="47.26836" lon="6.08671">
        <ele>249.12</ele>
        <time>2013-03-21T14:19:48Z</time>
      </trkpt>
      <trkpt lat="47.26838" lon="6.08669">
        <ele>249.6</ele>
        <time>2013-03-21T14:19:52Z</time>
      </trkpt>
      <trkpt lat="47.26839" lon="6.08642">
        <ele>249.12</ele>
        <time>2013-03-21T14:20:07Z</time>
      </trkpt>
      <trkpt lat="47.26842" lon="6.08619">
        <ele>250.08</ele>
        <time>2013-03-21T14:20:21Z</time>
      </trkpt>
      <trkpt lat="47.26842" lon="6.08616">
        <ele>249.6</ele>
        <time>2013-03-21T14:20:23Z</time>
      </trkpt>
      <trkpt lat="47.26846" lon="6.08604">
        <ele>250.08</ele>
        <time>2013-03-21T14:20:30Z</time>
      </trkpt>
      <trkpt lat="47.26853" lon="6.08584">
        <ele>250.56</ele>
        <time>2013-03-21T14:20:42Z</time>
      </trkpt>
      <trkpt lat="47.26862" lon="6.08567">
        <ele>251.04</ele>
        <time>2013-03-21T14:20:55Z</time>
      </trkpt>
      <trkpt lat="47.26875" lon="6.08547">
        <ele>251.04</ele>
        <time>2013-03-21T14:21:09Z</time>
      </trkpt>
      <trkpt lat="47.2689" lon="6.08534">
        <ele>251.52</ele>
        <time>2013-03-21T14:21:24Z</time>
      </trkpt>
      <trkpt lat="47.26907" lon="6.08525">
        <ele>252</ele>
        <time>2013-03-21T14:21:40Z</time>
      </trkpt>
      <trkpt lat="47.26924" lon="6.08523">
        <ele>252.48</ele>
        <time>2013-03-21T14:21:55Z</time>
      </trkpt>
      <trkpt lat="47.26937" lon="6.08519">
        <ele>253.44</ele>
        <time>2013-03-21T14:22:08Z</time>
      </trkpt>
      <trkpt lat="47.2694" lon="6.08518">
        <ele>252.96</ele>
        <time>2013-03-21T14:22:11Z</time>
      </trkpt>
      <trkpt lat="47.26958" lon="6.08511">
        <ele>253.93</ele>
        <time>2013-03-21T14:22:27Z</time>
      </trkpt>
      <trkpt lat="47.26975" lon="6.08506">
        <ele>253.93</ele>
        <time>2013-03-21T14:22:41Z</time>
      </trkpt>
      <trkpt lat="47.26988" lon="6.08503">
        <ele>253.93</ele>
        <time>2013-03-21T14:22:56Z</time>
      </trkpt>
      <trkpt lat="47.26989" lon="6.08503">
        <ele>254.41</ele>
        <time>2013-03-21T14:23:04Z</time>
      </trkpt>
      <trkpt lat="47.27008" lon="6.08498">
        <ele>252.96</ele>
        <time>2013-03-21T14:23:20Z</time>
      </trkpt>
      <trkpt lat="47.2703" lon="6.08494">
        <ele>253.44</ele>
        <time>2013-03-21T14:23:37Z</time>
      </trkpt>
      <trkpt lat="47.2703" lon="6.08494">
        <ele>253.44</ele>
        <time>2013-03-21T14:23:46Z</time>
      </trkpt>
      <trkpt lat="47.27033" lon="6.08494">
        <ele>253.44</ele>
        <time>2013-03-21T14:23:48Z</time>
      </trkpt>
      <trkpt lat="47.2705" lon="6.08493">
        <ele>252.96</ele>
        <time>2013-03-21T14:24:00Z</time>
      </trkpt>
      <trkpt lat="47.2707" lon="6.0849">
        <ele>252</ele>
        <time>2013-03-21T14:24:14Z</time>
      </trkpt>
      <trkpt lat="47.27071" lon="6.0849">
        <ele>251.52</ele>
        <time>2013-03-21T14:24:28Z</time>
      </trkpt>
      <trkpt lat="47.27081" lon="6.08493">
        <ele>251.04</ele>
        <time>2013-03-21T14:24:42Z</time>
      </trkpt>
      <trkpt lat="47.27081" lon="6.08495">
        <ele>251.04</ele>
        <time>2013-03-21T14:24:59Z</time>
      </trkpt>
      <trkpt lat="47.27081" lon="6.08495">
        <ele>252</ele>
        <time>2013-03-21T14:25:18Z</time>
      </trkpt>
      <trkpt lat="47.27081" lon="6.08495">
        <ele>251.52</ele>
        <time>2013-03-21T14:25:48Z</time>
      </trkpt>
      <trkpt lat="47.27081" lon="6.08493">
        <ele>251.04</ele>
        <time>2013-03-21T14:26:01Z</time>
      </trkpt>
      <trkpt lat="47.27081" lon="6.08498">
        <ele>251.04</ele>
        <time>2013-03-21T14:26:12Z</time>
      </trkpt>
      <trkpt lat="47.27085" lon="6.08525">
        <ele>251.04</ele>
        <time>2013-03-21T14:26:28Z</time>
      </trkpt>
      <trkpt lat="47.27088" lon="6.08553">
        <ele>251.04</ele>
        <time>2013-03-21T14:26:44Z</time>
      </trkpt>
      <trkpt lat="47.27092" lon="6.08579">
        <ele>251.04</ele>
        <time>2013-03-21T14:26:58Z</time>
      </trkpt>
      <trkpt lat="47.27092" lon="6.08601">
        <ele>251.52</ele>
        <time>2013-03-21T14:27:11Z</time>
      </trkpt>
      <trkpt lat="47.27093" lon="6.08626">
        <ele>251.04</ele>
        <time>2013-03-21T14:27:25Z</time>
      </trkpt>
      <trkpt lat="47.27094" lon="6.08652">
        <ele>251.04</ele>
        <time>2013-03-21T14:27:39Z</time>
      </trkpt>
      <trkpt lat="47.27093" lon="6.08681">
        <ele>251.04</ele>
        <time>2013-03-21T14:27:54Z</time>
      </trkpt>
      <trkpt lat="47.2709" lon="6.08711">
        <ele>251.04</ele>
        <time>2013-03-21T14:28:09Z</time>
      </trkpt>
      <trkpt lat="47.27087" lon="6.08742">
        <ele>251.04</ele>
        <time>2013-03-21T14:28:26Z</time>
      </trkpt>
      <trkpt lat="47.27084" lon="6.08772">
        <ele>251.04</ele>
        <time>2013-03-21T14:28:42Z</time>
      </trkpt>
      <trkpt lat="47.2708" lon="6.088">
        <ele>251.52</ele>
        <time>2013-03-21T14:28:57Z</time>
      </trkpt>
      <trkpt lat="47.27075" lon="6.0883">
        <ele>251.52</ele>
        <time>2013-03-21T14:29:13Z</time>
      </trkpt>
      <trkpt lat="47.27072" lon="6.08861">
        <ele>252</ele>
        <time>2013-03-21T14:29:29Z</time>
      </trkpt>
      <trkpt lat="47.27068" lon="6.08888">
        <ele>251.52</ele>
        <time>2013-03-21T14:29:44Z</time>
      </trkpt>
      <trkpt lat="47.27062" lon="6.08918">
        <ele>251.04</ele>
        <time>2013-03-21T14:30:00Z</time>
      </trkpt>
      <trkpt lat="47.27057" lon="6.08948">
        <ele>251.04</ele>
        <time>2013-03-21T14:30:16Z</time>
      </trkpt>
      <trkpt lat="47.27053" lon="6.08978">
        <ele>251.04</ele>
        <time>2013-03-21T14:30:31Z</time>
      </trkpt>
      <trkpt lat="47.27049" lon="6.09005">
        <ele>250.56</ele>
        <time>2013-03-21T14:30:46Z</time>
      </trkpt>
      <trkpt lat="47.27044" lon="6.09033">
        <ele>250.56</ele>
        <time>2013-03-21T14:31:01Z</time>
      </trkpt>
      <trkpt lat="47.27041" lon="6.09061">
        <ele>250.56</ele>
        <time>2013-03-21T14:31:16Z</time>
      </trkpt>
      <trkpt lat="47.27037" lon="6.09087">
        <ele>250.56</ele>
        <time>2013-03-21T14:31:30Z</time>
      </trkpt>
      <trkpt lat="47.27033" lon="6.09115">
        <ele>251.04</ele>
        <time>2013-03-21T14:31:45Z</time>
      </trkpt>
      <trkpt lat="47.27027" lon="6.09145">
        <ele>250.56</ele>
        <time>2013-03-21T14:32:01Z</time>
      </trkpt>
      <trkpt lat="47.27023" lon="6.09174">
        <ele>251.04</ele>
        <time>2013-03-21T14:32:17Z</time>
      </trkpt>
      <trkpt lat="47.27018" lon="6.09207">
        <ele>250.56</ele>
        <time>2013-03-21T14:32:34Z</time>
      </trkpt>
      <trkpt lat="47.27015" lon="6.0923">
        <ele>250.56</ele>
        <time>2013-03-21T14:32:48Z</time>
      </trkpt>
      <trkpt lat="47.2701" lon="6.09256">
        <ele>250.56</ele>
        <time>2013-03-21T14:33:02Z</time>
      </trkpt>
      <trkpt lat="47.27004" lon="6.09282">
        <ele>250.08</ele>
        <time>2013-03-21T14:33:18Z</time>
      </trkpt>
      <trkpt lat="47.27" lon="6.09309">
        <ele>250.56</ele>
        <time>2013-03-21T14:33:33Z</time>
      </trkpt>
      <trkpt lat="47.26996" lon="6.09347">
        <ele>250.56</ele>
        <time>2013-03-21T14:33:53Z</time>
      </trkpt>
      <trkpt lat="47.26992" lon="6.09374">
        <ele>250.08</ele>
        <time>2013-03-21T14:34:07Z</time>
      </trkpt>
      <trkpt lat="47.26991" lon="6.09388">
        <ele>250.08</ele>
        <time>2013-03-21T14:34:15Z</time>
      </trkpt>
      <trkpt lat="47.26989" lon="6.09419">
        <ele>250.56</ele>
        <time>2013-03-21T14:34:31Z</time>
      </trkpt>
      <trkpt lat="47.26987" lon="6.09448">
        <ele>250.56</ele>
        <time>2013-03-21T14:34:45Z</time>
      </trkpt>
      <trkpt lat="47.26984" lon="6.09478">
        <ele>250.56</ele>
        <time>2013-03-21T14:35:00Z</time>
      </trkpt>
      <trkpt lat="47.26981" lon="6.09505">
        <ele>250.56</ele>
        <time>2013-03-21T14:35:14Z</time>
      </trkpt>
      <trkpt lat="47.26981" lon="6.09534">
        <ele>250.56</ele>
        <time>2013-03-21T14:35:29Z</time>
      </trkpt>
      <trkpt lat="47.26978" lon="6.09548">
        <ele>250.08</ele>
        <time>2013-03-21T14:35:43Z</time>
      </trkpt>
      <trkpt lat="47.26978" lon="6.09577">
        <ele>250.08</ele>
        <time>2013-03-21T14:35:57Z</time>
      </trkpt>
      <trkpt lat="47.26978" lon="6.09603">
        <ele>250.08</ele>
        <time>2013-03-21T14:36:11Z</time>
      </trkpt>
      <trkpt lat="47.26978" lon="6.09634">
        <ele>250.08</ele>
        <time>2013-03-21T14:36:26Z</time>
      </trkpt>
      <trkpt lat="47.26978" lon="6.09666">
        <ele>250.56</ele>
        <time>2013-03-21T14:36:42Z</time>
      </trkpt>
      <trkpt lat="47.26978" lon="6.09696">
        <ele>250.08</ele>
        <time>2013-03-21T14:36:59Z</time>
      </trkpt>
      <trkpt lat="47.26978" lon="6.09728">
        <ele>249.6</ele>
        <time>2013-03-21T14:37:14Z</time>
      </trkpt>
      <trkpt lat="47.26982" lon="6.09758">
        <ele>250.08</ele>
        <time>2013-03-21T14:37:29Z</time>
      </trkpt>
      <trkpt lat="47.26983" lon="6.09786">
        <ele>250.56</ele>
        <time>2013-03-21T14:37:44Z</time>
      </trkpt>
      <trkpt lat="47.26983" lon="6.09815">
        <ele>250.08</ele>
        <time>2013-03-21T14:37:58Z</time>
      </trkpt>
      <trkpt lat="47.26984" lon="6.09846">
        <ele>250.08</ele>
        <time>2013-03-21T14:38:15Z</time>
      </trkpt>
      <trkpt lat="47.26986" lon="6.09873">
        <ele>250.56</ele>
        <time>2013-03-21T14:38:30Z</time>
      </trkpt>
      <trkpt lat="47.26987" lon="6.0989">
        <ele>250.08</ele>
        <time>2013-03-21T14:38:40Z</time>
      </trkpt>
      <trkpt lat="47.26988" lon="6.0992">
        <ele>249.6</ele>
        <time>2013-03-21T14:38:56Z</time>
      </trkpt>
      <trkpt lat="47.26987" lon="6.09951">
        <ele>250.08</ele>
        <time>2013-03-21T14:39:11Z</time>
      </trkpt>
      <trkpt lat="47.26984" lon="6.09982">
        <ele>250.56</ele>
        <time>2013-03-21T14:39:26Z</time>
      </trkpt>
      <trkpt lat="47.2698" lon="6.10009">
        <ele>249.6</ele>
        <time>2013-03-21T14:39:41Z</time>
      </trkpt>
      <trkpt lat="47.26977" lon="6.10036">
        <ele>249.6</ele>
        <time>2013-03-21T14:39:56Z</time>
      </trkpt>
      <trkpt lat="47.26974" lon="6.10063">
        <ele>249.6</ele>
        <time>2013-03-21T14:40:10Z</time>
      </trkpt>
      <trkpt lat="47.26969" lon="6.1009">
        <ele>249.6</ele>
        <time>2013-03-21T14:40:25Z</time>
      </trkpt>
      <trkpt lat="47.26962" lon="6.10118">
        <ele>250.08</ele>
        <time>2013-03-21T14:40:40Z</time>
      </trkpt>
      <trkpt lat="47.26955" lon="6.10151">
        <ele>250.08</ele>
        <time>2013-03-21T14:40:57Z</time>
      </trkpt>
      <trkpt lat="47.26952" lon="6.10177">
        <ele>249.6</ele>
        <time>2013-03-21T14:41:11Z</time>
      </trkpt>
      <trkpt lat="47.26947" lon="6.10205">
        <ele>250.08</ele>
        <time>2013-03-21T14:41:26Z</time>
      </trkpt>
      <trkpt lat="47.26944" lon="6.10232">
        <ele>249.6</ele>
        <time>2013-03-21T14:41:40Z</time>
      </trkpt>
      <trkpt lat="47.2694" lon="6.10258">
        <ele>250.08</ele>
        <time>2013-03-21T14:41:53Z</time>
      </trkpt>
      <trkpt lat="47.26933" lon="6.10283">
        <ele>249.12</ele>
        <time>2013-03-21T14:42:08Z</time>
      </trkpt>
      <trkpt lat="47.26931" lon="6.10308">
        <ele>249.12</ele>
        <time>2013-03-21T14:42:22Z</time>
      </trkpt>
      <trkpt lat="47.26926" lon="6.10334">
        <ele>249.12</ele>
        <time>2013-03-21T14:42:37Z</time>
      </trkpt>
      <trkpt lat="47.26921" lon="6.10367">
        <ele>249.12</ele>
        <time>2013-03-21T14:42:53Z</time>
      </trkpt>
      <trkpt lat="47.26915" lon="6.10398">
        <ele>249.12</ele>
        <time>2013-03-21T14:43:08Z</time>
      </trkpt>
      <trkpt lat="47.26912" lon="6.1042">
        <ele>249.12</ele>
        <time>2013-03-21T14:43:22Z</time>
      </trkpt>
      <trkpt lat="47.26907" lon="6.10446">
        <ele>249.12</ele>
        <time>2013-03-21T14:43:36Z</time>
      </trkpt>
      <trkpt lat="47.26905" lon="6.10469">
        <ele>249.12</ele>
        <time>2013-03-21T14:43:48Z</time>
      </trkpt>
      <trkpt lat="47.26905" lon="6.10477">
        <ele>249.6</ele>
        <time>2013-03-21T14:43:53Z</time>
      </trkpt>
      <trkpt lat="47.26905" lon="6.10481">
        <ele>249.6</ele>
        <time>2013-03-21T14:43:55Z</time>
      </trkpt>
      <trkpt lat="47.26904" lon="6.1049">
        <ele>249.6</ele>
        <time>2013-03-21T14:43:59Z</time>
      </trkpt>
      <trkpt lat="47.26902" lon="6.10523">
        <ele>249.6</ele>
        <time>2013-03-21T14:44:16Z</time>
      </trkpt>
      <trkpt lat="47.26899" lon="6.1055">
        <ele>249.12</ele>
        <time>2013-03-21T14:44:30Z</time>
      </trkpt>
      <trkpt lat="47.26899" lon="6.10578">
        <ele>249.12</ele>
        <time>2013-03-21T14:44:44Z</time>
      </trkpt>
      <trkpt lat="47.26898" lon="6.106">
        <ele>249.12</ele>
        <time>2013-03-21T14:44:56Z</time>
      </trkpt>
      <trkpt lat="47.26897" lon="6.10628">
        <ele>249.12</ele>
        <time>2013-03-21T14:45:11Z</time>
      </trkpt>
      <trkpt lat="47.26896" lon="6.10631">
        <ele>249.12</ele>
        <time>2013-03-21T14:45:13Z</time>
      </trkpt>
      <trkpt lat="47.26899" lon="6.10663">
        <ele>249.12</ele>
        <time>2013-03-21T14:45:29Z</time>
      </trkpt>
      <trkpt lat="47.26901" lon="6.10695">
        <ele>249.12</ele>
        <time>2013-03-21T14:45:45Z</time>
      </trkpt>
      <trkpt lat="47.26901" lon="6.10727">
        <ele>248.64</ele>
        <time>2013-03-21T14:46:01Z</time>
      </trkpt>
      <trkpt lat="47.26901" lon="6.10756">
        <ele>248.64</ele>
        <time>2013-03-21T14:46:16Z</time>
      </trkpt>
      <trkpt lat="47.26901" lon="6.10782">
        <ele>249.12</ele>
        <time>2013-03-21T14:46:29Z</time>
      </trkpt>
      <trkpt lat="47.26903" lon="6.10805">
        <ele>248.64</ele>
        <time>2013-03-21T14:46:42Z</time>
      </trkpt>
      <trkpt lat="47.26905" lon="6.10836">
        <ele>249.6</ele>
        <time>2013-03-21T14:46:58Z</time>
      </trkpt>
      <trkpt lat="47.2691" lon="6.10863">
        <ele>249.12</ele>
        <time>2013-03-21T14:47:13Z</time>
      </trkpt>
      <trkpt lat="47.26914" lon="6.10897">
        <ele>249.12</ele>
        <time>2013-03-21T14:47:30Z</time>
      </trkpt>
      <trkpt lat="47.26916" lon="6.10926">
        <ele>249.6</ele>
        <time>2013-03-21T14:47:46Z</time>
      </trkpt>
      <trkpt lat="47.26918" lon="6.10952">
        <ele>249.12</ele>
        <time>2013-03-21T14:48:01Z</time>
      </trkpt>
      <trkpt lat="47.26923" lon="6.10984">
        <ele>249.12</ele>
        <time>2013-03-21T14:48:17Z</time>
      </trkpt>
      <trkpt lat="47.26926" lon="6.11013">
        <ele>248.64</ele>
        <time>2013-03-21T14:48:31Z</time>
      </trkpt>
      <trkpt lat="47.26933" lon="6.11041">
        <ele>249.12</ele>
        <time>2013-03-21T14:48:46Z</time>
      </trkpt>
      <trkpt lat="47.26939" lon="6.11064">
        <ele>249.12</ele>
        <time>2013-03-21T14:49:00Z</time>
      </trkpt>
      <trkpt lat="47.26942" lon="6.11078">
        <ele>249.12</ele>
        <time>2013-03-21T14:49:09Z</time>
      </trkpt>
      <trkpt lat="47.26947" lon="6.11091">
        <ele>249.6</ele>
        <time>2013-03-21T14:49:19Z</time>
      </trkpt>
      <trkpt lat="47.26951" lon="6.11093">
        <ele>248.64</ele>
        <time>2013-03-21T14:49:23Z</time>
      </trkpt>
      <trkpt lat="47.26967" lon="6.11094">
        <ele>248.16</ele>
        <time>2013-03-21T14:49:39Z</time>
      </trkpt>
      <trkpt lat="47.26973" lon="6.11096">
        <ele>248.16</ele>
        <time>2013-03-21T14:49:54Z</time>
      </trkpt>
      <trkpt lat="47.26973" lon="6.11096">
        <ele>248.16</ele>
        <time>2013-03-21T14:50:15Z</time>
      </trkpt>
      <trkpt lat="47.26974" lon="6.11096">
        <ele>248.16</ele>
        <time>2013-03-21T14:50:34Z</time>
      </trkpt>
      <trkpt lat="47.26979" lon="6.11105">
        <ele>247.68</ele>
        <time>2013-03-21T14:50:48Z</time>
      </trkpt>
      <trkpt lat="47.26991" lon="6.1112">
        <ele>247.68</ele>
        <time>2013-03-21T14:51:02Z</time>
      </trkpt>
      <trkpt lat="47.27006" lon="6.11131">
        <ele>247.2</ele>
        <time>2013-03-21T14:51:16Z</time>
      </trkpt>
      <trkpt lat="47.2701" lon="6.11135">
        <ele>246.72</ele>
        <time>2013-03-21T14:51:21Z</time>
      </trkpt>
      <trkpt lat="47.27023" lon="6.11147">
        <ele>247.2</ele>
        <time>2013-03-21T14:51:35Z</time>
      </trkpt>
      <trkpt lat="47.27037" lon="6.11162">
        <ele>247.2</ele>
        <time>2013-03-21T14:51:50Z</time>
      </trkpt>
      <trkpt lat="47.27053" lon="6.11178">
        <ele>247.2</ele>
        <time>2013-03-21T14:52:06Z</time>
      </trkpt>
      <trkpt lat="47.27068" lon="6.1119">
        <ele>247.2</ele>
        <time>2013-03-21T14:52:20Z</time>
      </trkpt>
      <trkpt lat="47.27083" lon="6.11204">
        <ele>246.72</ele>
        <time>2013-03-21T14:52:35Z</time>
      </trkpt>
      <trkpt lat="47.27099" lon="6.11218">
        <ele>246.72</ele>
        <time>2013-03-21T14:52:50Z</time>
      </trkpt>
      <trkpt lat="47.27115" lon="6.11237">
        <ele>246.23</ele>
        <time>2013-03-21T14:53:06Z</time>
      </trkpt>
      <trkpt lat="47.27134" lon="6.11249">
        <ele>246.23</ele>
        <time>2013-03-21T14:53:22Z</time>
      </trkpt>
      <trkpt lat="47.27148" lon="6.11261">
        <ele>246.72</ele>
        <time>2013-03-21T14:53:36Z</time>
      </trkpt>
      <trkpt lat="47.27156" lon="6.11266">
        <ele>246.72</ele>
        <time>2013-03-21T14:53:43Z</time>
      </trkpt>
      <trkpt lat="47.27175" lon="6.11283">
        <ele>246.72</ele>
        <time>2013-03-21T14:54:01Z</time>
      </trkpt>
      <trkpt lat="47.27191" lon="6.11297">
        <ele>246.23</ele>
        <time>2013-03-21T14:54:16Z</time>
      </trkpt>
      <trkpt lat="47.2721" lon="6.11306">
        <ele>247.2</ele>
        <time>2013-03-21T14:54:31Z</time>
      </trkpt>
      <trkpt lat="47.27232" lon="6.11305">
        <ele>247.68</ele>
        <time>2013-03-21T14:54:49Z</time>
      </trkpt>
      <trkpt lat="47.2725" lon="6.11299">
        <ele>249.6</ele>
        <time>2013-03-21T14:55:03Z</time>
      </trkpt>
      <trkpt lat="47.27271" lon="6.11291">
        <ele>251.04</ele>
        <time>2013-03-21T14:55:20Z</time>
      </trkpt>
      <trkpt lat="47.27287" lon="6.11289">
        <ele>252</ele>
        <time>2013-03-21T14:55:34Z</time>
      </trkpt>
      <trkpt lat="47.27303" lon="6.11281">
        <ele>252.96</ele>
        <time>2013-03-21T14:55:48Z</time>
      </trkpt>
      <trkpt lat="47.27307" lon="6.11275">
        <ele>253.44</ele>
        <time>2013-03-21T14:55:52Z</time>
      </trkpt>
      <trkpt lat="47.27309" lon="6.1127">
        <ele>253.93</ele>
        <time>2013-03-21T14:55:56Z</time>
      </trkpt>
      <trkpt lat="47.2731" lon="6.11264">
        <ele>253.93</ele>
        <time>2013-03-21T14:55:59Z</time>
      </trkpt>
      <trkpt lat="47.27304" lon="6.11234">
        <ele>253.93</ele>
        <time>2013-03-21T14:56:14Z</time>
      </trkpt>
      <trkpt lat="47.27298" lon="6.11212">
        <ele>253.93</ele>
        <time>2013-03-21T14:56:26Z</time>
      </trkpt>
      <trkpt lat="47.27292" lon="6.11187">
        <ele>254.41</ele>
        <time>2013-03-21T14:56:40Z</time>
      </trkpt>
      <trkpt lat="47.27287" lon="6.11173">
        <ele>254.41</ele>
        <time>2013-03-21T14:56:49Z</time>
      </trkpt>
      <trkpt lat="47.27287" lon="6.11169">
        <ele>254.41</ele>
        <time>2013-03-21T14:56:51Z</time>
      </trkpt>
      <trkpt lat="47.27283" lon="6.11155">
        <ele>254.41</ele>
        <time>2013-03-21T14:57:00Z</time>
      </trkpt>
      <trkpt lat="47.2728" lon="6.11147">
        <ele>254.41</ele>
        <time>2013-03-21T14:57:05Z</time>
      </trkpt>
      <trkpt lat="47.27274" lon="6.11122">
        <ele>254.41</ele>
        <time>2013-03-21T14:57:20Z</time>
      </trkpt>
      <trkpt lat="47.27266" lon="6.11102">
        <ele>253.93</ele>
        <time>2013-03-21T14:57:33Z</time>
      </trkpt>
      <trkpt lat="47.27261" lon="6.11079">
        <ele>253.44</ele>
        <time>2013-03-21T14:57:46Z</time>
      </trkpt>
      <trkpt lat="47.27258" lon="6.11068">
        <ele>253.44</ele>
        <time>2013-03-21T14:57:52Z</time>
      </trkpt>
      <trkpt lat="47.27256" lon="6.1106">
        <ele>253.44</ele>
        <time>2013-03-21T14:57:57Z</time>
      </trkpt>
      <trkpt lat="47.27253" lon="6.11038">
        <ele>253.44</ele>
        <time>2013-03-21T14:58:11Z</time>
      </trkpt>
      <trkpt lat="47.27253" lon="6.11034">
        <ele>253.44</ele>
        <time>2013-03-21T14:58:25Z</time>
      </trkpt>
      <trkpt lat="47.27251" lon="6.11033">
        <ele>252.96</ele>
        <time>2013-03-21T14:58:43Z</time>
      </trkpt>
      <trkpt lat="47.2725" lon="6.11029">
        <ele>252.96</ele>
        <time>2013-03-21T14:59:00Z</time>
      </trkpt>
    </trkseg>
  </trk>
</gpx>